[[{"header":{"parameterUnit":"m.s-1","parameterCategory":1,"la1":31.0,"la2":29.5877,"lo1":-88.7671,"lo2":-86.6584,"dy":0.0162,"dx":0.0185,"nx":115,"ny":88,"refTime":"2023-06-09T12:00:00:Z","depth":0,"parameterNumber":2,"parameterNumberName":"U-component_of_WINDS"},"data":[0.0,0.0,0.0,0.0,0.0,0.0,0.0,0.0,0.0,0.0,0.0,0.0,0.0,0.0,0.0,0.0,0.0,0.0,0.0,0.0,0.0,0.0,0.0,0.0,0.0,0.0,0.0,0.0,0.0,0.0,0.0,0.0,0.0,0.0,0.0,0.0,0.0,0.0,0.0,0.0,0.0,0.0,0.0,0.0,0.0,0.0,0.0,0.0,0.0,0.0,0.0,0.0,0.0,0.0,0.0,0.0,0.0,0.0,0.0,0.0,0.0,0.0,0.0,0.0,0.0,0.0,0.0,0.0,0.0,0.0,0.0,0.0,0.0,0.0,0.0,0.0,0.0,0.0,0.0,0.0,0.0,0.0,0.0,0.0,0.0,0.0,0.0,0.0,0.0,0.0,0.0,0.0,0.0,0.0,0.0,0.0,0.0,0.0,0.0,0.0,0.0,0.0,0.0,0.0,0.0,0.0,0.0,0.0,0.0,0.0,0.0,0.0,0.0,0.0,0.0,0.0,0.0,0.0,0.0,0.0,0.0,0.0,0.0,0.0,0.0,0.0,0.0,0.0,0.0,0.0,0.0,0.0,0.0,0.0,0.0,0.0,0.0,0.0,0.0,0.0,0.0,0.0,0.0,0.0,0.0,0.0,0.0,0.0,0.0,0.0,0.0,0.0,0.0,0.0,0.0,0.0,0.0,0.0,0.0,0.0,0.0,0.0,0.0,0.0,0.0,0.0,0.0,0.0,0.0,0.0,0.0,0.0,0.0,0.0,0.0,0.0,0.0,0.0,0.0,0.0,0.0,0.0,0.0,0.0,0.0,0.0,0.0,0.0,0.0,0.0,0.0,0.0,0.0,0.0,0.0,0.0,0.0,0.0,0.0,0.0,0.0,0.0,0.0,0.0,0.0,0.0,0.0,0.0,0.0,0.0,0.0,0.0,0.0,0.0,0.0,0.0,0.0,0.0,0.0,0.0,0.0,0.0,0.0,0.0,0.0,0.0,0.0,0.0,0.0,0.0,0.0,0.0,0.0,0.0,0.0,0.0,0.0,0.0,0.0,0.0,0.0,0.0,0.0,0.0,0.0,0.0,0.0,0.0,0.0,0.0,0.0,0.0,0.0,0.0,0.0,0.0,0.0,0.0,0.0,0.0,0.0,0.0,0.0,0.0,0.0,0.0,0.0,0.0,0.0,0.0,0.0,0.0,0.0,0.0,0.0,0.0,0.0,0.0,0.0,0.0,0.0,0.0,0.0,0.0,0.0,0.0,0.0,0.0,0.0,0.0,0.0,0.0,0.0,0.0,0.0,0.0,0.0,0.0,0.0,0.0,0.0,0.0,0.0,0.0,0.0,0.0,0.0,0.0,0.0,0.0,0.0,0.0,0.0,0.0,0.0,0.0,0.0,0.0,0.0,0.0,0.0,0.0,0.0,0.0,0.0,0.0,0.0,0.0,0.0,0.0,0.0,0.0,0.0,0.0,0.0,0.0,0.0,0.0,0.0,0.0,0.0,0.0,0.0,0.0,0.0,0.0,0.0,0.0,0.0,0.0,0.0,0.0,0.0,0.0,0.0,0.0,0.0,0.0,0.0,0.0,0.0,0.0,0.0,0.0,0.0,0.0,0.0,0.0,0.0,0.0,0.0,0.0,0.0,0.0,0.0,0.0,0.0,0.0,0.0,0.0,0.0,0.0,0.0,0.0,0.0,0.0,0.0,0.0,0.0,0.0,0.0,0.0,0.0,0.0,0.0,0.0,0.0,0.0,0.0,0.0,0.0,0.0,0.0,0.0,0.0,0.0,0.0,0.0,0.0,0.0,0.0,0.0,0.0,0.0,0.0,0.0,0.0,0.0,0.0,0.0,0.0,0.0,0.0,0.0,0.0,0.0,0.0,0.0,0.0,0.0,0.0,0.0,0.0,0.0,0.0,0.0,0.0,0.0,0.0,0.0,0.0,0.0,0.0,0.0,0.0,0.0,0.0,0.0,0.0,0.0,0.0,0.0,0.0,0.0,0.0,0.0,0.0,0.0,0.0,0.0,0.0,0.0,0.0,0.0,0.0,0.0,0.0,0.0,0.0,0.0,0.0,0.0,0.0,0.0,0.0,0.0,0.0,0.0,0.0,0.0,0.0,0.0,0.0,0.0,0.0,0.0,0.0,0.0,0.0,0.0,0.0,0.0,0.0,0.0,0.0,0.0,0.0,0.0,0.0,0.0,0.0,0.0,0.0,0.0,0.0,0.0,0.0,0.0,0.0,0.0,0.0,0.0,0.0,0.0,0.0,0.0,0.0,0.0,0.0,0.0,0.0,0.0,0.0,0.0,0.0,0.0,0.0,0.0,0.0,0.0,0.0,0.0,0.0,0.0,0.0,0.0,0.0,0.0,0.0,0.0,0.0,0.0,0.0,0.0,0.0,0.0,0.0,0.0,0.0,0.0,0.0,0.0,0.0,0.0,0.0,0.0,0.0,0.0,0.0,0.0,0.0,0.0,0.0,0.0,0.0,0.0,0.0,0.0,0.0,0.0,0.0,0.0,0.0,0.0,0.0,0.0,0.0,0.0,0.0,0.0,0.0,0.0,0.0,0.0,0.0,0.0,0.0,0.0,0.0,0.0,0.0,0.0,0.0,0.0,0.0,0.0,0.0,0.0,0.0,0.0,0.0,0.0,0.0,0.0,0.0,0.0,0.0,0.0,0.0,0.0,0.0,0.0,0.0,0.0,0.0,0.0,0.0,0.0,0.0,0.0,0.0,0.0,0.0,0.0,0.0,0.0,0.0,0.0,0.0,0.0,0.0,0.0,0.0,0.0,0.0,0.0,0.0,0.0,0.0,0.0,0.0,0.0,0.0,0.0,0.0,0.0,0.0,0.0,0.0,0.0,0.0,0.0,0.0,0.0,0.0,0.0,0.0,0.0,0.0,0.0,0.0,0.0,0.0,0.0,0.0,0.0,0.0,0.0,0.0,0.0,0.0,0.0,0.0,0.0,0.0,0.0,0.0,0.0,0.0,0.0,0.0,0.0,0.0,0.0,0.0,0.0,0.0,0.0,0.0,0.0,0.0,0.0,0.0,0.0,0.0,0.0,0.0,0.0,0.0,0.0,0.0,0.0,0.0,0.0,0.0,0.0,0.0,0.0,0.0,0.0,0.0,0.0,0.0,0.0,0.0,0.0,0.0,0.0,0.0,0.0,0.0,0.0,0.0,0.0,0.0,0.0,0.0,0.0,0.0,0.0,0.0,0.0,0.0,0.0,0.0,0.0,0.0,0.0,0.0,0.0,0.0,0.0,0.0,0.0,0.0,0.0,0.0,0.0,0.0,0.0,0.0,0.0,0.0,0.0,0.0,0.0,0.0,0.0,0.0,0.0,0.0,0.0,0.0,0.0,0.0,0.0,0.0,0.0,0.0,0.0,0.0,0.0,0.0,0.0,0.0,0.0,0.0,0.0,0.0,0.0,0.0,0.0,0.0,0.0,0.0,0.0,0.0,0.0,0.0,0.0,0.0,0.0,0.0,0.0,0.0,0.0,0.0,0.0,0.0,0.0,0.0,0.0,0.0,0.0,0.0,0.0,0.0,0.0,0.0,0.0,0.0,0.0,0.0,0.0,0.0,0.0,0.0,0.0,0.0,0.0,0.0,0.0,0.0,0.0,0.0,0.0,0.0,0.0,0.0,0.0,0.0,0.0,0.0,0.0,0.0,0.0,0.0,0.0,0.0,0.0,0.0,0.0,0.0,0.0,0.0,0.0,0.0,0.0,0.0,0.0,0.0,0.0,0.0,0.0,0.0,0.0,0.0,0.0,0.0,0.0,0.0,0.0,0.0,0.0,0.0,0.0,0.0,0.0,0.0,0.0,0.0,0.0,0.0,0.0,0.0,0.0,0.0,0.0,0.0,0.0,0.0,0.0,0.0,0.0,0.0,0.0,0.0,0.0,0.0,0.0,0.0,0.0,0.0,0.0,0.0,0.0,0.0,0.0,0.0,0.0,0.0,0.0,0.0,0.0,0.0,0.0,0.0,0.0,0.0,0.0,0.0,0.0,0.0,0.0,0.0,0.0,0.0,0.0,0.0,0.0,0.0,0.0,0.0,0.0,0.0,0.0,0.0,0.0,0.0,0.0,0.0,0.0,0.0,0.0,0.0,0.0,0.0,0.0,0.0,0.0,0.0,0.0,0.0,0.0,0.0,0.0,0.0,0.0,0.0,0.0,0.0,0.0,0.0,0.0,0.0,0.0,0.0,0.0,0.0,0.0,0.0,0.0,0.0,0.0,0.0,0.0,-3.9044,0.0,0.0,0.0,0.0,0.0,0.0,0.0,0.0,0.0,0.0,0.0,0.0,0.0,0.0,0.0,0.0,0.0,0.0,0.0,0.0,0.0,0.0,0.0,0.0,0.0,0.0,0.0,0.0,0.0,0.0,0.0,0.0,0.0,0.0,0.0,0.0,0.0,0.0,0.0,0.0,0.0,0.0,0.0,0.0,0.0,0.0,0.0,0.0,0.0,0.0,0.0,0.0,0.0,0.0,0.0,0.0,0.0,0.0,0.0,0.0,0.0,0.0,0.0,0.0,0.0,0.0,0.0,0.0,0.0,0.0,0.0,0.0,0.0,0.0,0.0,0.0,0.0,0.0,0.0,0.0,0.0,0.0,0.0,0.0,0.0,0.0,0.0,0.0,0.0,0.0,0.0,0.0,0.0,0.0,0.0,0.0,0.0,0.0,0.0,0.0,0.0,0.0,0.0,0.0,0.0,0.0,0.0,0.0,0.0,0.0,-4.1854,-4.103,-4.0993,-4.0578,-3.9638,0.0,0.0,0.0,0.0,0.0,0.0,0.0,0.0,0.0,0.0,0.0,0.0,0.0,0.0,0.0,0.0,0.0,0.0,0.0,0.0,0.0,0.0,0.0,0.0,0.0,0.0,0.0,0.0,0.0,0.0,0.0,0.0,0.0,0.0,0.0,0.0,0.0,0.0,0.0,0.0,0.0,0.0,0.0,0.0,0.0,0.0,0.0,0.0,0.0,0.0,0.0,0.0,0.0,0.0,0.0,0.0,0.0,0.0,0.0,0.0,0.0,0.0,0.0,0.0,0.0,0.0,0.0,0.0,0.0,0.0,0.0,0.0,0.0,0.0,0.0,0.0,0.0,0.0,0.0,0.0,0.0,0.0,0.0,0.0,0.0,0.0,0.0,0.0,0.0,0.0,0.0,0.0,0.0,0.0,0.0,0.0,0.0,0.0,0.0,0.0,0.0,0.0,0.0,0.0,0.0,0.0,0.0,0.0,0.0,0.0,0.0,0.0,-4.1702,-4.1206,-4.0117,0.0,0.0,0.0,0.0,0.0,0.0,0.0,0.0,0.0,0.0,0.0,0.0,0.0,0.0,0.0,0.0,0.0,0.0,0.0,0.0,0.0,0.0,0.0,0.0,0.0,0.0,0.0,0.0,0.0,0.0,0.0,0.0,0.0,0.0,0.0,0.0,0.0,0.0,0.0,0.0,0.0,0.0,0.0,0.0,0.0,0.0,0.0,0.0,0.0,0.0,0.0,0.0,0.0,0.0,0.0,0.0,0.0,0.0,0.0,0.0,0.0,0.0,0.0,0.0,0.0,0.0,0.0,0.0,0.0,0.0,0.0,0.0,0.0,0.0,0.0,0.0,0.0,0.0,0.0,0.0,0.0,0.0,0.0,0.0,0.0,0.0,0.0,0.0,0.0,0.0,0.0,0.0,0.0,0.0,0.0,0.0,0.0,0.0,0.0,0.0,0.0,0.0,0.0,0.0,0.0,0.0,0.0,0.0,0.0,0.0,-4.3303,-4.2421,-4.24,0.0,-4.0136,0.0,0.0,0.0,0.0,0.0,0.0,0.0,0.0,0.0,0.0,0.0,0.0,0.0,0.0,0.0,0.0,0.0,0.0,0.0,0.0,0.0,0.0,0.0,0.0,0.0,0.0,0.0,0.0,0.0,0.0,0.0,0.0,0.0,0.0,0.0,0.0,0.0,0.0,0.0,0.0,0.0,0.0,0.0,0.0,0.0,0.0,0.0,0.0,0.0,0.0,0.0,0.0,0.0,0.0,0.0,0.0,0.0,0.0,0.0,0.0,0.0,0.0,0.0,0.0,0.0,0.0,0.0,0.0,0.0,0.0,0.0,0.0,0.0,0.0,0.0,0.0,0.0,0.0,0.0,0.0,0.0,0.0,0.0,0.0,0.0,0.0,0.0,0.0,0.0,0.0,0.0,0.0,0.0,0.0,0.0,0.0,0.0,0.0,0.0,0.0,0.0,0.0,0.0,0.0,0.0,0.0,0.0,0.0,0.0,0.0,-4.3586,-4.3152,-4.2677,-4.1854,0.0,0.0,0.0,0.0,0.0,0.0,0.0,0.0,0.0,0.0,0.0,0.0,0.0,0.0,0.0,0.0,0.0,0.0,0.0,0.0,0.0,0.0,0.0,0.0,0.0,0.0,0.0,0.0,0.0,0.0,0.0,0.0,0.0,0.0,0.0,0.0,0.0,0.0,0.0,0.0,0.0,0.0,0.0,0.0,0.0,0.0,0.0,0.0,0.0,0.0,0.0,0.0,0.0,0.0,0.0,0.0,0.0,0.0,0.0,0.0,0.0,0.0,0.0,0.0,0.0,0.0,0.0,0.0,0.0,0.0,0.0,0.0,0.0,0.0,0.0,0.0,0.0,0.0,0.0,0.0,0.0,0.0,0.0,0.0,0.0,0.0,0.0,0.0,0.0,0.0,0.0,0.0,0.0,0.0,0.0,0.0,0.0,0.0,0.0,0.0,0.0,0.0,0.0,0.0,0.0,0.0,0.0,0.0,0.0,0.0,-4.3721,-4.3667,-4.3546,-4.2947,-4.2199,-4.1429,0.0,0.0,0.0,0.0,0.0,0.0,0.0,0.0,0.0,0.0,0.0,0.0,0.0,0.0,0.0,0.0,0.0,0.0,0.0,0.0,0.0,0.0,0.0,0.0,0.0,0.0,0.0,0.0,0.0,0.0,0.0,0.0,0.0,0.0,0.0,0.0,0.0,0.0,0.0,0.0,0.0,0.0,0.0,0.0,0.0,0.0,0.0,0.0,0.0,0.0,0.0,0.0,0.0,0.0,0.0,0.0,0.0,0.0,0.0,0.0,0.0,0.0,0.0,0.0,0.0,0.0,0.0,0.0,0.0,0.0,0.0,0.0,0.0,0.0,0.0,0.0,0.0,0.0,0.0,0.0,0.0,0.0,0.0,0.0,0.0,0.0,0.0,0.0,0.0,0.0,0.0,0.0,0.0,0.0,0.0,0.0,0.0,0.0,0.0,0.0,0.0,0.0,0.0,0.0,0.0,0.0,0.0,0.0,-4.3515,-4.3515,-4.3515,-4.3515,-4.3391,-4.2955,0.0,0.0,0.0,0.0,0.0,0.0,0.0,0.0,0.0,0.0,0.0,0.0,0.0,0.0,0.0,0.0,0.0,0.0,0.0,0.0,0.0,0.0,0.0,0.0,0.0,0.0,0.0,0.0,0.0,0.0,0.0,0.0,0.0,0.0,0.0,0.0,0.0,0.0,0.0,0.0,0.0,0.0,0.0,0.0,0.0,0.0,0.0,0.0,0.0,0.0,0.0,0.0,0.0,0.0,0.0,0.0,0.0,0.0,0.0,0.0,0.0,0.0,0.0,0.0,0.0,0.0,0.0,0.0,0.0,0.0,0.0,0.0,0.0,0.0,0.0,0.0,0.0,0.0,0.0,0.0,0.0,0.0,0.0,0.0,0.0,0.0,0.0,0.0,0.0,0.0,0.0,0.0,0.0,0.0,0.0,0.0,0.0,0.0,0.0,0.0,0.0,0.0,0.0,0.0,0.0,0.0,0.0,0.0,0.0,-4.341,-4.3358,-4.3322,-4.3304,-4.3286,-4.2903,0.0,0.0,0.0,0.0,0.0,0.0,0.0,0.0,0.0,0.0,0.0,0.0,0.0,0.0,0.0,0.0,0.0,0.0,0.0,0.0,0.0,0.0,0.0,0.0,0.0,0.0,0.0,0.0,0.0,0.0,0.0,0.0,0.0,0.0,0.0,0.0,0.0,0.0,0.0,0.0,0.0,0.0,0.0,0.0,0.0,0.0,0.0,0.0,0.0,0.0,0.0,0.0,0.0,0.0,0.0,0.0,0.0,0.0,0.0,0.0,0.0,0.0,0.0,0.0,0.0,0.0,0.0,0.0,0.0,0.0,0.0,0.0,0.0,0.0,0.0,0.0,0.0,0.0,0.0,0.0,0.0,0.0,0.0,0.0,0.0,0.0,0.0,0.0,0.0,0.0,0.0,0.0,0.0,0.0,0.0,0.0,0.0,0.0,0.0,0.0,0.0,0.0,0.0,0.0,0.0,0.0,0.0,0.0,0.0,-4.3304,0.0,-4.3214,-4.3214,-4.3178,-4.2905,0.0,0.0,0.0,0.0,0.0,0.0,0.0,0.0,0.0,0.0,0.0,0.0,0.0,0.0,0.0,0.0,0.0,0.0,0.0,0.0,0.0,0.0,0.0,0.0,0.0,0.0,0.0,0.0,0.0,0.0,0.0,0.0,0.0,0.0,0.0,0.0,0.0,0.0,0.0,0.0,0.0,0.0,0.0,0.0,0.0,0.0,0.0,0.0,0.0,0.0,0.0,0.0,0.0,0.0,0.0,0.0,0.0,0.0,0.0,0.0,0.0,0.0,0.0,0.0,0.0,0.0,0.0,0.0,0.0,0.0,0.0,0.0,0.0,0.0,0.0,0.0,0.0,0.0,0.0,0.0,0.0,0.0,0.0,0.0,0.0,0.0,0.0,0.0,0.0,0.0,0.0,0.0,0.0,0.0,0.0,0.0,0.0,0.0,0.0,0.0,0.0,0.0,0.0,0.0,0.0,0.0,0.0,0.0,-4.3196,-4.3196,-4.3233,-4.3287,-4.3196,-4.3178,-4.3122,0.0,0.0,0.0,0.0,0.0,0.0,0.0,0.0,0.0,0.0,0.0,0.0,0.0,0.0,0.0,0.0,0.0,0.0,0.0,0.0,0.0,0.0,0.0,0.0,0.0,0.0,0.0,0.0,0.0,0.0,0.0,0.0,0.0,0.0,0.0,0.0,0.0,0.0,0.0,0.0,0.0,0.0,0.0,0.0,0.0,0.0,0.0,0.0,0.0,0.0,0.0,0.0,0.0,0.0,0.0,0.0,0.0,0.0,0.0,0.0,0.0,0.0,0.0,0.0,0.0,0.0,0.0,0.0,0.0,0.0,0.0,0.0,0.0,0.0,0.0,0.0,0.0,0.0,0.0,0.0,0.0,0.0,0.0,0.0,0.0,0.0,0.0,0.0,0.0,0.0,0.0,0.0,0.0,0.0,0.0,0.0,0.0,0.0,0.0,0.0,0.0,0.0,0.0,0.0,0.0,0.0,0.0,0.0,0.0,-4.3696,-4.4239,-4.4236,-4.3671,-4.3595,-4.3323,0.0,0.0,0.0,0.0,0.0,0.0,0.0,0.0,0.0,0.0,0.0,0.0,0.0,0.0,0.0,0.0,0.0,0.0,0.0,0.0,0.0,0.0,0.0,0.0,0.0,0.0,0.0,0.0,0.0,0.0,0.0,0.0,0.0,0.0,0.0,0.0,0.0,0.0,0.0,0.0,0.0,0.0,0.0,0.0,0.0,0.0,0.0,0.0,0.0,0.0,0.0,0.0,0.0,0.0,0.0,0.0,0.0,0.0,0.0,0.0,0.0,0.0,0.0,0.0,0.0,0.0,0.0,0.0,0.0,0.0,0.0,0.0,0.0,0.0,0.0,0.0,0.0,0.0,0.0,0.0,0.0,0.0,0.0,0.0,0.0,0.0,0.0,0.0,0.0,0.0,0.0,0.0,0.0,0.0,0.0,0.0,0.0,0.0,0.0,0.0,0.0,0.0,0.0,0.0,0.0,0.0,0.0,0.0,0.0,-4.5012,-4.506,-4.4793,-4.4263,-4.4263,-4.3868,-4.3077,0.0,0.0,0.0,0.0,0.0,0.0,0.0,0.0,0.0,0.0,0.0,0.0,0.0,0.0,0.0,0.0,0.0,0.0,0.0,0.0,0.0,0.0,0.0,0.0,0.0,0.0,0.0,0.0,0.0,0.0,0.0,0.0,0.0,0.0,0.0,0.0,0.0,0.0,0.0,0.0,0.0,0.0,0.0,0.0,0.0,0.0,0.0,0.0,0.0,0.0,0.0,0.0,0.0,0.0,0.0,0.0,0.0,0.0,0.0,0.0,0.0,0.0,0.0,0.0,0.0,0.0,0.0,0.0,0.0,0.0,0.0,0.0,0.0,0.0,0.0,0.0,0.0,0.0,0.0,0.0,0.0,0.0,0.0,0.0,0.0,0.0,0.0,0.0,0.0,0.0,0.0,0.0,0.0,0.0,0.0,0.0,0.0,0.0,0.0,0.0,0.0,0.0,0.0,0.0,0.0,0.0,0.0,0.0,-4.6929,-4.5817,-4.5228,-4.512,-4.512,-4.4689,0.0,0.0,0.0,0.0,0.0,0.0,0.0,0.0,0.0,0.0,0.0,0.0,0.0,0.0,0.0,0.0,0.0,0.0,0.0,0.0,0.0,0.0,0.0,0.0,0.0,0.0,0.0,0.0,0.0,0.0,0.0,0.0,0.0,0.0,0.0,0.0,0.0,0.0,0.0,0.0,0.0,0.0,0.0,0.0,0.0,0.0,0.0,0.0,0.0,0.0,0.0,0.0,0.0,0.0,0.0,0.0,0.0,0.0,0.0,0.0,0.0,0.0,0.0,0.0,0.0,0.0,0.0,0.0,0.0,0.0,0.0,0.0,0.0,0.0,0.0,0.0,0.0,0.0,0.0,0.0,0.0,0.0,0.0,0.0,0.0,0.0,0.0,0.0,0.0,0.0,0.0,0.0,0.0,0.0,0.0,0.0,0.0,0.0,0.0,0.0,0.0,0.0,0.0,0.0,0.0,0.0,0.0,0.0,0.0,-4.7536,-4.7796,-4.7358,-4.6221,-4.6186,-4.5546,0.0,0.0,0.0,0.0,0.0,0.0,0.0,0.0,0.0,0.0,0.0,0.0,0.0,0.0,0.0,0.0,0.0,0.0,0.0,0.0,0.0,0.0,0.0,0.0,0.0,0.0,0.0,0.0,0.0,0.0,0.0,0.0,0.0,0.0,0.0,0.0,0.0,0.0,0.0,0.0,0.0,0.0,0.0,0.0,0.0,0.0,0.0,0.0,0.0,0.0,0.0,0.0,0.0,0.0,0.0,0.0,0.0,0.0,0.0,0.0,0.0,0.0,0.0,0.0,0.0,0.0,0.0,0.0,0.0,0.0,0.0,0.0,0.0,0.0,0.0,0.0,0.0,0.0,0.0,0.0,0.0,0.0,0.0,0.0,0.0,0.0,0.0,0.0,0.0,0.0,0.0,0.0,0.0,0.0,0.0,0.0,0.0,0.0,0.0,0.0,0.0,0.0,0.0,0.0,0.0,0.0,0.0,0.0,-4.7866,-4.9007,-4.9501,-4.9212,-4.823,-4.747,-4.6531,0.0,0.0,0.0,0.0,0.0,0.0,0.0,0.0,0.0,0.0,0.0,0.0,0.0,0.0,0.0,0.0,0.0,0.0,0.0,0.0,0.0,0.0,0.0,0.0,0.0,0.0,0.0,0.0,0.0,0.0,0.0,0.0,0.0,0.0,0.0,0.0,0.0,0.0,0.0,0.0,0.0,0.0,0.0,0.0,0.0,0.0,0.0,0.0,0.0,0.0,0.0,0.0,0.0,0.0,0.0,0.0,0.0,0.0,0.0,0.0,0.0,0.0,0.0,0.0,0.0,0.0,0.0,0.0,0.0,0.0,0.0,0.0,0.0,0.0,0.0,0.0,0.0,0.0,0.0,0.0,0.0,0.0,0.0,0.0,0.0,0.0,0.0,0.0,0.0,0.0,0.0,0.0,0.0,0.0,0.0,0.0,0.0,0.0,0.0,0.0,0.0,0.0,0.0,0.0,0.0,0.0,0.0,0.0,-4.8866,-5.0721,-5.0932,-5.0829,-5.0495,-4.8924,-4.7625,0.0,0.0,0.0,0.0,0.0,0.0,0.0,0.0,0.0,0.0,0.0,0.0,0.0,0.0,0.0,0.0,0.0,0.0,0.0,0.0,0.0,0.0,0.0,0.0,0.0,0.0,0.0,0.0,0.0,0.0,0.0,0.0,0.0,0.0,0.0,0.0,0.0,0.0,0.0,0.0,0.0,0.0,0.0,0.0,0.0,0.0,0.0,0.0,0.0,0.0,0.0,0.0,0.0,0.0,0.0,0.0,0.0,0.0,0.0,0.0,0.0,0.0,0.0,0.0,0.0,0.0,0.0,0.0,0.0,0.0,0.0,0.0,0.0,0.0,0.0,0.0,0.0,0.0,0.0,0.0,0.0,0.0,0.0,0.0,0.0,0.0,0.0,0.0,0.0,0.0,0.0,0.0,0.0,0.0,0.0,0.0,0.0,0.0,0.0,0.0,0.0,0.0,0.0,0.0,0.0,0.0,0.0,0.0,-4.9696,-5.0481,-5.1638,-5.1958,-5.1274,-5.0369,-4.8977,0.0,0.0,0.0,0.0,0.0,0.0,0.0,0.0,0.0,0.0,0.0,0.0,0.0,0.0,0.0,0.0,0.0,0.0,0.0,0.0,0.0,0.0,0.0,0.0,0.0,0.0,0.0,0.0,0.0,0.0,0.0,0.0,0.0,0.0,0.0,0.0,0.0,0.0,0.0,0.0,0.0,0.0,0.0,0.0,0.0,0.0,0.0,0.0,-3.8566,0.0,0.0,0.0,0.0,0.0,0.0,0.0,0.0,0.0,0.0,0.0,0.0,0.0,0.0,0.0,0.0,0.0,0.0,0.0,0.0,0.0,0.0,0.0,0.0,0.0,0.0,0.0,0.0,0.0,0.0,0.0,0.0,0.0,0.0,0.0,0.0,0.0,0.0,0.0,0.0,0.0,0.0,0.0,0.0,0.0,0.0,0.0,0.0,0.0,0.0,0.0,0.0,0.0,0.0,0.0,0.0,0.0,0.0,0.0,-5.0474,-5.1361,-5.2507,-5.2865,-5.2389,-5.1661,-5.0083,0.0,0.0,0.0,0.0,0.0,0.0,0.0,0.0,0.0,0.0,0.0,0.0,0.0,0.0,0.0,0.0,0.0,0.0,0.0,0.0,0.0,0.0,0.0,0.0,0.0,0.0,0.0,0.0,0.0,0.0,0.0,0.0,0.0,0.0,0.0,0.0,0.0,0.0,0.0,0.0,0.0,0.0,0.0,0.0,0.0,0.0,0.0,0.0,0.0,0.0,0.0,0.0,0.0,0.0,0.0,0.0,0.0,0.0,0.0,0.0,0.0,0.0,0.0,0.0,0.0,0.0,0.0,0.0,0.0,0.0,0.0,0.0,0.0,0.0,0.0,0.0,0.0,0.0,0.0,0.0,0.0,0.0,0.0,0.0,0.0,0.0,0.0,0.0,0.0,0.0,0.0,0.0,0.0,0.0,0.0,0.0,0.0,0.0,0.0,0.0,0.0,0.0,0.0,0.0,0.0,0.0,0.0,-4.9681,-5.1188,-5.2428,-5.3294,-5.3618,-5.3391,-5.2632,-5.0956,-4.8298,0.0,0.0,0.0,0.0,0.0,0.0,0.0,0.0,0.0,0.0,0.0,0.0,0.0,0.0,0.0,0.0,0.0,0.0,0.0,0.0,0.0,0.0,0.0,0.0,0.0,0.0,0.0,0.0,0.0,0.0,0.0,0.0,0.0,0.0,0.0,0.0,0.0,0.0,-3.9103,-3.9797,0.0,0.0,0.0,0.0,0.0,0.0,0.0,0.0,-3.9207,0.0,0.0,0.0,0.0,0.0,0.0,0.0,0.0,0.0,0.0,0.0,0.0,0.0,0.0,0.0,0.0,0.0,0.0,0.0,0.0,0.0,0.0,0.0,0.0,0.0,0.0,0.0,0.0,0.0,0.0,0.0,0.0,0.0,0.0,0.0,0.0,0.0,0.0,0.0,0.0,0.0,0.0,0.0,0.0,0.0,0.0,0.0,0.0,0.0,0.0,0.0,0.0,0.0,0.0,0.0,0.0,-4.7946,-5.0067,-5.1499,-5.2248,-5.3629,-5.4043,-5.3425,-5.2632,-5.108,-4.8825,0.0,0.0,0.0,0.0,0.0,0.0,0.0,0.0,0.0,0.0,0.0,0.0,0.0,0.0,0.0,0.0,0.0,0.0,0.0,0.0,0.0,0.0,0.0,0.0,0.0,0.0,0.0,0.0,0.0,0.0,0.0,0.0,0.0,0.0,0.0,0.0,0.0,0.0,0.0,-4.07,-4.0769,0.0,0.0,0.0,0.0,0.0,0.0,0.0,0.0,-4.0515,0.0,0.0,0.0,0.0,0.0,0.0,0.0,0.0,0.0,0.0,0.0,0.0,0.0,0.0,0.0,0.0,0.0,0.0,0.0,0.0,0.0,0.0,0.0,0.0,0.0,0.0,0.0,0.0,0.0,0.0,0.0,0.0,0.0,0.0,0.0,0.0,0.0,0.0,0.0,0.0,0.0,0.0,0.0,0.0,0.0,0.0,0.0,0.0,0.0,0.0,0.0,0.0,0.0,0.0,0.0,-4.8439,-5.0616,-5.2106,-5.2839,-5.3942,-5.4322,-5.3977,-5.2808,-5.1326,0.0,0.0,0.0,0.0,0.0,0.0,0.0,0.0,0.0,0.0,0.0,0.0,0.0,0.0,0.0,0.0,0.0,0.0,0.0,0.0,0.0,0.0,0.0,0.0,0.0,0.0,0.0,0.0,0.0,0.0,0.0,0.0,0.0,0.0,0.0,0.0,0.0,0.0,0.0,0.0,-4.0823,-4.0913,-4.1326,0.0,0.0,0.0,0.0,0.0,0.0,-4.068,-4.068,0.0,0.0,0.0,0.0,0.0,0.0,0.0,0.0,0.0,0.0,0.0,0.0,0.0,0.0,0.0,0.0,0.0,0.0,0.0,0.0,0.0,0.0,0.0,0.0,0.0,0.0,0.0,0.0,0.0,0.0,0.0,0.0,0.0,0.0,0.0,0.0,0.0,0.0,0.0,0.0,0.0,0.0,0.0,0.0,0.0,0.0,0.0,0.0,0.0,0.0,0.0,0.0,0.0,0.0,0.0,-4.9051,-5.1119,-5.2597,-5.3391,-5.4115,-5.446,-5.4287,-5.2912,-5.1459,0.0,0.0,0.0,0.0,0.0,0.0,0.0,0.0,0.0,0.0,0.0,0.0,0.0,0.0,0.0,0.0,0.0,0.0,0.0,0.0,0.0,0.0,0.0,0.0,0.0,0.0,0.0,0.0,0.0,0.0,0.0,0.0,0.0,0.0,0.0,0.0,0.0,0.0,0.0,0.0,0.0,-4.1146,-4.1866,-4.138,0.0,0.0,0.0,0.0,-4.0954,-4.0817,0.0,0.0,0.0,0.0,0.0,0.0,0.0,0.0,0.0,0.0,0.0,0.0,0.0,0.0,0.0,0.0,0.0,0.0,0.0,0.0,0.0,0.0,0.0,0.0,0.0,0.0,0.0,0.0,0.0,0.0,0.0,0.0,0.0,0.0,0.0,0.0,0.0,0.0,0.0,0.0,0.0,0.0,0.0,0.0,0.0,0.0,0.0,0.0,0.0,0.0,0.0,0.0,0.0,0.0,0.0,0.0,-4.9873,-5.1425,-5.2597,-5.3391,-5.4115,-5.4218,-5.3563,-5.2666,-5.1154,0.0,0.0,0.0,0.0,0.0,0.0,0.0,0.0,0.0,0.0,0.0,0.0,0.0,0.0,0.0,0.0,0.0,0.0,0.0,0.0,0.0,0.0,0.0,0.0,0.0,0.0,0.0,0.0,0.0,0.0,0.0,0.0,0.0,0.0,0.0,0.0,0.0,0.0,0.0,0.0,0.0,-4.1749,-4.2492,-4.2501,-4.2467,0.0,0.0,-4.2441,-4.2467,-4.192,0.0,0.0,0.0,0.0,0.0,0.0,0.0,0.0,0.0,0.0,0.0,0.0,0.0,0.0,0.0,0.0,0.0,0.0,0.0,0.0,0.0,0.0,0.0,0.0,0.0,0.0,0.0,0.0,0.0,0.0,0.0,0.0,0.0,0.0,0.0,0.0,0.0,0.0,0.0,0.0,0.0,0.0,0.0,0.0,0.0,0.0,0.0,0.0,0.0,0.0,0.0,0.0,0.0,0.0,0.0,-4.8637,-5.0597,-5.1636,-5.2774,-5.3977,-5.4322,-5.4149,-5.3425,-5.2632,-5.1119,0.0,0.0,0.0,0.0,0.0,0.0,0.0,0.0,0.0,0.0,0.0,0.0,0.0,0.0,0.0,0.0,0.0,0.0,0.0,0.0,0.0,0.0,0.0,0.0,0.0,0.0,0.0,0.0,0.0,0.0,0.0,0.0,0.0,0.0,0.0,0.0,0.0,0.0,0.0,0.0,0.0,0.0,-4.3121,-4.2796,0.0,0.0,0.0,-4.2471,-4.2471,0.0,0.0,0.0,0.0,0.0,0.0,0.0,0.0,0.0,0.0,0.0,0.0,0.0,0.0,0.0,0.0,0.0,0.0,0.0,0.0,0.0,0.0,0.0,0.0,0.0,0.0,0.0,0.0,0.0,0.0,0.0,0.0,0.0,0.0,0.0,0.0,0.0,0.0,0.0,0.0,0.0,0.0,0.0,0.0,0.0,0.0,0.0,0.0,0.0,0.0,0.0,0.0,0.0,0.0,0.0,0.0,0.0,-5.1172,-5.1791,-5.2822,-5.4299,-5.4367,-5.392,-5.2991,-5.2406,0.0,0.0,0.0,0.0,0.0,0.0,0.0,0.0,0.0,0.0,0.0,0.0,0.0,0.0,0.0,0.0,0.0,0.0,0.0,0.0,0.0,0.0,0.0,0.0,0.0,0.0,0.0,-3.5978,0.0,0.0,0.0,0.0,0.0,0.0,0.0,0.0,0.0,0.0,0.0,0.0,0.0,0.0,-4.2996,-4.3736,-4.3281,-4.3064,0.0,0.0,-4.2888,-4.2888,-4.2692,-4.2591,0.0,0.0,0.0,0.0,0.0,0.0,0.0,0.0,0.0,0.0,0.0,0.0,0.0,0.0,0.0,0.0,0.0,0.0,0.0,0.0,0.0,0.0,0.0,0.0,0.0,0.0,0.0,0.0,0.0,0.0,0.0,0.0,0.0,0.0,0.0,0.0,0.0,0.0,0.0,0.0,0.0,0.0,0.0,0.0,0.0,0.0,0.0,0.0,0.0,0.0,0.0,0.0,0.0,0.0,0.0,-5.1552,-5.1691,-5.2475,-5.3945,-5.4013,-5.3329,-5.1893,-5.176,-5.0697,0.0,0.0,0.0,0.0,0.0,0.0,0.0,0.0,0.0,0.0,0.0,0.0,0.0,0.0,0.0,0.0,0.0,0.0,0.0,0.0,0.0,0.0,0.0,0.0,0.0,0.0,0.0,0.0,0.0,0.0,0.0,0.0,0.0,0.0,0.0,0.0,0.0,0.0,0.0,0.0,0.0,-4.3639,-4.4445,-4.4479,-4.4479,0.0,0.0,-4.4445,-4.4445,-4.3809,-4.3308,-4.3308,0.0,0.0,0.0,0.0,0.0,0.0,0.0,0.0,0.0,0.0,0.0,0.0,0.0,0.0,0.0,0.0,0.0,0.0,0.0,0.0,0.0,0.0,0.0,0.0,0.0,0.0,0.0,0.0,0.0,0.0,0.0,0.0,0.0,0.0,0.0,0.0,0.0,0.0,0.0,0.0,0.0,0.0,0.0,0.0,0.0,0.0,0.0,0.0,0.0,0.0,0.0,0.0,0.0,-4.9257,-5.1626,-5.1725,-5.2477,-5.3912,-5.398,-5.3263,-5.176,-5.1725,-5.0666,0.0,0.0,0.0,0.0,0.0,0.0,0.0,0.0,0.0,0.0,0.0,0.0,0.0,0.0,0.0,0.0,0.0,0.0,0.0,0.0,0.0,0.0,0.0,0.0,0.0,0.0,0.0,0.0,-3.7483,-3.7787,-3.8497,0.0,0.0,0.0,0.0,0.0,0.0,0.0,0.0,0.0,0.0,-4.4418,-4.5162,-4.5263,0.0,0.0,-4.5568,-4.5263,-4.5297,-4.4621,-4.4113,-4.4147,-4.3504,0.0,0.0,0.0,0.0,0.0,0.0,0.0,0.0,0.0,0.0,0.0,0.0,0.0,0.0,0.0,0.0,0.0,0.0,0.0,0.0,0.0,0.0,0.0,0.0,0.0,0.0,0.0,0.0,0.0,0.0,0.0,0.0,0.0,0.0,0.0,0.0,0.0,0.0,0.0,0.0,0.0,0.0,0.0,0.0,0.0,0.0,0.0,0.0,0.0,0.0,0.0,0.0,-4.9381,-5.1503,-5.1568,-5.2284,-5.3815,-5.385,-5.3203,-5.1943,-5.167,-5.0717,0.0,0.0,0.0,0.0,0.0,0.0,0.0,0.0,0.0,0.0,0.0,0.0,0.0,0.0,0.0,0.0,0.0,0.0,0.0,0.0,0.0,0.0,0.0,0.0,0.0,0.0,0.0,0.0,-3.843,-3.8768,-3.9276,0.0,0.0,0.0,0.0,0.0,0.0,0.0,0.0,0.0,0.0,-4.5094,-4.5635,-4.5906,-4.621,-4.6718,-4.6346,-4.5974,-4.5737,-4.5263,-4.4852,-4.4649,0.0,0.0,0.0,0.0,0.0,0.0,0.0,0.0,0.0,0.0,0.0,0.0,0.0,0.0,0.0,0.0,0.0,0.0,0.0,0.0,0.0,0.0,0.0,0.0,0.0,0.0,0.0,0.0,0.0,0.0,-4.6816,0.0,0.0,0.0,0.0,0.0,0.0,0.0,0.0,0.0,0.0,0.0,0.0,0.0,0.0,0.0,0.0,0.0,0.0,0.0,0.0,0.0,0.0,-4.9172,-5.1183,-5.1251,-5.1995,-5.345,-5.3484,-5.3112,-5.2299,-5.1589,-5.0845,-4.9997,0.0,0.0,0.0,0.0,0.0,0.0,0.0,0.0,0.0,0.0,0.0,0.0,0.0,0.0,0.0,0.0,0.0,0.0,0.0,0.0,0.0,0.0,0.0,0.0,0.0,0.0,-3.8903,-3.9639,-4.002,0.0,0.0,0.0,0.0,0.0,0.0,0.0,0.0,0.0,0.0,-4.4694,-4.5669,-4.5737,-4.6312,-4.6786,-4.6819,-4.6786,-4.6549,-4.5838,-4.5703,-4.5432,0.0,0.0,0.0,0.0,0.0,0.0,0.0,0.0,0.0,0.0,0.0,0.0,0.0,0.0,0.0,0.0,0.0,0.0,0.0,0.0,0.0,0.0,0.0,0.0,0.0,0.0,0.0,-4.6428,-4.6428,0.0,0.0,0.0,0.0,0.0,0.0,0.0,0.0,0.0,0.0,0.0,-4.7322,-4.7698,0.0,0.0,0.0,0.0,0.0,0.0,0.0,0.0,0.0,0.0,0.0,0.0,-4.9997,-5.1183,-5.1691,-5.2435,-5.3484,-5.3518,-5.3112,-5.23,-5.1589,-5.0405,-4.868,0.0,0.0,0.0,0.0,0.0,0.0,0.0,0.0,0.0,0.0,0.0,0.0,0.0,0.0,0.0,0.0,0.0,0.0,0.0,0.0,0.0,0.0,0.0,0.0,0.0,-3.927,0.0,0.0,0.0,0.0,0.0,0.0,0.0,0.0,0.0,0.0,0.0,-4.3809,-4.4823,-4.5365,-4.6046,-4.7022,-4.7365,-4.7699,0.0,0.0,0.0,0.0,0.0,0.0,0.0,0.0,0.0,0.0,0.0,0.0,0.0,0.0,-4.343,-4.2151,-4.1914,-4.1847,-4.1636,0.0,0.0,0.0,0.0,0.0,0.0,0.0,0.0,0.0,0.0,0.0,0.0,0.0,0.0,-4.7435,0.0,-4.7499,0.0,0.0,0.0,0.0,0.0,0.0,0.0,0.0,-4.8222,-4.8423,-4.8456,-4.8956,-4.9189,0.0,-4.9382,-4.9007,0.0,0.0,0.0,0.0,0.0,0.0,0.0,0.0,-5.0574,-5.1555,-5.2063,-5.2706,-5.345,-5.3518,-5.3247,-5.2739,-5.1758,-5.0168,-4.7973,-4.7428,-4.6718,0.0,0.0,0.0,0.0,0.0,0.0,0.0,0.0,0.0,0.0,0.0,0.0,0.0,0.0,0.0,0.0,0.0,0.0,0.0,0.0,0.0,0.0,0.0,-4.0553,0.0,0.0,0.0,0.0,0.0,0.0,0.0,0.0,0.0,-4.3244,-4.371,-4.4384,-4.5395,-4.5997,-4.6731,-4.7646,0.0,0.0,0.0,0.0,0.0,0.0,0.0,-4.638,-4.6109,-4.5404,-4.4772,-4.4446,-4.4412,-4.4412,-4.4446,0.0,0.0,-4.2902,-4.2692,-4.2625,-4.232,-4.2286,-4.2286,-4.2286,-4.2286,-4.2286,0.0,0.0,0.0,0.0,0.0,0.0,0.0,0.0,-4.9597,-4.9564,0.0,-4.9676,0.0,0.0,0.0,0.0,0.0,-5.0259,0.0,0.0,-5.0291,-5.0391,-5.0358,-5.0324,-5.0459,-5.0693,-5.066,-5.0627,-5.0593,-4.9573,0.0,0.0,0.0,0.0,0.0,0.0,-5.0845,-5.2232,-5.2334,-5.2706,-5.3484,-5.3518,-5.3484,-5.3348,-5.1995,-5.0168,-4.8075,-4.7936,-4.7196,-4.5805,-4.5737,0.0,0.0,0.0,0.0,0.0,0.0,0.0,0.0,0.0,0.0,0.0,0.0,0.0,0.0,0.0,0.0,0.0,0.0,0.0,0.0,-4.1893,0.0,0.0,0.0,0.0,0.0,0.0,0.0,0.0,0.0,0.0,-4.326,-4.4332,-4.5236,-4.5303,0.0,0.0,0.0,0.0,-4.8954,-4.9018,-4.8984,-4.8717,-4.8041,-4.7906,-4.7635,-4.6891,0.0,0.0,-4.4294,-4.4131,-4.4131,-4.4097,-4.4126,-4.3949,-4.3523,-4.3382,-4.3179,-4.2564,-4.2429,-4.2388,-4.2388,-4.2496,-4.2462,-5.3415,0.0,0.0,0.0,0.0,-5.1103,-5.1099,-5.107,-5.0579,-5.0383,-5.035,-4.9897,0.0,0.0,0.0,0.0,0.0,0.0,-4.9877,-4.9842,-4.9842,-4.9842,-4.9842,-4.9842,-4.9946,-5.012,-5.0222,-5.0358,-5.046,-5.0324,-5.0287,-5.0448,0.0,0.0,0.0,0.0,-5.1894,-5.23,-5.2875,-5.3281,-5.3484,-5.3518,-5.2976,-5.1861,-5.1454,-5.0439,-4.8748,-4.8206,-4.7432,-4.6515,-4.5974,0.0,0.0,0.0,0.0,0.0,0.0,0.0,0.0,0.0,0.0,0.0,0.0,0.0,0.0,0.0,0.0,0.0,0.0,0.0,-4.1755,-4.161,-4.1521,0.0,0.0,0.0,0.0,0.0,0.0,0.0,0.0,0.0,-4.4973,-4.5087,-4.5604,0.0,0.0,-4.7642,-4.8145,-4.8476,-4.8673,-4.8832,-4.8863,0.0,-4.8593,-4.8057,-4.7591,-4.7264,-4.6566,-4.5768,-4.5035,-4.4871,-4.4733,-4.4198,-4.4097,-4.4059,-4.3944,-4.3877,-4.3809,-4.3608,-4.3603,-4.3603,-4.3574,-4.3603,-4.3597,-5.624,-5.4616,-5.4052,-5.3388,-5.2769,-5.2769,-5.2574,-5.2281,-5.189,-5.1764,-5.1732,-5.1275,-5.1043,-5.108,-5.1153,0.0,0.0,0.0,-5.1263,-5.119,-5.119,-5.119,-5.119,-5.119,-5.1299,-5.1448,-5.1364,-5.134,-5.1448,-5.1425,-5.1496,-5.1631,0.0,0.0,-5.1624,-5.2063,-5.2435,-5.2773,-5.3247,-5.3518,-5.3518,-5.3518,-5.2909,-5.1691,-5.1386,-5.0642,-4.9492,-4.8748,-4.8003,-4.7259,-4.6819,-4.608,0.0,0.0,0.0,0.0,0.0,0.0,0.0,0.0,0.0,0.0,0.0,-4.3232,-4.274,0.0,0.0,0.0,-4.2594,-4.2565,-4.2451,-4.2332,0.0,0.0,0.0,0.0,0.0,0.0,0.0,-4.5052,-4.5119,-4.5417,-4.6113,-4.6036,-4.6193,-4.706,-4.7489,-4.7887,-4.8321,0.0,-4.8547,-4.8642,-4.8675,-4.8675,-4.8675,-4.8272,-4.7807,-4.7383,-4.6984,-4.6221,-4.519,-4.4993,-4.4727,-4.4094,-4.3894,-4.3894,-4.3894,-4.3894,-4.3952,-4.4068,-4.4097,-4.4097,-4.4097,-4.4097,-4.4126,-5.8735,-5.8012,-5.6485,-5.536,-5.4624,-5.4624,-5.4236,-5.3621,-5.3556,-5.3524,-5.3459,-5.3434,-5.3369,-5.3304,-5.35,0.0,-5.2861,-5.3553,-5.3699,-5.3577,-5.3577,-5.3577,-5.3577,-5.3545,-5.3693,-5.3847,-5.3349,-5.3132,-5.3173,-5.2873,-5.2753,-5.2757,-5.1799,-5.1663,-5.2334,-5.2368,-5.2773,-5.3484,-5.3518,-5.3518,-5.3518,-5.3518,-5.3112,-5.2334,-5.1589,-5.0845,-5.0101,-4.939,-4.8649,-4.7939,-4.7872,-4.714,-4.561,0.0,0.0,0.0,0.0,0.0,0.0,0.0,0.0,0.0,0.0,0.0,0.0,0.0,0.0,0.0,-4.3598,0.0,-4.3598,-4.3598,0.0,0.0,0.0,-4.3962,-4.4688,-4.4818,-4.5052,-4.5814,0.0,0.0,-4.6874,-4.6974,-4.6974,-4.6974,-4.7666,-4.8195,-4.8195,-4.8324,-4.8452,-4.8483,-4.8483,-4.8483,-4.8483,-4.8418,-4.812,-4.746,-4.7261,-4.6666,-4.5246,-4.4851,-4.4522,-4.3761,-4.3598,-4.3598,-4.3598,-4.3628,-4.3687,-4.3981,-4.4039,-4.4039,-4.4039,-4.4039,-4.4039,-6.0291,-6.0316,-5.9896,-5.8402,-5.6317,-5.6317,-5.6274,-5.6218,-5.567,-5.5246,-5.4891,-5.4373,-5.3855,-5.3265,-5.3344,-5.3285,-5.3195,-5.3357,-5.3383,-5.3415,-5.3376,-5.3415,-5.3344,-5.3344,-5.3461,-5.3622,-5.3536,-5.3662,-5.3926,-5.3874,-5.396,-5.4253,-5.3995,-5.3608,-5.3011,-5.2977,-5.3146,-5.3518,-5.3518,-5.3518,-5.3518,-5.3518,-5.3145,-5.2334,-5.1589,-5.0845,-5.0101,-4.939,-4.8585,-4.7754,-4.7689,-4.716,-4.6136,-4.6103,0.0,0.0,0.0,0.0,0.0,0.0,0.0,0.0,0.0,-4.3717,-4.3658,0.0,-4.3658,0.0,-4.3598,-4.3598,-4.3598,-4.3598,0.0,0.0,-4.4423,-4.4721,-4.545,-4.5549,-4.5814,-4.6543,-4.6643,-4.6908,-4.7636,-4.7736,-4.7736,-4.7736,-4.7901,-4.8066,-4.8066,-4.8099,-4.8164,-4.826,-4.826,-4.826,-4.826,-4.8163,-4.8065,-4.7834,-4.7801,-4.7303,-4.5812,-4.5549,-4.5119,-4.3896,-4.3598,-4.3598,-4.3598,-4.3598,-4.3628,-4.3717,-4.3717,-4.3717,-4.3717,-4.3717,-4.3747,-6.1376,-6.1201,-6.0883,-5.9865,-5.8401,-5.802,-5.7512,-5.7066,-5.6649,-5.6316,-5.6047,-5.5785,-5.5481,-5.5215,-5.4859,-5.4729,-5.4697,-5.4405,-5.4244,-5.4244,-5.4244,-5.4204,-5.4244,-5.4204,-5.4283,-5.4403,-5.4196,-5.4222,-5.4382,-5.4278,-5.4303,-5.4564,-5.4638,-5.4389,-5.3943,-5.4119,-5.4258,-5.4499,-5.416,-5.3991,-5.3991,-5.3653,-5.3281,-5.2841,-5.1792,-5.0982,-5.0512,-4.9499,-4.863,-4.8071,-4.8006,-4.7608,-4.6753,-4.6719,-4.6522,0.0,0.0,0.0,0.0,0.0,0.0,0.0,0.0,0.0,0.0,0.0,-4.4092,-4.4092,-4.4001,-4.4073,-4.4434,-4.4375,-4.4509,-4.4935,-4.4937,-4.5265,-4.599,-4.6056,-4.6353,-4.7078,-4.7209,-4.7407,-4.7803,-4.7968,-4.8001,-4.8001,-4.8001,-4.8001,-4.8001,-4.8001,-4.8033,-4.8065,-4.8131,-4.8098,-4.8131,-4.8066,-4.8001,-4.7968,-4.7703,-4.7106,-4.6013,-4.5516,-4.492,-4.3863,-4.3598,-4.3598,-4.3598,-4.3598,-4.3598,-4.3598,-4.3598,-4.3598,-4.3598,-4.3598,-4.3628,-6.2225,-6.1593,-6.0866,-6.0518,-6.0376,-5.9625,-5.8499,-5.7253,-5.7253,-5.7201,-5.7009,-5.713,-5.7324,-5.7504,-5.689,-5.6598,-5.6608,-5.596,-5.5636,-5.5571,-5.5571,-5.5507,-5.5409,-5.5409,-5.5409,-5.5377,-5.4995,-5.4821,-5.4821,-5.4591,-5.4486,-5.4524,-5.4679,-5.4866,-5.5088,-5.5451,-5.5671,-5.5681,-5.4972,-5.46,-5.4566,-5.389,-5.3518,-5.3416,-5.2064,-5.1189,-5.0957,-4.9645,-4.8776,-4.8483,-4.8452,-4.812,-4.7361,-4.7296,-4.6934,0.0,-4.6079,0.0,0.0,0.0,0.0,0.0,0.0,0.0,0.0,-4.4821,-4.4821,-4.4821,-4.4636,-4.4807,-4.5432,-4.5372,-4.5341,-4.5439,-4.5439,-4.5734,-4.6422,-4.6553,-4.6782,-4.7404,-4.7637,-4.7704,-4.7704,-4.7869,-4.8001,-4.8001,-4.8001,-4.8001,-4.8001,-4.8001,-4.8001,-4.8001,-4.8001,-4.8033,-4.8001,-4.8001,-4.7968,-4.7802,-4.7371,-4.6609,-4.5748,-4.5119,-4.4456,-4.3797,-4.3598,-4.3598,-4.3598,-4.3598,-4.3598,-4.3598,-4.3598,-4.3598,-4.3598,-4.3598,-4.3598,-6.3204,-6.3015,-6.2319,-6.1687,-6.115,-6.0994,-6.0249,-5.9165,-5.9165,-5.8632,-5.768,-5.7149,-5.7066,-5.7281,-5.7152,-5.7215,-5.7385,-5.7223,-5.6834,-5.6284,-5.6284,-5.596,-5.5442,-5.5409,-5.5409,-5.5409,-5.532,-5.541,-5.5571,-5.5719,-5.5817,-5.5973,-5.6167,-5.6397,-5.6587,0.0,0.0,0.0,-5.4972,-5.46,-5.4566,-5.389,-5.3416,-5.3247,-5.2404,0.0,-5.076,-4.9921,-4.9087,-4.8326,-4.826,0.0,0.0,0.0,0.0,0.0,0.0,0.0,0.0,0.0,0.0,0.0,-4.757,-4.7007,-4.5715,-4.5582,-4.552,-4.5362,-4.5299,-4.5302,-4.534,-4.5341,-4.5538,-4.6127,-4.6192,-4.6487,-4.7175,-4.7273,-4.7372,-4.7471,-4.7637,-4.7704,-4.7704,-4.7902,-4.8001,-4.8001,-4.8001,-4.8001,-4.8001,-4.8001,-4.8001,-4.8001,-4.8001,-4.8001,-4.8001,-4.8001,-4.7736,-4.7272,-4.704,-4.6378,-4.5249,-4.4821,-4.4423,-4.3731,-4.3598,-4.3598,-4.3598,-4.3598,-4.3598,-4.3598,-4.3598,-4.3598,-4.3598,-4.3598,-4.3598,-6.4121,0.0,-6.311,-6.2541,0.0,-6.1909,-6.1357,-6.0519,-6.0139,-5.9549,-5.876,-5.8058,-5.7828,-5.8093,-5.7827,-5.7829,-5.7926,-5.7699,-5.7427,-5.7029,-5.6672,-5.6284,-5.5928,-5.5604,-5.5409,-5.5409,-5.5409,-5.5483,-5.5604,-5.5846,-5.6046,-5.6211,-5.648,-5.6641,-5.6834,-5.6949,-5.6809,-5.6511,-5.577,-5.5232,-5.4828,-5.4121,-5.3548,-5.3041,-5.2336,0.0,0.0,0.0,0.0,0.0,0.0,0.0,0.0,0.0,0.0,-4.8001,-4.8001,-4.8001,-4.8001,-4.8001,-4.8001,-4.8001,-4.8001,-4.7537,-4.6411,-4.598,-4.5884,-4.6056,-4.5993,-4.6028,-4.6192,-4.6125,-4.6254,-4.658,-4.6645,-4.6809,-4.7135,-4.7201,-4.7201,-4.7201,-4.7336,-4.7471,-4.7571,-4.7737,-4.7902,-4.8001,-4.8001,-4.8001,-4.8001,-4.8001,-4.8001,-4.8001,-4.8001,-4.8001,-4.7968,-4.7636,-4.7371,-4.6941,-4.6278,-4.5549,-4.4821,-4.439,-4.4026,-4.3664,-4.3598,-4.3598,-4.3598,-4.3598,-4.3598,-4.3598,-4.3598,-4.3598,-4.3598,-4.3598,-4.3598,-6.4816,-6.3647,-6.352,-6.3078,-6.2396,-6.2396,-6.2098,-6.1498,0.0,0.0,0.0,-5.8963,-5.8828,-5.8895,-5.8574,-5.845,-5.8429,-5.8141,-5.7871,-5.7741,-5.7126,-5.6737,-5.6478,-5.5895,-5.5539,-5.5409,-5.5409,-5.5409,-5.5409,-5.5685,-5.5886,-5.6126,-5.629,-5.6486,-5.668,-5.6872,-5.7025,-5.7143,-5.6549,-5.585,-5.5113,-5.4376,-5.3638,-5.2867,-5.2266,-5.1796,-5.1457,-5.0291,-4.946,-4.9094,-4.8531,-4.8133,-4.8001,-4.8001,-4.8001,-4.8001,-4.8001,-4.8001,-4.8001,-4.8001,-4.8001,-4.8001,-4.8001,-4.7736,-4.7139,-4.6543,-4.6349,-4.6716,-4.6651,-4.6748,-4.7134,-4.6996,-4.6927,-4.6927,-4.6927,-4.6894,-4.6927,-4.6927,-4.6927,-4.6927,-4.7098,-4.7301,-4.747,-4.7605,-4.7803,-4.7968,-4.8001,-4.8001,-4.8001,-4.8001,-4.8001,-4.8001,-4.8001,-4.7968,-4.7736,-4.7338,-4.6841,-4.6411,-4.545,-4.4688,-4.4456,-4.4026,-4.3664,-4.3631,-4.3598,-4.3628,-4.3628,-4.3658,-4.3658,-4.3658,-4.3658,-4.3628,-4.3598,-4.3598,-4.3598,-6.51,-6.431,-6.3742,-6.3078,-6.2396,-6.2396,-6.2333,-6.2161,-6.0866,-5.9918,-5.9333,-5.9238,-5.8997,-5.8655,-5.8831,-5.9024,-5.917,-5.9326,-5.9101,-5.8443,-5.8346,-5.7676,-5.651,-5.6381,-5.6025,-5.5442,-5.5409,-5.5409,-5.5409,-5.5685,-5.5886,-5.6086,-5.6323,-5.6486,-5.668,-5.6719,-5.6757,-5.6796,-5.64,-5.585,-5.5113,-5.441,-5.3567,-5.2726,-5.2559,-5.2088,-5.135,-5.1118,-5.042,-4.9193,-4.8995,-4.8663,-4.8067,-4.8034,-4.8001,-4.8001,-4.8001,-4.8001,-4.8001,-4.8001,-4.8001,-4.8001,-4.8001,-4.7968,-4.7868,-4.7769,-4.7605,-4.7406,-4.7307,-4.7204,-4.6996,-4.6927,-4.6927,-4.6927,-4.6927,-4.6927,-4.6927,-4.6927,-4.6927,-4.6927,-4.7064,-4.7268,-4.747,-4.7637,-4.777,-4.7935,-4.8001,-4.8001,-4.8001,-4.8001,-4.8001,-4.8001,-4.8001,-4.7736,-4.7338,-4.7007,-4.6411,-4.5216,-4.4887,-4.4423,-4.3959,-4.3731,-4.3598,-4.3598,-4.3598,-4.3658,-4.3809,-4.3868,-4.3868,-4.3868,-4.3868,-4.3809,-4.3658,-4.3598,-4.3598,-6.5511,-6.4532,-6.4184,-6.3426,-6.2396,-6.2396,-6.2396,-6.2333,-6.1751,-6.1087,-6.0392,-5.9665,-5.9174,-5.8997,-5.8846,-5.8927,-5.9152,-5.9375,-5.939,-5.9155,-5.8766,-5.8249,-5.7611,-5.6867,-5.6316,-5.5992,-5.5571,-5.5409,-5.5409,-5.5491,-5.5726,-5.5927,-5.6244,-5.6486,-5.668,-5.668,-5.668,-5.6719,-5.654,-5.6117,-5.5384,-5.4652,-5.3884,-5.3045,-5.2715,-5.2314,-5.1912,-5.1514,-5.1017,-5.032,-4.9922,-4.9359,-4.8663,-4.8597,-4.8431,-4.8034,-4.8001,-4.8001,-4.8001,-4.8001,-4.8001,-4.8001,-4.8001,-4.8001,-4.8001,-4.7902,-4.777,-4.7504,-4.7403,-4.7201,-4.6927,-4.6927,-4.6927,-4.6927,-4.6927,-4.6927,-4.6927,-4.6927,-4.6927,-4.6927,-4.7064,-4.7235,-4.747,-4.7637,-4.777,-4.7968,-4.8001,-4.8001,-4.8001,-4.8001,-4.8001,-4.8001,-4.8001,-4.7901,-4.7504,-4.6742,-4.6079,-4.5351,-4.4622,-4.4059,-4.3631,-4.3598,-4.3598,-4.3598,-4.3658,-4.3776,-4.3898,-4.3956,-4.4015,-4.3981,-4.3956,-4.3868,-4.378,-4.3687,-4.3598,-6.5796,-6.448,-6.4449,-6.3659,-6.2428,-6.2396,-6.2396,-6.2396,-6.2365,-6.213,-6.1466,-6.0139,-5.9444,-5.9254,-5.8836,-5.8701,-5.8927,-5.9197,-5.9419,-5.9564,-5.909,-5.8766,-5.8475,-5.732,-5.6672,-5.6446,-5.5766,-5.5409,-5.5409,-5.5409,-5.5564,-5.5846,-5.6244,-5.6519,-5.668,-5.668,-5.668,-5.668,-5.668,-5.6349,-5.5582,-5.5019,-5.4291,-5.3434,-5.2904,-5.2539,-5.2409,-5.1846,-5.1481,-5.1315,-5.075,-5.0121,-4.9425,-4.9359,-4.9094,-4.8564,-4.8498,-4.8498,-4.8498,-4.8498,-4.8498,-4.8498,-4.8332,-4.8233,-4.82,-4.7902,-4.7638,-4.7504,-4.7335,-4.7098,-4.6961,-4.6927,-4.6927,-4.6927,-4.6927,-4.6927,-4.6927,-4.6927,-4.6927,-4.6927,-4.7064,-4.7268,-4.747,-4.7605,-4.777,-4.7968,-4.8001,-4.8001,-4.8001,-4.8001,-4.8001,-4.8001,-4.8001,-4.7868,-4.7736,-4.6874,-4.6013,-4.5682,-4.4655,-4.3992,-4.3698,-4.3598,-4.3598,-4.3598,-4.378,-4.3898,-4.3956,-4.4039,-4.4126,-4.4126,-4.4039,-4.3927,-4.3809,-4.3687,-4.3598,-6.5796,-6.4595,-6.4449,-6.371,-6.2428,-6.2396,-6.2396,-6.2396,-6.2396,-6.2365,-6.2161,-6.0834,-5.9854,-5.9301,-5.879,-5.861,-5.8701,-5.9075,-5.9331,-5.9375,-5.952,-5.9219,-5.8605,-5.7838,-5.7126,-5.651,-5.5766,-5.5409,-5.5409,-5.5409,-5.5645,-5.6046,-5.6251,-5.6519,-5.668,-5.668,-5.668,-5.668,-5.668,-5.6349,-5.5648,-5.5516,-5.4858,-5.3467,-5.3367,-5.3036,-5.2475,-5.2343,-5.1976,-5.1382,-5.1282,-5.085,-5.022,-5.0087,-5.0088,-4.9988,-4.9988,-5.0021,-4.9988,-5.0021,-4.9955,-4.9955,-4.9359,-4.8995,-4.8961,-4.8233,-4.7671,-4.7569,-4.7368,-4.7163,-4.6927,-4.6992,-4.7022,-4.7087,-4.7056,-4.6927,-4.6959,-4.6927,-4.6927,-4.6927,-4.7098,-4.7235,-4.747,-4.7637,-4.777,-4.7968,-4.8001,-4.8001,-4.8001,-4.8001,-4.8001,-4.8001,-4.8001,-4.7736,-4.7272,-4.6941,-4.6278,-4.5218,-4.4721,-4.4324,-4.3926,-4.3664,-4.3598,-4.3628,-4.3747,-4.3927,-4.4039,-4.4184,-4.4298,-4.427,-4.4155,-4.3981,-4.3717,-4.3628,-4.3598,-6.5796,-6.448,-6.4449,-6.371,-6.2459,-6.2396,-6.2396,-6.2396,-6.2396,-6.2396,-6.2207,-6.0929,-6.0139,-5.9823,-5.8888,-5.8473,-5.861,-5.8792,-5.9062,-5.9286,-5.9419,-5.9346,-5.9155,-5.8097,-5.7385,-5.7029,-5.596,-5.5409,-5.5409,-5.5409,-5.5572,-5.5886,-5.6006,-5.6205,-5.6486,-5.6525,-5.6564,-5.668,-5.668,-5.6547,-5.6249,-5.5852,-5.5284,-5.4688,-5.3897,-5.3301,-5.3003,-5.2605,-5.2277,-5.1978,-5.1978,-5.1612,-5.0883,-5.085,-5.0651,-5.0286,-5.022,-5.022,-5.022,-5.022,-5.022,-5.022,-4.9922,-4.9756,-4.9723,-4.9289,-4.8954,-4.8717,-4.815,-4.7879,-4.8093,-4.8155,-4.8123,-4.8155,-4.8155,-4.7993,-4.7605,-4.754,-4.7445,-4.7162,-4.7235,-4.7436,-4.7604,-4.7737,-4.7902,-4.8001,-4.8001,-4.8001,-4.8001,-4.8001,-4.8001,-4.8001,-4.8001,-4.7901,-4.757,-4.7139,-4.6643,-4.6046,-4.5218,-4.4522,-4.4324,-4.3797,-4.3598,-4.3598,-4.378,-4.3956,-4.4068,-4.4212,-4.4293,-4.4355,-4.4241,-4.401,-4.3687,-4.3598,-4.3598,-6.5796,-6.4563,-6.4121,-6.3362,-6.2396,-6.2396,-6.2396,-6.2396,-6.2396,-6.227,-6.2035,-6.0834,-6.017,-5.9886,-5.878,-5.8381,-5.8518,-5.8564,-5.876,-5.9107,-5.9241,-5.9419,-5.9455,-5.841,-5.7741,-5.7385,-5.6316,-5.5636,-5.5442,-5.5409,-5.5523,-5.5726,-5.5766,-5.5966,-5.6284,-5.6362,-5.6447,-5.6603,-5.668,-5.668,-5.6614,-5.6183,-5.5819,-5.5483,-5.4357,-5.3632,-5.34,-5.2738,-5.2409,-5.2409,-5.2409,-5.2177,-5.168,-5.1614,-5.1347,-5.0883,-5.0817,-5.0817,-5.0817,-5.0817,-5.0817,-5.0783,-5.0651,-5.0518,-5.0418,-5.0182,-4.9976,-4.9864,-4.9298,-4.9023,-4.8969,-4.8994,-4.8994,-4.8994,-4.8994,-4.8803,-4.835,-4.8155,-4.7837,-4.7557,-4.75,-4.7571,-4.777,-4.7902,-4.8001,-4.8001,-4.8001,-4.8001,-4.8001,-4.8001,-4.8001,-4.8001,-4.8001,-4.8001,-4.7968,-4.7636,-4.7206,-4.6742,-4.5914,-4.5284,-4.4854,-4.4191,-4.3698,-4.3794,-4.3876,-4.3927,-4.4015,-4.4126,-4.4241,-4.4298,-4.4217,-4.3952,-4.3658,-4.3598,-4.3598,-6.5796,-6.4405,-6.3028,-6.2491,-6.2396,-6.2396,-6.2396,-6.2396,-6.2396,-6.2098,-6.1435,-6.0645,-5.9949,-5.9349,-5.8622,-5.8321,-5.8367,-5.8518,-5.861,-5.8701,-5.9075,-5.9286,-5.9266,-5.8809,-5.8227,-5.7589,-5.6737,-5.6025,-5.5442,-5.5409,-5.5564,-5.5799,-5.5766,-5.5886,-5.6126,-5.629,-5.6402,-5.648,-5.6603,-5.668,-5.668,-5.6647,-5.6282,-5.5648,-5.4854,-5.4125,-5.3467,-5.2771,-5.2409,-5.2409,-5.2409,-5.2376,-5.2343,-5.2343,-5.2277,-5.2243,-5.2243,-5.2243,-5.2175,-5.2177,-5.2175,-5.2108,-5.1578,-5.1282,-5.1216,-5.0716,-5.0476,-5.0618,-5.0582,-5.0141,-4.9325,-4.9252,-4.9188,-4.9155,-4.9091,-4.9094,-4.8961,-4.8447,-4.8096,-4.8013,-4.7762,-4.7704,-4.7935,-4.8001,-4.8001,-4.8001,-4.8001,-4.8001,-4.8001,-4.8001,-4.8001,-4.8001,-4.8001,-4.8001,-4.8001,-4.7868,-4.7537,-4.7173,-4.6709,-4.6245,-4.5351,-4.4589,-4.4224,-4.386,-4.3846,-4.3868,-4.3927,-4.3985,-4.4044,-4.4073,-4.4044,-4.3805,-4.3658,-4.3598,-4.3598,-6.5132,-6.3773,-6.2825,-6.2396,-6.2396,-6.2396,-6.2396,-6.2396,-6.2396,-6.2035,-6.134,-6.0613,-5.9918,-5.9286,-5.859,-5.8321,-5.8321,-5.8367,-5.8473,-5.861,-5.8792,-5.9017,-5.9189,-5.8666,-5.813,-5.7547,-5.6834,-5.6122,-5.5474,-5.5409,-5.545,-5.5523,-5.5564,-5.5685,-5.5886,-5.6126,-5.6284,-5.6441,-5.6636,-5.668,-5.668,-5.668,-5.6547,-5.6316,-5.5587,-5.4821,-5.4129,-5.3434,-5.2837,-5.2442,-5.2409,-5.2409,-5.2409,-5.2409,-5.2409,-5.2409,-5.2409,-5.2409,-5.2409,-5.2409,-5.2409,-5.2376,-5.2177,-5.1978,-5.1943,-5.1744,-5.1569,-5.1412,-5.1368,-5.1023,-5.0598,-5.0422,-5.039,-5.039,-5.039,-5.0163,-4.971,-4.9167,-4.876,-4.8415,-4.8031,-4.7902,-4.7935,-4.8001,-4.8001,-4.8001,-4.8001,-4.8001,-4.8001,-4.8001,-4.8001,-4.8001,-4.8001,-4.8001,-4.8001,-4.8001,-4.7835,-4.757,-4.7173,-4.651,-4.5682,-4.4953,-4.4522,-4.3797,-4.3721,-4.378,-4.3839,-4.3956,-4.3952,-4.3927,-4.3868,-4.3776,-4.3628,-4.3598,-4.3598,-6.4563,-6.3457,-6.273,-6.2396,-6.2396,-6.2396,-6.2396,-6.2396,-6.2396,-6.1909,-6.1055,-6.0518,-5.9823,-5.9001,-5.8464,-5.8321,-5.8321,-5.8321,-5.8413,-5.8518,-5.8564,-5.8792,-5.8966,-5.8703,-5.8096,-5.7302,-5.645,-5.578,-5.5474,-5.5409,-5.5409,-5.5409,-5.5409,-5.5491,-5.5685,-5.5886,-5.6086,-5.6323,-5.6486,-5.6603,-5.668,-5.668,-5.668,-5.6614,-5.6216,-5.562,-5.4854,-5.393,-5.3235,-5.2771,-5.2506,-5.2409,-5.2409,-5.2409,-5.2409,-5.2409,-5.2409,-5.2409,-5.2409,-5.2409,-5.2409,-5.2409,-5.2409,-5.2409,-5.2409,-5.2409,-5.223,-5.1977,-5.1904,-5.1758,-5.1466,-5.1392,-5.1317,-5.1275,-5.1275,-5.1117,-5.0598,-4.9834,-4.9066,-4.8357,-4.8067,-4.8001,-4.8001,-4.8001,-4.8001,-4.8001,-4.8001,-4.8001,-4.8001,-4.8001,-4.8001,-4.8001,-4.8001,-4.8001,-4.8001,-4.8001,-4.8001,-4.7769,-4.7636,-4.6908,-4.6079,-4.5384,-4.4688,-4.3962,-4.3628,-4.3658,-4.3747,-4.3864,-4.3864,-4.3805,-4.3747,-4.3687,-4.3628,-4.3598,-4.3598,-6.4089,-6.3362,-6.273,-6.2396,-6.2396,-6.2396,-6.2396,-6.2396,-6.2333,-6.1593,-6.0518,-6.0265,-5.9507,-5.8574,-5.8306,-5.8321,-5.8321,-5.8321,-5.8321,-5.8367,-5.8473,-5.861,-5.8669,-5.8818,-5.8185,-5.6991,-5.5738,-5.5302,-5.5369,-5.5409,-5.5409,-5.5409,-5.5409,-5.5409,-5.5409,-5.5685,-5.5886,-5.6126,-5.6323,-5.6486,-5.668,-5.668,-5.668,-5.668,-5.6614,-5.6282,-5.5582,-5.4229,-5.3467,-5.3301,-5.2705,-5.2409,-5.2409,-5.2409,-5.2409,-5.2409,-5.2409,-5.2409,-5.2409,-5.2409,-5.2409,-5.2409,-5.2409,-5.2409,-5.2409,-5.2409,-5.2302,-5.2122,-5.205,-5.1977,-5.1794,-5.1725,-5.1647,-5.1312,-5.1424,-5.1466,-5.1243,-5.0376,-4.9112,-4.8099,-4.7902,-4.8001,-4.8001,-4.8001,-4.8001,-4.8001,-4.8001,-4.8001,-4.8001,-4.8001,-4.8001,-4.8001,-4.8001,-4.8001,-4.8001,-4.8001,-4.8001,-4.7968,-4.7901,-4.7471,-4.6477,-4.5682,-4.4986,-4.4291,-4.3664,-4.3691,-4.3658,-4.3747,-4.3717,-4.3658,-4.3628,-4.3628,-4.3628,-4.3598,-4.3598,-6.3394,-6.2762,-6.2491,-6.2396,-6.2396,-6.2396,-6.2396,-6.2333,-6.194,-6.1182,-6.0329,-5.9823,-5.9128,-5.8479,-5.8321,-5.8321,-5.8321,-5.8321,-5.8321,-5.8321,-5.8335,-5.8473,-5.861,-5.8701,-5.8147,-5.713,-5.623,-5.5615,-5.5466,-5.5409,-5.5409,-5.5409,-5.5409,-5.5409,-5.5409,-5.5685,-5.5886,-5.6086,-5.6323,-5.6519,-5.668,-5.668,-5.668,-5.668,-5.668,-5.6547,-5.6316,-5.4957,-5.3927,-5.3467,-5.2738,-5.2409,-5.2409,-5.2409,-5.2409,-5.2409,-5.2409,-5.2409,-5.2409,-5.2409,-5.2409,-5.2409,-5.2409,-5.2409,-5.2409,-5.2409,-5.2302,-5.2155,-5.2086,-5.2013,-5.1868,-5.1762,-5.1725,-5.1614,-5.1684,-5.1688,-5.1496,-5.0555,-4.9351,-4.82,-4.7968,-4.8001,-4.8001,-4.8001,-4.8001,-4.8001,-4.8001,-4.8001,-4.8001,-4.8001,-4.8001,-4.8001,-4.8001,-4.8001,-4.8001,-4.8001,-4.8001,-4.8001,-4.7968,-4.7703,-4.6775,-4.5947,-4.5251,-4.4522,-4.3929,-4.3664,-4.3631,-4.3598,-4.3598,-4.3598,-4.3598,-4.3598,-4.3598,-4.3598,-4.3598,-6.3078,-6.2428,-6.2396,-6.2396,-6.2396,-6.2396,-6.2288,-6.2003,-6.1593,-6.0866,-5.9981,-5.9507,-5.8938,-5.8415,-5.8321,-5.8321,-5.8321,-5.8321,-5.8321,-5.8321,-5.8321,-5.8335,-5.8409,-5.8187,-5.7892,-5.7245,-5.6456,-5.5876,-5.5707,-5.5498,-5.5409,-5.5409,-5.5409,-5.5409,-5.5409,-5.5564,-5.5766,-5.5966,-5.6205,-5.6402,-5.6564,-5.6641,-5.668,-5.668,-5.668,-5.668,-5.6614,-5.5554,-5.4593,-5.3798,-5.2937,-5.2442,-5.2409,-5.2409,-5.2409,-5.2409,-5.2409,-5.2409,-5.2409,-5.2409,-5.2409,-5.2409,-5.2409,-5.2409,-5.2409,-5.2409,-5.2338,-5.223,-5.2194,-5.2191,-5.205,-5.205,-5.2013,-5.2013,-5.1941,-5.1678,-5.1257,-5.054,-4.9455,-4.8431,-4.8001,-4.8001,-4.8001,-4.8001,-4.8001,-4.8001,-4.8001,-4.8001,-4.8001,-4.8001,-4.8001,-4.8001,-4.8001,-4.8001,-4.8001,-4.8001,-4.8001,-4.8001,-4.8001,-4.7603,-4.6908,-4.6146,-4.5417,-4.4456,-4.3698,-4.3631,-4.3598,-4.3598,-4.3598,-4.3598,-4.3598,-4.3598,-4.3598,-4.3598,-4.3598,-6.2965,-6.2428,-6.2365,-6.2365,-6.2365,-6.2302,-6.2003,-6.1466,-6.1213,-6.0487,-5.9507,-5.9222,-5.8875,-5.8415,-5.8321,-5.8321,-5.8321,-5.8321,-5.8321,-5.8321,-5.8321,-5.8321,-5.8226,-5.7814,-5.7571,-5.7382,-5.655,-5.6125,-5.6089,-5.578,-5.5442,-5.5442,-5.5409,-5.5409,-5.5409,-5.5409,-5.5564,-5.5806,-5.6006,-5.6205,-5.6441,-5.6603,-5.668,-5.668,-5.668,-5.668,-5.6581,-5.5819,-5.5052,-5.4361,-5.3069,-5.2409,-5.2409,-5.2409,-5.2409,-5.2409,-5.2409,-5.2409,-5.2409,-5.2409,-5.2409,-5.2409,-5.2409,-5.2409,-5.2409,-5.2409,-5.2373,-5.2373,-5.2373,-5.2373,-5.2338,-5.2338,-5.2338,-5.2338,-5.2194,-5.1633,-5.0449,-5.0186,-4.9491,-4.8398,-4.8001,-4.8001,-4.8001,-4.8001,-4.8001,-4.8001,-4.8001,-4.8001,-4.8001,-4.8001,-4.8001,-4.8001,-4.8001,-4.8001,-4.8001,-4.8001,-4.8001,-4.8001,-4.7934,-4.7537,-4.6908,-4.6113,-4.5251,-4.4291,-4.3698,-4.3631,-4.3598,-4.3598,-4.3598,-4.3598,-4.3598,-4.3598,-4.3598,-4.3598,-4.3598,-6.1972,-6.1866,-6.2016,-6.2116,-6.2053,-6.181,-6.1593,-6.1245,-6.0297,-5.9696,-5.9222,-5.8748,-5.8496,-5.8321,-5.8321,-5.8321,-5.8321,-5.8321,-5.8321,-5.8321,-5.8321,-5.8321,-5.8321,-5.8085,-5.7842,-5.7624,-5.7337,-5.6915,-5.624,-5.6192,-5.5928,-5.5409,-5.5442,-5.5409,-5.5409,-5.5409,-5.5531,-5.5766,-5.6006,-5.6205,-5.6369,-5.6564,-5.668,-5.668,-5.668,-5.668,-5.6547,-5.5487,-5.4423,-5.3732,-5.287,-5.2409,-5.2409,-5.2409,-5.2409,-5.2409,-5.2409,-5.2409,-5.2409,-5.2409,-5.2409,-5.2409,-5.2409,-5.2409,-5.2409,-5.2409,-5.2409,-5.2409,-5.2409,-5.2409,-5.2409,-5.2409,-5.2409,-5.2373,-5.2305,-5.1673,-5.0583,-5.0187,-4.9624,-4.8332,-4.8034,-4.8001,-4.8001,-4.8001,-4.8001,-4.8001,-4.8001,-4.8001,-4.8001,-4.8001,-4.8001,-4.8001,-4.8001,-4.8001,-4.8001,-4.8001,-4.8001,-4.8001,-4.7868,-4.757,-4.6742,-4.5781,-4.4854,-4.383,-4.3698,-4.3631,-4.3598,-4.3598,-4.3598,-4.3598,-4.3598,-4.3598,-4.3598,-4.3598,-4.3598,-6.1582,-6.1633,-6.1734,-6.1916,-6.1922,-6.1442,-6.1116,-6.0739,-5.9823,-5.9128,-5.8843,-5.8496,-5.8321,-5.8321,-5.8321,-5.8321,-5.8321,-5.8321,-5.8321,-5.8321,-5.8321,-5.8321,-5.8321,-5.8321,-5.8145,-5.7902,-5.7809,-5.7457,-5.6905,-5.6582,-5.6159,-5.5895,-5.5571,-5.5409,-5.5409,-5.5409,-5.5483,-5.5685,-5.5927,-5.6165,-5.6284,-5.6558,-5.668,-5.668,-5.668,-5.668,-5.6514,-5.5587,-5.449,-5.3533,-5.2771,-5.2409,-5.2409,-5.2409,-5.2409,-5.2409,-5.2409,-5.2409,-5.2409,-5.2409,-5.2409,-5.2409,-5.2409,-5.2409,-5.2409,-5.2409,-5.2409,-5.2409,-5.2409,-5.2409,-5.2409,-5.2409,-5.2409,-5.234,-5.2144,-5.1446,-5.032,-4.9922,-4.9226,-4.8398,-4.8001,-4.8001,-4.8001,-4.8001,-4.8001,-4.8001,-4.8001,-4.8001,-4.8001,-4.8001,-4.8001,-4.8001,-4.8001,-4.8001,-4.8001,-4.8001,-4.7901,-4.7901,-4.7272,-4.7073,-4.6378,-4.5417,-4.4622,-4.383,-4.3698,-4.3598,-4.3598,-4.3598,-4.3598,-4.3598,-4.3598,-4.3598,-4.3598,-4.3598,-4.3598,-6.1481,-6.1531,-6.1563,-6.1652,-6.1665,-6.1168,-6.0561,-6.0091,-5.9444,-5.8843,-5.8401,-5.8321,-5.8321,-5.8321,-5.8321,-5.8321,-5.8321,-5.8321,-5.8321,-5.8321,-5.8321,-5.8321,-5.8321,-5.8321,-5.8289,-5.8177,-5.7883,-5.7745,-5.7533,-5.682,-5.6453,-5.6265,-5.5789,-5.5507,-5.5442,-5.5409,-5.5409,-5.5491,-5.5886,-5.6086,-5.6205,-5.6519,-5.668,-5.668,-5.668,-5.668,-5.6514,-5.5885,-5.492,-5.3563,-5.287,-5.2575,-5.2475,-5.2409,-5.2409,-5.2409,-5.2409,-5.2409,-5.2409,-5.2409,-5.2409,-5.2409,-5.2409,-5.2409,-5.2409,-5.2409,-5.2409,-5.2409,-5.2409,-5.2409,-5.2409,-5.2409,-5.231,-5.2108,-5.1578,-5.0883,-5.0187,-4.9491,-4.8829,-4.8133,-4.8001,-4.8001,-4.8001,-4.8001,-4.8001,-4.8001,-4.8001,-4.8001,-4.8001,-4.8001,-4.8001,-4.8001,-4.8001,-4.8001,-4.8001,-4.8001,-4.7868,-4.7703,-4.6676,-4.6146,-4.5748,-4.4953,-4.4357,-4.3863,-4.3698,-4.3598,-4.3598,-4.3598,-4.3598,-4.3598,-4.3598,-4.3598,-4.3598,-4.3598,-4.3598,-6.0949,-6.1,-6.1206,-6.0998,-6.0571,-6.0282,-5.9755,-5.9191,-5.8718,-5.8464,-5.8352,-5.8321,-5.8321,-5.8321,-5.8321,-5.8321,-5.8321,-5.8321,-5.8321,-5.8321,-5.8321,-5.8321,-5.8321,-5.8321,-5.8321,-5.8303,-5.8346,-5.8101,-5.7726,-5.7652,-5.7238,-5.6356,-5.6265,-5.596,-5.5507,-5.5442,-5.5409,-5.5491,-5.5886,-5.6086,-5.6165,-5.6486,-5.668,-5.668,-5.668,-5.668,-5.6547,-5.5984,-5.5152,-5.4361,-5.3599,-5.297,-5.2542,-5.2409,-5.2409,-5.2409,-5.2409,-5.2409,-5.2409,-5.2409,-5.2409,-5.2409,-5.2409,-5.2409,-5.2409,-5.2409,-5.2409,-5.2409,-5.2409,-5.2409,-5.2409,-5.2409,-5.2144,-5.168,-5.0949,-5.022,-4.9525,-4.9193,-4.8696,-4.8233,-4.8001,-4.8001,-4.8001,-4.8001,-4.8001,-4.8001,-4.8001,-4.8001,-4.8001,-4.8001,-4.8001,-4.8001,-4.8001,-4.8001,-4.7934,-4.7802,-4.7471,-4.7139,-4.6212,-4.5351,-4.492,-4.4619,-4.4056,-4.3761,-4.3631,-4.3598,-4.3598,-4.3598,-4.3598,-4.3598,-4.3598,-4.3598,-4.3598,-4.3598,-4.3598,-6.0794,-6.0763,-6.0609,-6.0423,-6.0109,-5.9394,-5.8982,-5.8813,-5.8326,-5.8182,-5.8274,-5.8321,-5.8321,-5.8321,-5.8321,-5.8321,-5.8321,-5.8321,-5.8321,-5.8321,-5.8321,-5.8321,-5.8321,-5.8321,-5.8321,-5.8321,-5.8381,-5.8251,-5.8146,-5.7975,-5.762,-5.7066,-5.6657,-5.6192,-5.5895,-5.5604,-5.5409,-5.5491,-5.5846,-5.6086,-5.6165,-5.6486,-5.668,-5.668,-5.668,-5.668,-5.6647,-5.6349,-5.5554,-5.4725,-5.4092,-5.3434,-5.2572,-5.2409,-5.2409,-5.2409,-5.2409,-5.2409,-5.2409,-5.2409,-5.2409,-5.2409,-5.2409,-5.2409,-5.2409,-5.2409,-5.2409,-5.2409,-5.2409,-5.2409,-5.2409,-5.2409,-5.2045,-5.1382,-5.0618,-4.9922,-4.926,-4.8829,-4.8465,-4.81,-4.8001,-4.8001,-4.8001,-4.8001,-4.8001,-4.8001,-4.8001,-4.8001,-4.8001,-4.8001,-4.8001,-4.8001,-4.8001,-4.7968,-4.7901,-4.757,-4.7007,-4.6477,-4.5649,-4.4887,-4.4291,-4.4022,-4.3783,-4.3687,-4.3658,-4.3598,-4.3598,-4.3598,-4.3628,-4.3598,-4.3598,-4.3598,-4.3598,-4.3628,-4.3598,-6.0732,-6.0609,-6.0024,-5.9838,-5.9668,-5.8634,-5.8318,-5.8483,-5.8154,-5.8043,-5.8228,-5.8274,-5.8321,-5.8321,-5.8321,-5.8321,-5.8321,-5.8321,-5.8321,-5.8321,-5.8321,-5.8321,-5.8321,-5.8321,-5.8321,-5.8321,-5.8321,-5.8349,-5.8328,-5.8069,-5.7911,-5.79,-5.7131,-5.6518,-5.633,-5.5928,-5.5571,-5.5483,-5.5886,-5.6086,-5.6165,-5.6486,-5.668,-5.668,-5.668,-5.668,-5.668,-5.6547,-5.6084,-5.4787,-5.4556,-5.3798,-5.2904,-5.2407,-5.2409,-5.2409,-5.2409,-5.2409,-5.2409,-5.2409,-5.2409,-5.2409,-5.2409,-5.2409,-5.2409,-5.2409,-5.2409,-5.2409,-5.2409,-5.2409,-5.2409,-5.2177,-5.1812,-5.1183,-5.0452,-4.9756,-4.9028,-4.8365,-4.81,-4.8034,-4.8001,-4.8001,-4.8001,-4.8001,-4.8001,-4.8001,-4.8001,-4.8001,-4.8001,-4.8001,-4.8001,-4.8001,-4.8001,-4.7703,-4.757,-4.7404,-4.6807,-4.5912,-4.5149,-4.4586,-4.3923,-4.385,-4.3809,-4.3717,-4.3687,-4.3687,-4.3717,-4.3776,-4.3776,-4.3687,-4.3687,-4.3776,-4.3747,-4.3658,-4.3628,-6.0455,-5.9932,-5.9839,-5.9213,-5.8276,-5.8102,-5.7814,-5.7523,-5.7746,-5.7918,-5.7965,-5.8182,-5.8274,-5.8321,-5.8321,-5.8321,-5.8321,-5.8321,-5.8321,-5.8321,-5.8321,-5.8321,-5.8321,-5.8321,-5.8321,-5.8321,-5.8321,-5.8321,-5.8381,-5.8391,-5.8146,-5.7835,-5.776,-5.7367,-5.6582,-5.6192,-5.596,-5.5645,-5.5879,-5.6086,-5.6205,-5.6447,-5.668,-5.668,-5.668,-5.668,-5.668,-5.6647,-5.6282,-5.545,-5.4821,-5.4096,-5.3268,-5.2672,-5.2442,-5.2409,-5.2409,-5.2409,-5.2409,-5.2409,-5.2409,-5.2409,-5.2409,-5.2409,-5.2409,-5.2409,-5.2409,-5.2409,-5.2409,-5.2409,-5.2376,-5.1945,-5.1181,-5.0485,-4.9823,-4.9094,-4.8431,-4.8133,-4.8001,-4.8001,-4.8001,-4.8001,-4.8001,-4.8001,-4.8001,-4.8001,-4.8001,-4.8001,-4.8001,-4.8001,-4.8001,-4.8001,-4.8001,-4.757,-4.7139,-4.6973,-4.6573,-4.5543,-4.4812,-4.4541,-4.4042,-4.3905,-4.3868,-4.3864,-4.3923,-4.3952,-4.3981,-4.3952,-4.3952,-4.3894,-4.3923,-4.3952,-4.3894,-4.3805,-4.3717,-6.0086,-5.9716,-5.9039,-5.8393,-5.7826,-5.7492,-5.7329,-5.7163,-5.7401,-5.7637,-5.7871,-5.8011,-5.8182,-5.8274,-5.8321,-5.8321,-5.8321,-5.8321,-5.8321,-5.8321,-5.8321,-5.8321,-5.8321,-5.8321,-5.8321,-5.8321,-5.8321,-5.8321,-5.8321,-5.8381,-5.8282,-5.8178,-5.8172,-5.7783,-5.7206,-5.6709,-5.6413,-5.6042,-5.6042,-5.6086,-5.6126,-5.6486,-5.668,-5.668,-5.668,-5.668,-5.668,-5.668,-5.6349,-5.562,-5.4887,-5.4195,-5.3467,-5.2837,-5.2409,-5.2409,-5.2409,-5.2409,-5.2409,-5.2409,-5.2409,-5.2409,-5.2409,-5.2409,-5.2409,-5.2409,-5.2409,-5.2409,-5.2409,-5.2409,-5.2376,-5.1713,-5.0982,-5.0286,-4.9525,-4.8796,-4.8233,-4.8034,-4.8001,-4.8001,-4.8001,-4.8001,-4.8001,-4.8001,-4.8001,-4.8001,-4.8001,-4.8001,-4.8001,-4.8001,-4.8001,-4.8033,-4.8,-4.7568,-4.7068,-4.6733,-4.6236,-4.5236,-4.46,-4.4327,-4.4219,-4.4077,-4.4068,-4.4126,-4.4155,-4.4155,-4.4097,-4.4039,-4.4097,-4.4126,-4.4097,-4.4068,-4.401,-4.3952,-4.3894,-5.9501,-5.9285,-5.8258,-5.7734,-5.7549,-5.7056,-5.6906,-5.7019,-5.7084,-5.7353,-5.7731,-5.7871,-5.8011,-5.8182,-5.8274,-5.8321,-5.8321,-5.8321,-5.8321,-5.8321,-5.8321,-5.8321,-5.8321,-5.8321,-5.8321,-5.8321,-5.8321,-5.8321,-5.8321,-5.8321,-5.8413,-5.836,-5.8109,-5.8057,-5.7924,-5.7098,-5.6751,-5.6408,-5.6238,-5.6119,-5.6251,-5.6525,-5.668,-5.668,-5.668,-5.668,-5.668,-5.668,-5.6448,-5.5885,-5.5152,-5.4427,-5.3699,-5.297,-5.2539,-5.2442,-5.2409,-5.2409,-5.2409,-5.2409,-5.2409,-5.2409,-5.2409,-5.2409,-5.2409,-5.2409,-5.2409,-5.2409,-5.2409,-5.2409,-5.231,-5.158,-5.085,-5.022,-4.9425,-4.8696,-4.8233,-4.8001,-4.8001,-4.8001,-4.8001,-4.8001,-4.8001,-4.8001,-4.8001,-4.8001,-4.8001,-4.8001,-4.8001,-4.8001,-4.8001,-4.8066,-4.7965,-4.7596,-4.7093,-4.6553,-4.5885,-4.4883,-4.4415,-4.4206,-4.4193,-4.4212,-4.427,-4.4298,-4.4327,-4.4298,-4.4212,-4.4184,-4.427,-4.4298,-4.4212,-4.4184,-4.4155,-4.4126,-4.4068,-5.8596,-5.7993,-5.7888,-5.7487,-5.6994,-5.684,-5.681,-5.6858,-5.7019,-5.7163,-5.7275,-5.7637,-5.7871,-5.8043,-5.8228,-5.8274,-5.8321,-5.8321,-5.8321,-5.8321,-5.8321,-5.8321,-5.8321,-5.8321,-5.8321,-5.8321,-5.8321,-5.8321,-5.8321,-5.8321,-5.8321,-5.8318,-5.8405,-5.8332,-5.8012,-5.7388,-5.6947,-5.6552,-5.6246,-5.6284,-5.6525,-5.6641,-5.668,-5.668,-5.668,-5.668,-5.668,-5.668,-5.6581,-5.6481,-5.5819,-5.5123,-5.4427,-5.3699,-5.3003,-5.2572,-5.2409,-5.2409,-5.2409,-5.2409,-5.2409,-5.2409,-5.2409,-5.2409,-5.2409,-5.2409,-5.2409,-5.2409,-5.2409,-5.2343,-5.2078,-5.1115,-5.0485,-4.979,-4.9028,-4.8431,-4.8001,-4.8001,-4.8001,-4.8033,-4.8033,-4.8033,-4.8033,-4.8001,-4.8001,-4.8001,-4.8001,-4.8001,-4.8001,-4.8033,-4.8066,-4.8098,-4.8126,-4.7788,-4.7113,-4.6569,-4.576,-4.4691,-4.4385,-4.4212,-4.427,-4.4355,-4.4412,-4.444,-4.444,-4.4502,-4.4412,-4.4412,-4.453,-4.4502,-4.4384,-4.4355,-4.4293,-4.4236,-4.4241,-5.7734,-5.7795,-5.7426,-5.7087,-5.684,-5.681,-5.681,-5.681,-5.6906,-5.7019,-5.7084,-5.7353,-5.759,-5.7871,-5.8182,-5.8274,-5.8321,-5.8321,-5.8321,-5.8321,-5.8321,-5.8321,-5.8321,-5.8321,-5.8321,-5.8321,-5.8321,-5.8321,-5.8321,-5.8321,-5.8321,-5.8321,-5.8473,-5.8528,-5.8122,-5.7536,-5.7206,-5.6783,-5.645,-5.6277,-5.6519,-5.6641,-5.668,-5.668,-5.668,-5.668,-5.668,-5.668,-5.668,-5.6547,-5.6017,-5.5251,-5.4523,-5.3761,-5.3102,-5.2509,-5.2409,-5.2409,-5.2409,-5.2409,-5.2409,-5.2409,-5.2409,-5.2409,-5.2409,-5.2409,-5.2409,-5.2409,-5.2409,-5.2243,-5.1779,-5.0817,-5.0154,-4.9425,-4.8663,-4.8332,-4.8001,-4.8001,-4.8001,-4.8033,-4.8066,-4.8099,-4.8131,-4.8099,-4.8066,-4.8033,-4.8001,-4.8001,-4.8066,-4.8065,-4.8098,-4.8163,-4.8155,-4.8075,-4.7264,-4.6514,-4.5833,-4.4956,-4.4581,-4.4412,-4.444,-4.4497,-4.4525,-4.4525,-4.4525,-4.4553,-4.4581,-4.4553,-4.4587,-4.4553,-4.4581,-4.4497,-4.444,-4.4468,-4.4446,-5.7118,-5.7518,-5.7025,-5.681,-5.681,-5.681,-5.681,-5.681,-5.681,-5.6875,-5.7019,-5.7084,-5.7448,-5.7825,-5.8089,-5.8228,-5.8321,-5.8321,-5.8321,-5.8321,-5.8321,-5.8321,-5.8321,-5.8321,-5.8321,-5.8321,-5.8321,-5.8321,-5.8321,-5.8321,-5.8321,-5.8321,-5.8381,-5.8532,-5.8319,-5.7628,-5.7002,-5.6631,-5.6303,-5.6238,-5.6408,-5.6603,-5.668,-5.668,-5.668,-5.668,-5.668,-5.668,-5.668,-5.6581,-5.6282,-5.5549,-5.4589,-5.4026,-5.3301,-5.2672,-5.2409,-5.2409,-5.2409,-5.2409,-5.2409,-5.2409,-5.2409,-5.2409,-5.2409,-5.2409,-5.2409,-5.2409,-5.2409,-5.2011,-5.1382,-5.0651,-4.9955,-4.926,-4.8498,-4.8233,-4.8001,-4.8033,-4.8099,-4.8131,-4.8163,-4.826,-4.826,-4.8228,-4.8164,-4.8066,-4.8033,-4.8033,-4.8065,-4.8163,-4.826,-4.8356,-4.8383,-4.82,-4.7248,-4.6461,-4.5805,-4.5224,-4.4818,-4.4581,-4.4553,-4.4553,-4.4553,-4.4553,-4.4581,-4.4581,-4.4581,-4.4581,-4.4581,-4.4581,-4.4581,-4.4581,-4.4553,-4.4581,-4.4587,-5.684,-5.6871,-5.684,-5.681,-5.681,-5.681,-5.681,-5.681,-5.681,-5.681,-5.6906,-5.7019,-5.7401,-5.7778,-5.7918,-5.8089,-5.8274,-5.8274,-5.8321,-5.8321,-5.8321,-5.8321,-5.8321,-5.8321,-5.8321,-5.8321,-5.8321,-5.8321,-5.8321,-5.8321,-5.8321,-5.8321,-5.8367,-5.8427,-5.8101,-5.7349,-5.653,-5.6195,-5.6025,-5.6165,-5.6369,-5.6564,-5.668,-5.668,-5.668,-5.668,-5.668,-5.668,-5.668,-5.668,-5.6547,-5.5786,-5.4759,-5.4394,-5.3665,-5.2672,-5.2409,-5.2409,-5.2409,-5.2409,-5.2409,-5.2409,-5.2409,-5.2409,-5.2409,-5.2409,-5.2409,-5.2409,-5.2409,-5.1978,-5.1313,-5.0651,-4.9889,-4.8995,-4.8365,-4.8166,-4.8033,-4.8131,-4.8163,-4.8227,-4.8324,-4.842,-4.8483,-4.8453,-4.8292,-4.8227,-4.8163,-4.8196,-4.8195,-4.8292,-4.8485,-4.8612,-4.8707,-4.8259,-4.7166,-4.6481,-4.6075,-4.5427,-4.4852,-4.4682,-4.4553,-4.4581,-4.4581,-4.4581,-4.4581,-4.4581,-4.4581,-4.4581,-4.4581,-4.4581,-4.4581,-4.4581,-4.4581,-4.4581,-4.4581,-5.681,-5.681,-5.681,-5.681,-5.681,-5.681,-5.681,-5.681,-5.681,-5.681,-5.6779,-5.7019,-5.7211,-5.7417,-5.7778,-5.7918,-5.8089,-5.8228,-5.8274,-5.8321,-5.8321,-5.8321,-5.8321,-5.8321,-5.8321,-5.8321,-5.8321,-5.8321,-5.8321,-5.8257,-5.8289,-5.8321,-5.8226,-5.7973,-5.7553,-5.6878,-5.6101,-5.5848,-5.5886,-5.6165,-5.6211,-5.6525,-5.668,-5.668,-5.668,-5.668,-5.668,-5.668,-5.668,-5.668,-5.668,-5.5819,-5.4792,-5.456,-5.3765,-5.2641,-5.2442,-5.2409,-5.2409,-5.2409,-5.2409,-5.2409,-5.2409,-5.2409,-5.2409,-5.2409,-5.2409,-5.2409,-5.2409,-5.1943,-5.075,-5.032,-4.979,-4.8796,-4.8233,-4.8067,-4.8066,-4.8163,-4.826,-4.8324,-4.8517,-4.8675,-4.8707,-4.8675,-4.8547,-4.842,-4.8356,-4.8324,-4.8356,-4.8452,-4.8612,-4.8738,-4.8832,-4.8557,-4.7534,-4.6955,-4.6447,-4.5669,-4.4891,-4.4784,-4.4682,-4.4581,-4.4581,-4.4581,-4.4581,-4.4581,-4.4581,-4.4581,-4.4581,-4.4581,-4.4581,-4.4581,-4.4581,-4.4581,-4.4581,-5.681,-5.681,-5.681,-5.681,-5.681,-5.681,-5.6686,-5.6502,-5.6423,-5.6347,-5.6224,-5.6337,-5.6448,-5.6621,-5.7043,-5.7433,-5.7635,-5.7932,-5.8197,-5.8274,-5.8321,-5.8321,-5.8321,-5.8321,-5.8321,-5.8321,-5.8321,-5.8321,-5.8289,-5.8099,-5.7927,-5.7832,-5.7737,-5.7358,-5.7164,-5.628,-5.5664,-5.5604,-5.5846,-5.6086,-5.6165,-5.6447,-5.668,-5.668,-5.668,-5.668,-5.668,-5.668,-5.668,-5.668,-5.6547,-5.5885,-5.509,-5.4328,-5.3732,-5.2904,-5.2409,-5.2409,-5.2409,-5.2409,-5.2409,-5.2409,-5.2409,-5.2409,-5.2409,-5.2409,-5.2409,-5.2409,-5.2343,-5.1777,-5.0452,-5.0154,-4.9525,-4.8564,-4.8199,-4.8001,-4.8131,-4.8227,-4.8389,-4.8485,-4.8675,-4.8863,-4.8863,-4.8832,-4.8673,-4.8547,-4.8452,-4.8452,-4.858,-4.8675,-4.8769,-4.8863,-4.8925,-4.8517,-4.7973,-4.753,-4.6955,-4.5906,-4.5229,-4.4919,-4.4784,-4.4716,-4.4615,-4.4581,-4.4581,-4.4581,-4.4581,-4.4581,-4.4581,-4.4581,-4.4581,-4.4581,-4.4581,-4.4581,-4.4581,-5.6779,-5.681,-5.6748,-5.6748,-5.6686,-5.6779,-5.6409,-5.5776,-5.5715,-5.5438,-5.5037,-5.4945,-5.5085,-5.5395,-5.6031,-5.6419,-5.6869,-5.74,-5.7854,-5.8039,-5.8053,-5.818,-5.8321,-5.8321,-5.8321,-5.8321,-5.8148,-5.8085,-5.8148,-5.7516,-5.7295,-5.7042,-5.6757,-5.6581,-5.7024,-5.6248,-5.5664,-5.5539,-5.5886,-5.6006,-5.6165,-5.6447,-5.6603,-5.668,-5.668,-5.668,-5.668,-5.668,-5.668,-5.668,-5.6547,-5.5819,-5.4725,-5.4427,-5.3699,-5.2608,-5.2442,-5.2409,-5.2409,-5.2409,-5.2409,-5.2409,-5.2409,-5.2409,-5.2409,-5.2409,-5.2409,-5.2409,-5.2376,-5.1678,-5.0817,-5.0121,-4.9293,-4.8531,-4.8133,-4.8066,-4.8163,-4.8389,-4.8517,-4.8612,-4.8832,-4.9018,-4.9018,-4.8956,-4.8767,-4.8642,-4.8547,-4.8578,-4.8738,-4.8801,-4.8894,-4.8925,-4.8954,-4.8751,-4.8311,-4.8007,-4.7398,-4.6346,-4.5669,-4.5399,-4.5122,-4.4953,-4.4852,-4.4682,-4.4581,-4.4581,-4.4581,-4.4581,-4.4581,-4.4581,-4.4581,-4.4581,-4.4581,-4.4581,-4.4581,-5.5807,-5.5407,-5.5407,-5.5407,-5.5468,-5.5869,-5.5684,-5.513,-5.5037,-5.4868,-5.4714,-5.4683,-5.473,-5.4993,-5.5163,-5.5534,-5.5781,-5.6224,-5.6707,-5.7365,-5.7488,-5.7927,-5.8085,-5.8162,-5.8226,-5.8116,-5.7927,-5.7579,-5.7548,-5.6884,-5.6599,-5.6347,-5.5873,-5.5827,-5.595,-5.5538,-5.515,-5.5433,-5.5726,-5.5966,-5.6086,-5.633,-5.6564,-5.668,-5.668,-5.668,-5.668,-5.668,-5.6647,-5.6547,-5.6349,-5.5521,-5.4523,-5.4158,-5.3367,-5.2572,-5.2409,-5.2409,-5.2409,-5.2409,-5.2409,-5.2409,-5.2409,-5.2409,-5.2409,-5.2409,-5.2409,-5.2409,-5.2409,-5.1612,-5.0585,-5.0286,-4.9558,-4.8464,-4.8066,-4.8098,-4.826,-4.8549,-4.8738,-4.8769,-4.8894,-4.8987,-4.9018,-4.9018,-4.8861,-4.8829,-4.8767,-4.8767,-4.8894,-4.8925,-4.8987,-4.8987,-4.8984,-4.8883,-4.868,-4.8376,-4.8007,-4.7162,-4.6549,-4.6143,-4.5771,-4.5399,-4.5026,-4.4919,-4.475,-4.4581,-4.4581,-4.4581,-4.4581,-4.4581,-4.4581,-4.4581,-4.4581,-4.4581,-4.4581,-5.513,-5.4683,-5.4683,-5.4529,-5.4468,-5.5068,-5.4976,-5.4375,-5.4145,-5.4006,-5.3945,-5.3991,-5.3991,-5.4099,-5.4406,-5.4714,-5.4791,-5.5314,-5.5879,-5.649,-5.6626,-5.6983,-5.7358,-5.7625,-5.7403,-5.7421,-5.72,-5.6852,-5.6821,-5.6157,-5.5683,-5.5335,-5.5051,-5.5035,-5.5102,-5.4995,-5.5012,-5.5319,-5.5604,-5.5886,-5.6086,-5.6323,-5.6486,-5.6641,-5.668,-5.668,-5.668,-5.6647,-5.6547,-5.6282,-5.5819,-5.5085,-5.4328,-5.3665,-5.3036,-5.2641,-5.2409,-5.2409,-5.2409,-5.2409,-5.2409,-5.2409,-5.2409,-5.2409,-5.2409,-5.2409,-5.2409,-5.2409,-5.2409,-5.1545,-5.0585,-5.0353,-4.9624,-4.8531,-4.8131,-4.8228,-4.8356,-4.8644,-4.8832,-4.8863,-4.8925,-4.8987,-4.9018,-4.9018,-4.8987,-4.8987,-4.9018,-4.9018,-4.9018,-4.9018,-4.9018,-4.9018,-4.9018,-4.8951,-4.8849,-4.8646,-4.8277,-4.7939,-4.7462,-4.6921,-4.6447,-4.6075,-4.5602,-4.5196,-4.5162,-4.506,-4.4716,-4.4615,-4.4649,-4.4649,-4.4581,-4.4581,-4.4581,-4.4581,-4.4581,-5.4621,-5.4621,-5.4621,-5.4191,-5.3868,-5.4283,-5.4237,-5.3607,-5.3067,-5.279,-5.279,-5.2883,-5.2975,-5.2975,-5.3437,-5.382,-5.4095,-5.4682,-5.5158,-5.5601,-5.5767,-5.606,-5.6257,-5.6441,-5.6599,-5.6378,-5.6189,-5.6125,-5.6094,-5.5462,-5.4798,-5.4419,-5.4356,-5.4421,-5.4571,-5.4677,-5.4864,-5.5196,-5.5483,-5.5806,-5.6006,-5.6244,-5.6441,-5.6564,-5.668,-5.668,-5.668,-5.668,-5.6282,-5.5951,-5.5516,-5.4659,-5.393,-5.3434,-5.2937,-5.2641,-5.2409,-5.2409,-5.2409,-5.2409,-5.2409,-5.2409,-5.2409,-5.2409,-5.2409,-5.2409,-5.2409,-5.2409,-5.2376,-5.1446,-5.0651,-5.0154,-4.9657,-4.8895,-4.8296,-4.8325,-4.8452,-4.8642,-4.8863,-4.8925,-4.8987,-4.9018,-4.9018,-4.9018,-4.9018,-4.9018,-4.9018,-4.9018,-4.9018,-4.9018,-4.9018,-4.9018,-4.9018,-4.9018,-4.8917,-4.8815,-4.868,-4.8311,-4.8142,-4.7733,-4.7259,-4.6752,-4.638,-4.6041,-4.5838,-4.5568,-4.5128,-4.4886,-4.475,-4.4716,-4.4615,-4.4581,-4.4581,-4.4581,-4.4615,-5.3699,-5.3314,-5.3238,-5.3191,-5.3037,-5.3221,-5.3114,-5.2975,-5.276,-5.2729,-5.2729,-5.2729,-5.2729,-5.276,-5.2868,-5.3051,-5.3234,-5.3523,-5.403,-5.4442,-5.4898,-5.5422,-5.5745,-5.5973,-5.6112,-5.5967,-5.567,-5.5386,-5.526,-5.4692,-5.4419,-5.4166,-5.4103,-5.4189,-5.4274,-5.4444,-5.4739,-5.5031,-5.536,-5.5645,-5.5886,-5.6126,-5.6323,-5.648,-5.6641,-5.668,-5.668,-5.6614,-5.6216,-5.5648,-5.5052,-5.4258,-5.3599,-5.297,-5.2509,-5.2475,-5.2409,-5.2409,-5.2409,-5.2409,-5.2409,-5.2409,-5.2409,-5.2409,-5.2409,-5.2409,-5.2409,-5.2409,-5.2376,-5.1678,-5.0916,-5.0353,-4.9756,-4.9094,-4.8529,-4.8421,-4.8547,-4.8736,-4.8892,-4.8987,-4.9018,-4.9018,-4.9018,-4.9018,-4.9018,-4.9018,-4.9018,-4.9018,-4.9018,-4.9018,-4.9018,-4.9018,-4.9018,-4.9018,-4.9018,-4.8917,-4.8849,-4.8748,-4.8578,-4.8342,-4.7902,-4.7462,-4.7158,-4.6819,-4.6447,-4.6007,-4.5568,-4.5297,-4.5094,-4.475,-4.4615,-4.4615,-4.4581,-4.4581,-4.4581,-5.2932,-5.2563,-5.2653,-5.2729,-5.2729,-5.2729,-5.2729,-5.2729,-5.2729,-5.2729,-5.2729,-5.2729,-5.2729,-5.2729,-5.2729,-5.276,-5.276,-5.2987,-5.3307,-5.3716,-5.4064,-5.4309,-5.4799,-5.5045,-5.4932,-5.4914,-5.4844,-5.4561,-5.451,-5.4376,-5.4103,-5.4103,-5.4103,-5.4103,-5.4189,-5.4327,-5.4539,-5.4832,-5.5113,-5.5442,-5.5726,-5.5966,-5.6205,-5.6402,-5.6564,-5.668,-5.6614,-5.6481,-5.5885,-5.5185,-5.4423,-5.3765,-5.3135,-5.2572,-5.2442,-5.2409,-5.2409,-5.2409,-5.2409,-5.2409,-5.2409,-5.2409,-5.2409,-5.2409,-5.2409,-5.2409,-5.2409,-5.2409,-5.2343,-5.2075,-5.1347,-5.0618,-4.9889,-4.9193,-4.886,-4.8485,-4.8642,-4.8829,-4.8892,-4.8987,-4.9018,-4.9018,-4.9018,-4.9018,-4.9018,-4.9018,-4.9018,-4.9018,-4.9018,-4.9018,-4.9018,-4.9018,-4.9018,-4.9018,-4.9018,-4.9018,-4.8951,-4.8917,-4.8883,-4.8646,-4.8376,-4.8206,-4.7936,-4.7462,-4.6955,-4.6549,-4.6177,-4.5771,-4.5466,-4.5094,-4.4756,-4.4649,-4.4615,-4.4581,-4.4581,-5.2261,-5.2306,-5.2563,-5.2653,-5.2729,-5.2729,-5.2729,-5.2729,-5.2729,-5.2729,-5.2729,-5.2729,-5.2729,-5.2729,-5.2729,-5.2729,-5.2729,-5.2774,-5.2863,-5.3086,-5.3299,-5.3557,-5.3583,-5.3484,-5.3959,-5.3665,-5.3646,-5.3978,-5.3895,-5.3844,-5.3931,-5.406,-5.406,-5.406,-5.4146,-5.4242,-5.4412,-5.4581,-5.4832,-5.5196,-5.5604,-5.5927,-5.6165,-5.6362,-5.6525,-5.6647,-5.6415,-5.5951,-5.5218,-5.4456,-5.3831,-5.3169,-5.2705,-5.2475,-5.2409,-5.2409,-5.2409,-5.2409,-5.2409,-5.2409,-5.2409,-5.2409,-5.2409,-5.2409,-5.2409,-5.2409,-5.2409,-5.2409,-5.2376,-5.2243,-5.1645,-5.0982,-5.0286,-4.9659,-4.9226,-4.8852,-4.8675,-4.8863,-4.8987,-4.9018,-4.9018,-4.9018,-4.9018,-4.9018,-4.9018,-4.9018,-4.9018,-4.9018,-4.9018,-4.9018,-4.9018,-4.9018,-4.9018,-4.9018,-4.9018,-4.9018,-4.9018,-4.8984,-4.9018,-4.8984,-4.8714,-4.868,-4.8714,-4.824,-4.7733,-4.7293,-4.6887,-4.6549,-4.6143,-4.5534,-4.5162,-4.4784,-4.4682,-4.4682,-4.4581,-5.2063,-5.2109,-5.2306,-5.2518,-5.2698,-5.2729,-5.2698,-5.2729,-5.2729,-5.2729,-5.2729,-5.2729,-5.2729,-5.2729,-5.2729,-5.2729,-5.2729,-5.2729,-5.2743,-5.2908,-5.2997,-5.3086,-5.3188,-5.3246,-5.3334,-5.3421,-5.3465,-5.354,-5.3584,-5.3627,-5.3714,-5.3876,-5.3876,-5.3888,-5.406,-5.4189,-5.42,-5.437,-5.4539,-5.4906,-5.5278,-5.5645,-5.5966,-5.6165,-5.633,-5.6195,-5.5974,-5.5648,-5.4754,-5.3897,-5.3599,-5.3069,-5.244,-5.2442,-5.2409,-5.2409,-5.2409,-5.2409,-5.2409,-5.2409,-5.2409,-5.2409,-5.2409,-5.2409,-5.2409,-5.2409,-5.2409,-5.2409,-5.2376,-5.2243,-5.1978,-5.1348,-5.0786,-5.0192,-4.9591,-4.9185,-4.8774,-4.8863,-4.9018,-4.9018,-4.9018,-4.9018,-4.9018,-4.9018,-4.9018,-4.9018,-4.9018,-4.9018,-4.9018,-4.9018,-4.9018,-4.9018,-4.9018,-4.9018,-4.9018,-4.9018,-4.9018,-4.9018,-4.9018,-4.9018,-4.9018,-4.8951,-4.8883,-4.8849,-4.8545,-4.8071,-4.7733,-4.7597,-4.709,-4.6312,-4.5737,-4.5399,-4.5026,-4.4953,-4.475,-5.1834,-5.1834,-5.2063,-5.2246,-5.2382,-5.2473,-5.2518,-5.2563,-5.2653,-5.2729,-5.2729,-5.2729,-5.2729,-5.2729,-5.2729,-5.2729,-5.2729,-5.2729,-5.2698,-5.2743,-5.2833,-5.2877,-5.2966,-5.3055,-5.3055,-5.31,-5.3233,-5.3321,-5.3334,-5.3421,-5.354,-5.3584,-5.3659,-5.3714,-5.3931,-5.3974,-5.406,-5.4242,-5.4295,-5.4549,-5.4957,-5.5328,-5.5726,-5.5966,-5.5883,-5.5716,-5.5402,-5.5048,-5.4229,-5.3467,-5.3135,-5.2837,-5.2475,-5.2409,-5.2409,-5.2409,-5.2409,-5.2409,-5.2409,-5.2409,-5.2409,-5.2409,-5.2409,-5.2409,-5.2409,-5.2409,-5.2409,-5.2409,-5.2409,-5.231,-5.2111,-5.1614,-5.1285,-5.0825,-4.9992,-4.9318,-4.9039,-4.8925,-4.9018,-4.9018,-4.9018,-4.9018,-4.9018,-4.9018,-4.9018,-4.9018,-4.9018,-4.9018,-4.9018,-4.9018,-4.9018,-4.9018,-4.9018,-4.9018,-4.9018,-4.9018,-4.9018,-4.9018,-4.9018,-4.9018,-4.9018,-4.9018,-4.8984,-4.8951,-4.8917,-4.8781,-4.8511,-4.821,-4.7838,-4.7158,-4.6583,-4.6109,-4.5703,-4.5399,-4.55,-5.1301,-5.1377,-5.1561,-5.1744,-5.1896,-5.2048,-5.2215,-5.2352,-5.2563,-5.2653,-5.2729,-5.2729,-5.2729,-5.2729,-5.2729,-5.2729,-5.2729,-5.2729,-5.2729,-5.2729,-5.2729,-5.2743,-5.2743,-5.2743,-5.2819,-5.2833,-5.2966,-5.31,-5.3201,-5.3201,-5.3201,-5.3334,-5.3377,-5.3465,-5.3671,-5.3789,-5.3888,-5.3997,-5.4105,-5.4295,-5.4662,-5.5026,-5.5288,-5.5382,-5.5339,-5.5106,-5.4661,-5.4179,-5.346,-5.3102,-5.2771,-5.2539,-5.2475,-5.2409,-5.2409,-5.2409,-5.2409,-5.2409,-5.2409,-5.2409,-5.2409,-5.2409,-5.2409,-5.2409,-5.2409,-5.2409,-5.2409,-5.2409,-5.2409,-5.2343,-5.2177,-5.2011,-5.1719,-5.1292,-5.0392,-4.9616,-4.9369,-4.9086,-4.9018,-4.9018,-4.9018,-4.9018,-4.9018,-4.9018,-4.9018,-4.9018,-4.9018,-4.9018,-4.9018,-4.9018,-4.9018,-4.9018,-4.9018,-4.9018,-4.9018,-4.9018,-4.9018,-4.9018,-4.9018,-4.9018,-4.9018,-4.9018,-4.9018,-4.9018,-4.8951,-4.8917,-4.8815,-4.8511,-4.8173,-4.7804,-4.7394,-4.6819,-4.6413,-4.6244,-4.6583,-4.984,-4.9975,-5.005,-5.0487,-5.1122,-5.1227,-5.1637,-5.2245,-5.2321,-5.2518,-5.2577,-5.2653,-5.2729,-5.2729,-5.2729,-5.2729,-5.2729,-5.2729,-5.2729,-5.2729,-5.2729,-5.2729,-5.2729,-5.2729,-5.2729,-5.2774,-5.2743,-5.2788,-5.2966,-5.2922,-5.2922,-5.31,-5.3144,-5.3277,-5.3465,-5.3596,-5.3664,-5.371,-5.346,-5.3492,-5.371,-5.4081,-5.4487,-5.4475,-5.4281,-5.3896,-5.356,-5.3412,-5.3026,-5.2702,-5.2509,-5.2442,-5.2409,-5.2409,-5.2409,-5.2409,-5.2409,-5.2409,-5.2409,-5.2409,-5.2409,-5.2409,-5.2409,-5.2409,-5.2409,-5.2409,-5.2409,-5.2409,-5.2409,-5.2409,-5.2277,-5.2277,-5.2049,-5.1529,-5.0791,-5.0247,-4.9866,-4.9424,-4.912,-4.9052,-4.9018,-4.9018,-4.9018,-4.9018,-4.9018,-4.9018,-4.9018,-4.9018,-4.9018,-4.9018,-4.9018,-4.9018,-4.9018,-4.9018,-4.9018,-4.9018,-4.9018,-4.9018,-4.9018,-4.9018,-4.9018,-4.9018,-4.9018,-4.9018,-4.9018,-4.8984,-4.8849,-4.8748,-4.8477,-4.8142,-4.7906,-4.7564,-4.7192,-4.709,-4.7394]},{"header":{"parameterUnit":"m.s-1","parameterCategory":1,"la1":31.0,"la2":29.5877,"lo1":-88.7671,"lo2":-86.6584,"dy":0.0162,"dx":0.0185,"nx":115,"ny":88,"refTime":"2023-06-09T12:00:00:Z","depth":0,"parameterNumber":3,"parameterNumberName":"V-component_of_WINDS"},"data":[0.0,0.0,0.0,0.0,0.0,0.0,0.0,0.0,0.0,0.0,0.0,0.0,0.0,0.0,0.0,0.0,0.0,0.0,0.0,0.0,0.0,0.0,0.0,0.0,0.0,0.0,0.0,0.0,0.0,0.0,0.0,0.0,0.0,0.0,0.0,0.0,0.0,0.0,0.0,0.0,0.0,0.0,0.0,0.0,0.0,0.0,0.0,0.0,0.0,0.0,0.0,0.0,0.0,0.0,0.0,0.0,0.0,0.0,0.0,0.0,0.0,0.0,0.0,0.0,0.0,0.0,0.0,0.0,0.0,0.0,0.0,0.0,0.0,0.0,0.0,0.0,0.0,0.0,0.0,0.0,0.0,0.0,0.0,0.0,0.0,0.0,0.0,0.0,0.0,0.0,0.0,0.0,0.0,0.0,0.0,0.0,0.0,0.0,0.0,0.0,0.0,0.0,0.0,0.0,0.0,0.0,0.0,0.0,0.0,0.0,0.0,0.0,0.0,0.0,0.0,0.0,0.0,0.0,0.0,0.0,0.0,0.0,0.0,0.0,0.0,0.0,0.0,0.0,0.0,0.0,0.0,0.0,0.0,0.0,0.0,0.0,0.0,0.0,0.0,0.0,0.0,0.0,0.0,0.0,0.0,0.0,0.0,0.0,0.0,0.0,0.0,0.0,0.0,0.0,0.0,0.0,0.0,0.0,0.0,0.0,0.0,0.0,0.0,0.0,0.0,0.0,0.0,0.0,0.0,0.0,0.0,0.0,0.0,0.0,0.0,0.0,0.0,0.0,0.0,0.0,0.0,0.0,0.0,0.0,0.0,0.0,0.0,0.0,0.0,0.0,0.0,0.0,0.0,0.0,0.0,0.0,0.0,0.0,0.0,0.0,0.0,0.0,0.0,0.0,0.0,0.0,0.0,0.0,0.0,0.0,0.0,0.0,0.0,0.0,0.0,0.0,0.0,0.0,0.0,0.0,0.0,0.0,0.0,0.0,0.0,0.0,0.0,0.0,0.0,0.0,0.0,0.0,0.0,0.0,0.0,0.0,0.0,0.0,0.0,0.0,0.0,0.0,0.0,0.0,0.0,0.0,0.0,0.0,0.0,0.0,0.0,0.0,0.0,0.0,0.0,0.0,0.0,0.0,0.0,0.0,0.0,0.0,0.0,0.0,0.0,0.0,0.0,0.0,0.0,0.0,0.0,0.0,0.0,0.0,0.0,0.0,0.0,0.0,0.0,0.0,0.0,0.0,0.0,0.0,0.0,0.0,0.0,0.0,0.0,0.0,0.0,0.0,0.0,0.0,0.0,0.0,0.0,0.0,0.0,0.0,0.0,0.0,0.0,0.0,0.0,0.0,0.0,0.0,0.0,0.0,0.0,0.0,0.0,0.0,0.0,0.0,0.0,0.0,0.0,0.0,0.0,0.0,0.0,0.0,0.0,0.0,0.0,0.0,0.0,0.0,0.0,0.0,0.0,0.0,0.0,0.0,0.0,0.0,0.0,0.0,0.0,0.0,0.0,0.0,0.0,0.0,0.0,0.0,0.0,0.0,0.0,0.0,0.0,0.0,0.0,0.0,0.0,0.0,0.0,0.0,0.0,0.0,0.0,0.0,0.0,0.0,0.0,0.0,0.0,0.0,0.0,0.0,0.0,0.0,0.0,0.0,0.0,0.0,0.0,0.0,0.0,0.0,0.0,0.0,0.0,0.0,0.0,0.0,0.0,0.0,0.0,0.0,0.0,0.0,0.0,0.0,0.0,0.0,0.0,0.0,0.0,0.0,0.0,0.0,0.0,0.0,0.0,0.0,0.0,0.0,0.0,0.0,0.0,0.0,0.0,0.0,0.0,0.0,0.0,0.0,0.0,0.0,0.0,0.0,0.0,0.0,0.0,0.0,0.0,0.0,0.0,0.0,0.0,0.0,0.0,0.0,0.0,0.0,0.0,0.0,0.0,0.0,0.0,0.0,0.0,0.0,0.0,0.0,0.0,0.0,0.0,0.0,0.0,0.0,0.0,0.0,0.0,0.0,0.0,0.0,0.0,0.0,0.0,0.0,0.0,0.0,0.0,0.0,0.0,0.0,0.0,0.0,0.0,0.0,0.0,0.0,0.0,0.0,0.0,0.0,0.0,0.0,0.0,0.0,0.0,0.0,0.0,0.0,0.0,0.0,0.0,0.0,0.0,0.0,0.0,0.0,0.0,0.0,0.0,0.0,0.0,0.0,0.0,0.0,0.0,0.0,0.0,0.0,0.0,0.0,0.0,0.0,0.0,0.0,0.0,0.0,0.0,0.0,0.0,0.0,0.0,0.0,0.0,0.0,0.0,0.0,0.0,0.0,0.0,0.0,0.0,0.0,0.0,0.0,0.0,0.0,0.0,0.0,0.0,0.0,0.0,0.0,0.0,0.0,0.0,0.0,0.0,0.0,0.0,0.0,0.0,0.0,0.0,0.0,0.0,0.0,0.0,0.0,0.0,0.0,0.0,0.0,0.0,0.0,0.0,0.0,0.0,0.0,0.0,0.0,0.0,0.0,0.0,0.0,0.0,0.0,0.0,0.0,0.0,0.0,0.0,0.0,0.0,0.0,0.0,0.0,0.0,0.0,0.0,0.0,0.0,0.0,0.0,0.0,0.0,0.0,0.0,0.0,0.0,0.0,0.0,0.0,0.0,0.0,0.0,0.0,0.0,0.0,0.0,0.0,0.0,0.0,0.0,0.0,0.0,0.0,0.0,0.0,0.0,0.0,0.0,0.0,0.0,0.0,0.0,0.0,0.0,0.0,0.0,0.0,0.0,0.0,0.0,0.0,0.0,0.0,0.0,0.0,0.0,0.0,0.0,0.0,0.0,0.0,0.0,0.0,0.0,0.0,0.0,0.0,0.0,0.0,0.0,0.0,0.0,0.0,0.0,0.0,0.0,0.0,0.0,0.0,0.0,0.0,0.0,0.0,0.0,0.0,0.0,0.0,0.0,0.0,0.0,0.0,0.0,0.0,0.0,0.0,0.0,0.0,0.0,0.0,0.0,0.0,0.0,0.0,0.0,0.0,0.0,0.0,0.0,0.0,0.0,0.0,0.0,0.0,0.0,0.0,0.0,0.0,0.0,0.0,0.0,0.0,0.0,0.0,0.0,0.0,0.0,0.0,0.0,0.0,0.0,0.0,0.0,0.0,0.0,0.0,0.0,0.0,0.0,0.0,0.0,0.0,0.0,0.0,0.0,0.0,0.0,0.0,0.0,0.0,0.0,0.0,0.0,0.0,0.0,0.0,0.0,0.0,0.0,0.0,0.0,0.0,0.0,0.0,0.0,0.0,0.0,0.0,0.0,0.0,0.0,0.0,0.0,0.0,0.0,0.0,0.0,0.0,0.0,0.0,0.0,0.0,0.0,0.0,0.0,0.0,0.0,0.0,0.0,0.0,0.0,0.0,0.0,0.0,0.0,0.0,0.0,0.0,0.0,0.0,0.0,0.0,0.0,0.0,0.0,0.0,0.0,0.0,0.0,0.0,0.0,0.0,0.0,0.0,0.0,0.0,0.0,0.0,0.0,0.0,0.0,0.0,0.0,0.0,0.0,0.0,0.0,0.0,0.0,0.0,0.0,0.0,0.0,0.0,0.0,0.0,0.0,0.0,0.0,0.0,0.0,0.0,0.0,0.0,0.0,0.0,0.0,0.0,0.0,0.0,0.0,0.0,0.0,0.0,0.0,0.0,0.0,0.0,0.0,0.0,0.0,0.0,0.0,0.0,0.0,0.0,0.0,0.0,0.0,0.0,0.0,0.0,0.0,0.0,0.0,0.0,0.0,0.0,0.0,0.0,0.0,0.0,0.0,0.0,0.0,0.0,0.0,0.0,0.0,0.0,0.0,0.0,0.0,0.0,0.0,0.0,0.0,0.0,0.0,0.0,0.0,0.0,0.0,0.0,0.0,0.0,0.0,0.0,0.0,0.0,0.0,0.0,0.0,0.0,0.0,0.0,0.0,0.0,0.0,0.0,0.0,0.0,0.0,0.0,0.0,0.0,0.0,0.0,0.0,0.0,0.0,0.0,0.0,0.0,0.0,0.0,0.0,0.0,0.0,0.0,0.0,0.0,0.0,0.0,0.0,0.0,0.0,0.0,0.0,0.0,0.0,0.0,0.0,0.0,0.0,0.0,0.0,0.0,0.0,0.0,0.0,0.0,0.0,0.0,0.0,0.0,0.0,0.0,0.0,0.0,0.0,0.0,0.0,0.0,0.0,0.0,0.0,0.0,0.0,0.0,0.0,0.0,0.0,0.0,-1.3064,0.0,0.0,0.0,0.0,0.0,0.0,0.0,0.0,0.0,0.0,0.0,0.0,0.0,0.0,0.0,0.0,0.0,0.0,0.0,0.0,0.0,0.0,0.0,0.0,0.0,0.0,0.0,0.0,0.0,0.0,0.0,0.0,0.0,0.0,0.0,0.0,0.0,0.0,0.0,0.0,0.0,0.0,0.0,0.0,0.0,0.0,0.0,0.0,0.0,0.0,0.0,0.0,0.0,0.0,0.0,0.0,0.0,0.0,0.0,0.0,0.0,0.0,0.0,0.0,0.0,0.0,0.0,0.0,0.0,0.0,0.0,0.0,0.0,0.0,0.0,0.0,0.0,0.0,0.0,0.0,0.0,0.0,0.0,0.0,0.0,0.0,0.0,0.0,0.0,0.0,0.0,0.0,0.0,0.0,0.0,0.0,0.0,0.0,0.0,0.0,0.0,0.0,0.0,0.0,0.0,0.0,0.0,0.0,0.0,0.0,-1.365,-1.353,-1.3517,-1.3528,-1.3503,0.0,0.0,0.0,0.0,0.0,0.0,0.0,0.0,0.0,0.0,0.0,0.0,0.0,0.0,0.0,0.0,0.0,0.0,0.0,0.0,0.0,0.0,0.0,0.0,0.0,0.0,0.0,0.0,0.0,0.0,0.0,0.0,0.0,0.0,0.0,0.0,0.0,0.0,0.0,0.0,0.0,0.0,0.0,0.0,0.0,0.0,0.0,0.0,0.0,0.0,0.0,0.0,0.0,0.0,0.0,0.0,0.0,0.0,0.0,0.0,0.0,0.0,0.0,0.0,0.0,0.0,0.0,0.0,0.0,0.0,0.0,0.0,0.0,0.0,0.0,0.0,0.0,0.0,0.0,0.0,0.0,0.0,0.0,0.0,0.0,0.0,0.0,0.0,0.0,0.0,0.0,0.0,0.0,0.0,0.0,0.0,0.0,0.0,0.0,0.0,0.0,0.0,0.0,0.0,0.0,0.0,0.0,0.0,0.0,0.0,0.0,0.0,-1.4105,-1.3988,-1.3911,0.0,0.0,0.0,0.0,0.0,0.0,0.0,0.0,0.0,0.0,0.0,0.0,0.0,0.0,0.0,0.0,0.0,0.0,0.0,0.0,0.0,0.0,0.0,0.0,0.0,0.0,0.0,0.0,0.0,0.0,0.0,0.0,0.0,0.0,0.0,0.0,0.0,0.0,0.0,0.0,0.0,0.0,0.0,0.0,0.0,0.0,0.0,0.0,0.0,0.0,0.0,0.0,0.0,0.0,0.0,0.0,0.0,0.0,0.0,0.0,0.0,0.0,0.0,0.0,0.0,0.0,0.0,0.0,0.0,0.0,0.0,0.0,0.0,0.0,0.0,0.0,0.0,0.0,0.0,0.0,0.0,0.0,0.0,0.0,0.0,0.0,0.0,0.0,0.0,0.0,0.0,0.0,0.0,0.0,0.0,0.0,0.0,0.0,0.0,0.0,0.0,0.0,0.0,0.0,0.0,0.0,0.0,0.0,0.0,0.0,-1.4858,-1.4659,-1.46,0.0,-1.4213,0.0,0.0,0.0,0.0,0.0,0.0,0.0,0.0,0.0,0.0,0.0,0.0,0.0,0.0,0.0,0.0,0.0,0.0,0.0,0.0,0.0,0.0,0.0,0.0,0.0,0.0,0.0,0.0,0.0,0.0,0.0,0.0,0.0,0.0,0.0,0.0,0.0,0.0,0.0,0.0,0.0,0.0,0.0,0.0,0.0,0.0,0.0,0.0,0.0,0.0,0.0,0.0,0.0,0.0,0.0,0.0,0.0,0.0,0.0,0.0,0.0,0.0,0.0,0.0,0.0,0.0,0.0,0.0,0.0,0.0,0.0,0.0,0.0,0.0,0.0,0.0,0.0,0.0,0.0,0.0,0.0,0.0,0.0,0.0,0.0,0.0,0.0,0.0,0.0,0.0,0.0,0.0,0.0,0.0,0.0,0.0,0.0,0.0,0.0,0.0,0.0,0.0,0.0,0.0,0.0,0.0,0.0,0.0,0.0,0.0,-1.5114,-1.5175,-1.5113,-1.4976,0.0,0.0,0.0,0.0,0.0,0.0,0.0,0.0,0.0,0.0,0.0,0.0,0.0,0.0,0.0,0.0,0.0,0.0,0.0,0.0,0.0,0.0,0.0,0.0,0.0,0.0,0.0,0.0,0.0,0.0,0.0,0.0,0.0,0.0,0.0,0.0,0.0,0.0,0.0,0.0,0.0,0.0,0.0,0.0,0.0,0.0,0.0,0.0,0.0,0.0,0.0,0.0,0.0,0.0,0.0,0.0,0.0,0.0,0.0,0.0,0.0,0.0,0.0,0.0,0.0,0.0,0.0,0.0,0.0,0.0,0.0,0.0,0.0,0.0,0.0,0.0,0.0,0.0,0.0,0.0,0.0,0.0,0.0,0.0,0.0,0.0,0.0,0.0,0.0,0.0,0.0,0.0,0.0,0.0,0.0,0.0,0.0,0.0,0.0,0.0,0.0,0.0,0.0,0.0,0.0,0.0,0.0,0.0,0.0,0.0,-1.5322,-1.5356,-1.5581,-1.5631,-1.5516,-1.5233,0.0,0.0,0.0,0.0,0.0,0.0,0.0,0.0,0.0,0.0,0.0,0.0,0.0,0.0,0.0,0.0,0.0,0.0,0.0,0.0,0.0,0.0,0.0,0.0,0.0,0.0,0.0,0.0,0.0,0.0,0.0,0.0,0.0,0.0,0.0,0.0,0.0,0.0,0.0,0.0,0.0,0.0,0.0,0.0,0.0,0.0,0.0,0.0,0.0,0.0,0.0,0.0,0.0,0.0,0.0,0.0,0.0,0.0,0.0,0.0,0.0,0.0,0.0,0.0,0.0,0.0,0.0,0.0,0.0,0.0,0.0,0.0,0.0,0.0,0.0,0.0,0.0,0.0,0.0,0.0,0.0,0.0,0.0,0.0,0.0,0.0,0.0,0.0,0.0,0.0,0.0,0.0,0.0,0.0,0.0,0.0,0.0,0.0,0.0,0.0,0.0,0.0,0.0,0.0,0.0,0.0,0.0,0.0,-1.5784,-1.5784,-1.5784,-1.5784,-1.6008,-1.606,0.0,0.0,0.0,0.0,0.0,0.0,0.0,0.0,0.0,0.0,0.0,0.0,0.0,0.0,0.0,0.0,0.0,0.0,0.0,0.0,0.0,0.0,0.0,0.0,0.0,0.0,0.0,0.0,0.0,0.0,0.0,0.0,0.0,0.0,0.0,0.0,0.0,0.0,0.0,0.0,0.0,0.0,0.0,0.0,0.0,0.0,0.0,0.0,0.0,0.0,0.0,0.0,0.0,0.0,0.0,0.0,0.0,0.0,0.0,0.0,0.0,0.0,0.0,0.0,0.0,0.0,0.0,0.0,0.0,0.0,0.0,0.0,0.0,0.0,0.0,0.0,0.0,0.0,0.0,0.0,0.0,0.0,0.0,0.0,0.0,0.0,0.0,0.0,0.0,0.0,0.0,0.0,0.0,0.0,0.0,0.0,0.0,0.0,0.0,0.0,0.0,0.0,0.0,0.0,0.0,0.0,0.0,0.0,0.0,-1.6069,-1.6211,-1.6305,-1.6353,-1.64,-1.6308,0.0,0.0,0.0,0.0,0.0,0.0,0.0,0.0,0.0,0.0,0.0,0.0,0.0,0.0,0.0,0.0,0.0,0.0,0.0,0.0,0.0,0.0,0.0,0.0,0.0,0.0,0.0,0.0,0.0,0.0,0.0,0.0,0.0,0.0,0.0,0.0,0.0,0.0,0.0,0.0,0.0,0.0,0.0,0.0,0.0,0.0,0.0,0.0,0.0,0.0,0.0,0.0,0.0,0.0,0.0,0.0,0.0,0.0,0.0,0.0,0.0,0.0,0.0,0.0,0.0,0.0,0.0,0.0,0.0,0.0,0.0,0.0,0.0,0.0,0.0,0.0,0.0,0.0,0.0,0.0,0.0,0.0,0.0,0.0,0.0,0.0,0.0,0.0,0.0,0.0,0.0,0.0,0.0,0.0,0.0,0.0,0.0,0.0,0.0,0.0,0.0,0.0,0.0,0.0,0.0,0.0,0.0,0.0,0.0,-1.6353,0.0,-1.6588,-1.6588,-1.6683,-1.6631,0.0,0.0,0.0,0.0,0.0,0.0,0.0,0.0,0.0,0.0,0.0,0.0,0.0,0.0,0.0,0.0,0.0,0.0,0.0,0.0,0.0,0.0,0.0,0.0,0.0,0.0,0.0,0.0,0.0,0.0,0.0,0.0,0.0,0.0,0.0,0.0,0.0,0.0,0.0,0.0,0.0,0.0,0.0,0.0,0.0,0.0,0.0,0.0,0.0,0.0,0.0,0.0,0.0,0.0,0.0,0.0,0.0,0.0,0.0,0.0,0.0,0.0,0.0,0.0,0.0,0.0,0.0,0.0,0.0,0.0,0.0,0.0,0.0,0.0,0.0,0.0,0.0,0.0,0.0,0.0,0.0,0.0,0.0,0.0,0.0,0.0,0.0,0.0,0.0,0.0,0.0,0.0,0.0,0.0,0.0,0.0,0.0,0.0,0.0,0.0,0.0,0.0,0.0,0.0,0.0,0.0,0.0,0.0,-1.6636,-1.6636,-1.665,-1.6725,-1.6636,-1.6899,-1.7041,0.0,0.0,0.0,0.0,0.0,0.0,0.0,0.0,0.0,0.0,0.0,0.0,0.0,0.0,0.0,0.0,0.0,0.0,0.0,0.0,0.0,0.0,0.0,0.0,0.0,0.0,0.0,0.0,0.0,0.0,0.0,0.0,0.0,0.0,0.0,0.0,0.0,0.0,0.0,0.0,0.0,0.0,0.0,0.0,0.0,0.0,0.0,0.0,0.0,0.0,0.0,0.0,0.0,0.0,0.0,0.0,0.0,0.0,0.0,0.0,0.0,0.0,0.0,0.0,0.0,0.0,0.0,0.0,0.0,0.0,0.0,0.0,0.0,0.0,0.0,0.0,0.0,0.0,0.0,0.0,0.0,0.0,0.0,0.0,0.0,0.0,0.0,0.0,0.0,0.0,0.0,0.0,0.0,0.0,0.0,0.0,0.0,0.0,0.0,0.0,0.0,0.0,0.0,0.0,0.0,0.0,0.0,0.0,0.0,-1.771,-1.793,-1.8041,-1.7978,-1.8058,-1.8,0.0,0.0,0.0,0.0,0.0,0.0,0.0,0.0,0.0,0.0,0.0,0.0,0.0,0.0,0.0,0.0,0.0,0.0,0.0,0.0,0.0,0.0,0.0,0.0,0.0,0.0,0.0,0.0,0.0,0.0,0.0,0.0,0.0,0.0,0.0,0.0,0.0,0.0,0.0,0.0,0.0,0.0,0.0,0.0,0.0,0.0,0.0,0.0,0.0,0.0,0.0,0.0,0.0,0.0,0.0,0.0,0.0,0.0,0.0,0.0,0.0,0.0,0.0,0.0,0.0,0.0,0.0,0.0,0.0,0.0,0.0,0.0,0.0,0.0,0.0,0.0,0.0,0.0,0.0,0.0,0.0,0.0,0.0,0.0,0.0,0.0,0.0,0.0,0.0,0.0,0.0,0.0,0.0,0.0,0.0,0.0,0.0,0.0,0.0,0.0,0.0,0.0,0.0,0.0,0.0,0.0,0.0,0.0,0.0,-1.9223,-1.9011,-1.8841,-1.8789,-1.8789,-1.8621,-1.8285,0.0,0.0,0.0,0.0,0.0,0.0,0.0,0.0,0.0,0.0,0.0,0.0,0.0,0.0,0.0,0.0,0.0,0.0,0.0,0.0,0.0,0.0,0.0,0.0,0.0,0.0,0.0,0.0,0.0,0.0,0.0,0.0,0.0,0.0,0.0,0.0,0.0,0.0,0.0,0.0,0.0,0.0,0.0,0.0,0.0,0.0,0.0,0.0,0.0,0.0,0.0,0.0,0.0,0.0,0.0,0.0,0.0,0.0,0.0,0.0,0.0,0.0,0.0,0.0,0.0,0.0,0.0,0.0,0.0,0.0,0.0,0.0,0.0,0.0,0.0,0.0,0.0,0.0,0.0,0.0,0.0,0.0,0.0,0.0,0.0,0.0,0.0,0.0,0.0,0.0,0.0,0.0,0.0,0.0,0.0,0.0,0.0,0.0,0.0,0.0,0.0,0.0,0.0,0.0,0.0,0.0,0.0,0.0,-2.1078,-1.9922,-1.9315,-1.9269,-1.9269,-1.9085,0.0,0.0,0.0,0.0,0.0,0.0,0.0,0.0,0.0,0.0,0.0,0.0,0.0,0.0,0.0,0.0,0.0,0.0,0.0,0.0,0.0,0.0,0.0,0.0,0.0,0.0,0.0,0.0,0.0,0.0,0.0,0.0,0.0,0.0,0.0,0.0,0.0,0.0,0.0,0.0,0.0,0.0,0.0,0.0,0.0,0.0,0.0,0.0,0.0,0.0,0.0,0.0,0.0,0.0,0.0,0.0,0.0,0.0,0.0,0.0,0.0,0.0,0.0,0.0,0.0,0.0,0.0,0.0,0.0,0.0,0.0,0.0,0.0,0.0,0.0,0.0,0.0,0.0,0.0,0.0,0.0,0.0,0.0,0.0,0.0,0.0,0.0,0.0,0.0,0.0,0.0,0.0,0.0,0.0,0.0,0.0,0.0,0.0,0.0,0.0,0.0,0.0,0.0,0.0,0.0,0.0,0.0,0.0,0.0,-2.1914,-2.1908,-2.1645,-2.1125,-2.1109,-2.0817,0.0,0.0,0.0,0.0,0.0,0.0,0.0,0.0,0.0,0.0,0.0,0.0,0.0,0.0,0.0,0.0,0.0,0.0,0.0,0.0,0.0,0.0,0.0,0.0,0.0,0.0,0.0,0.0,0.0,0.0,0.0,0.0,0.0,0.0,0.0,0.0,0.0,0.0,0.0,0.0,0.0,0.0,0.0,0.0,0.0,0.0,0.0,0.0,0.0,0.0,0.0,0.0,0.0,0.0,0.0,0.0,0.0,0.0,0.0,0.0,0.0,0.0,0.0,0.0,0.0,0.0,0.0,0.0,0.0,0.0,0.0,0.0,0.0,0.0,0.0,0.0,0.0,0.0,0.0,0.0,0.0,0.0,0.0,0.0,0.0,0.0,0.0,0.0,0.0,0.0,0.0,0.0,0.0,0.0,0.0,0.0,0.0,0.0,0.0,0.0,0.0,0.0,0.0,0.0,0.0,0.0,0.0,0.0,-2.213,-2.3375,-2.3611,-2.3671,-2.3458,-2.2515,-2.1759,0.0,0.0,0.0,0.0,0.0,0.0,0.0,0.0,0.0,0.0,0.0,0.0,0.0,0.0,0.0,0.0,0.0,0.0,0.0,0.0,0.0,0.0,0.0,0.0,0.0,0.0,0.0,0.0,0.0,0.0,0.0,0.0,0.0,0.0,0.0,0.0,0.0,0.0,0.0,0.0,0.0,0.0,0.0,0.0,0.0,0.0,0.0,0.0,0.0,0.0,0.0,0.0,0.0,0.0,0.0,0.0,0.0,0.0,0.0,0.0,0.0,0.0,0.0,0.0,0.0,0.0,0.0,0.0,0.0,0.0,0.0,0.0,0.0,0.0,0.0,0.0,0.0,0.0,0.0,0.0,0.0,0.0,0.0,0.0,0.0,0.0,0.0,0.0,0.0,0.0,0.0,0.0,0.0,0.0,0.0,0.0,0.0,0.0,0.0,0.0,0.0,0.0,0.0,0.0,0.0,0.0,0.0,0.0,-2.3308,-2.4944,-2.5048,-2.5343,-2.5659,-2.373,-2.2461,0.0,0.0,0.0,0.0,0.0,0.0,0.0,0.0,0.0,0.0,0.0,0.0,0.0,0.0,0.0,0.0,0.0,0.0,0.0,0.0,0.0,0.0,0.0,0.0,0.0,0.0,0.0,0.0,0.0,0.0,0.0,0.0,0.0,0.0,0.0,0.0,0.0,0.0,0.0,0.0,0.0,0.0,0.0,0.0,0.0,0.0,0.0,0.0,0.0,0.0,0.0,0.0,0.0,0.0,0.0,0.0,0.0,0.0,0.0,0.0,0.0,0.0,0.0,0.0,0.0,0.0,0.0,0.0,0.0,0.0,0.0,0.0,0.0,0.0,0.0,0.0,0.0,0.0,0.0,0.0,0.0,0.0,0.0,0.0,0.0,0.0,0.0,0.0,0.0,0.0,0.0,0.0,0.0,0.0,0.0,0.0,0.0,0.0,0.0,0.0,0.0,0.0,0.0,0.0,0.0,0.0,0.0,0.0,-2.4373,-2.5514,-2.6169,-2.6402,-2.6196,-2.5388,-2.4419,0.0,0.0,0.0,0.0,0.0,0.0,0.0,0.0,0.0,0.0,0.0,0.0,0.0,0.0,0.0,0.0,0.0,0.0,0.0,0.0,0.0,0.0,0.0,0.0,0.0,0.0,0.0,0.0,0.0,0.0,0.0,0.0,0.0,0.0,0.0,0.0,0.0,0.0,0.0,0.0,0.0,0.0,0.0,0.0,0.0,0.0,0.0,0.0,-1.9386,0.0,0.0,0.0,0.0,0.0,0.0,0.0,0.0,0.0,0.0,0.0,0.0,0.0,0.0,0.0,0.0,0.0,0.0,0.0,0.0,0.0,0.0,0.0,0.0,0.0,0.0,0.0,0.0,0.0,0.0,0.0,0.0,0.0,0.0,0.0,0.0,0.0,0.0,0.0,0.0,0.0,0.0,0.0,0.0,0.0,0.0,0.0,0.0,0.0,0.0,0.0,0.0,0.0,0.0,0.0,0.0,0.0,0.0,0.0,-2.5441,-2.6453,-2.7043,-2.7373,-2.7272,-2.6893,-2.5864,0.0,0.0,0.0,0.0,0.0,0.0,0.0,0.0,0.0,0.0,0.0,0.0,0.0,0.0,0.0,0.0,0.0,0.0,0.0,0.0,0.0,0.0,0.0,0.0,0.0,0.0,0.0,0.0,0.0,0.0,0.0,0.0,0.0,0.0,0.0,0.0,0.0,0.0,0.0,0.0,0.0,0.0,0.0,0.0,0.0,0.0,0.0,0.0,0.0,0.0,0.0,0.0,0.0,0.0,0.0,0.0,0.0,0.0,0.0,0.0,0.0,0.0,0.0,0.0,0.0,0.0,0.0,0.0,0.0,0.0,0.0,0.0,0.0,0.0,0.0,0.0,0.0,0.0,0.0,0.0,0.0,0.0,0.0,0.0,0.0,0.0,0.0,0.0,0.0,0.0,0.0,0.0,0.0,0.0,0.0,0.0,0.0,0.0,0.0,0.0,0.0,0.0,0.0,0.0,0.0,0.0,0.0,-2.545,-2.6363,-2.7365,-2.7817,-2.821,-2.8388,-2.7985,-2.6809,-2.4808,0.0,0.0,0.0,0.0,0.0,0.0,0.0,0.0,0.0,0.0,0.0,0.0,0.0,0.0,0.0,0.0,0.0,0.0,0.0,0.0,0.0,0.0,0.0,0.0,0.0,0.0,0.0,0.0,0.0,0.0,0.0,0.0,0.0,0.0,0.0,0.0,0.0,0.0,-2.0139,-2.0497,0.0,0.0,0.0,0.0,0.0,0.0,0.0,0.0,-2.0193,0.0,0.0,0.0,0.0,0.0,0.0,0.0,0.0,0.0,0.0,0.0,0.0,0.0,0.0,0.0,0.0,0.0,0.0,0.0,0.0,0.0,0.0,0.0,0.0,0.0,0.0,0.0,0.0,0.0,0.0,0.0,0.0,0.0,0.0,0.0,0.0,0.0,0.0,0.0,0.0,0.0,0.0,0.0,0.0,0.0,0.0,0.0,0.0,0.0,0.0,0.0,0.0,0.0,0.0,0.0,0.0,-2.4893,-2.6063,-2.6951,-2.7708,-2.844,-2.8659,-2.8407,-2.7985,-2.716,-2.5824,0.0,0.0,0.0,0.0,0.0,0.0,0.0,0.0,0.0,0.0,0.0,0.0,0.0,0.0,0.0,0.0,0.0,0.0,0.0,0.0,0.0,0.0,0.0,0.0,0.0,0.0,0.0,0.0,0.0,0.0,0.0,0.0,0.0,0.0,0.0,0.0,0.0,0.0,0.0,-2.147,-2.1506,0.0,0.0,0.0,0.0,0.0,0.0,0.0,0.0,-2.1485,0.0,0.0,0.0,0.0,0.0,0.0,0.0,0.0,0.0,0.0,0.0,0.0,0.0,0.0,0.0,0.0,0.0,0.0,0.0,0.0,0.0,0.0,0.0,0.0,0.0,0.0,0.0,0.0,0.0,0.0,0.0,0.0,0.0,0.0,0.0,0.0,0.0,0.0,0.0,0.0,0.0,0.0,0.0,0.0,0.0,0.0,0.0,0.0,0.0,0.0,0.0,0.0,0.0,0.0,0.0,-2.5552,-2.6701,-2.7559,-2.8095,-2.8682,-2.8883,-2.87,-2.8152,-2.7362,0.0,0.0,0.0,0.0,0.0,0.0,0.0,0.0,0.0,0.0,0.0,0.0,0.0,0.0,0.0,0.0,0.0,0.0,0.0,0.0,0.0,0.0,0.0,0.0,0.0,0.0,0.0,0.0,0.0,0.0,0.0,0.0,0.0,0.0,0.0,0.0,0.0,0.0,0.0,0.0,-2.182,-2.1983,-2.2205,0.0,0.0,0.0,0.0,0.0,0.0,-2.2087,-2.2087,0.0,0.0,0.0,0.0,0.0,0.0,0.0,0.0,0.0,0.0,0.0,0.0,0.0,0.0,0.0,0.0,0.0,0.0,0.0,0.0,0.0,0.0,0.0,0.0,0.0,0.0,0.0,0.0,0.0,0.0,0.0,0.0,0.0,0.0,0.0,0.0,0.0,0.0,0.0,0.0,0.0,0.0,0.0,0.0,0.0,0.0,0.0,0.0,0.0,0.0,0.0,0.0,0.0,0.0,0.0,-2.6149,-2.7252,-2.7967,-2.8388,-2.8773,-2.8957,-2.8865,-2.8208,-2.7361,0.0,0.0,0.0,0.0,0.0,0.0,0.0,0.0,0.0,0.0,0.0,0.0,0.0,0.0,0.0,0.0,0.0,0.0,0.0,0.0,0.0,0.0,0.0,0.0,0.0,0.0,0.0,0.0,0.0,0.0,0.0,0.0,0.0,0.0,0.0,0.0,0.0,0.0,0.0,0.0,0.0,-2.2457,-2.285,-2.2761,0.0,0.0,0.0,0.0,-2.2643,-2.2567,0.0,0.0,0.0,0.0,0.0,0.0,0.0,0.0,0.0,0.0,0.0,0.0,0.0,0.0,0.0,0.0,0.0,0.0,0.0,0.0,0.0,0.0,0.0,0.0,0.0,0.0,0.0,0.0,0.0,0.0,0.0,0.0,0.0,0.0,0.0,0.0,0.0,0.0,0.0,0.0,0.0,0.0,0.0,0.0,0.0,0.0,0.0,0.0,0.0,0.0,0.0,0.0,0.0,0.0,0.0,0.0,-2.6518,-2.7343,-2.7967,-2.8388,-2.8773,-2.8828,-2.848,-2.8003,-2.727,0.0,0.0,0.0,0.0,0.0,0.0,0.0,0.0,0.0,0.0,0.0,0.0,0.0,0.0,0.0,0.0,0.0,0.0,0.0,0.0,0.0,0.0,0.0,0.0,0.0,0.0,0.0,0.0,0.0,0.0,0.0,0.0,0.0,0.0,0.0,0.0,0.0,0.0,0.0,0.0,0.0,-2.3142,-2.3493,-2.3559,-2.354,0.0,0.0,-2.3586,-2.354,-2.3237,0.0,0.0,0.0,0.0,0.0,0.0,0.0,0.0,0.0,0.0,0.0,0.0,0.0,0.0,0.0,0.0,0.0,0.0,0.0,0.0,0.0,0.0,0.0,0.0,0.0,0.0,0.0,0.0,0.0,0.0,0.0,0.0,0.0,0.0,0.0,0.0,0.0,0.0,0.0,0.0,0.0,0.0,0.0,0.0,0.0,0.0,0.0,0.0,0.0,0.0,0.0,0.0,0.0,0.0,0.0,-2.5929,-2.6903,-2.7528,-2.8134,-2.87,-2.8883,-2.8792,-2.8407,-2.7985,-2.7252,0.0,0.0,0.0,0.0,0.0,0.0,0.0,0.0,0.0,0.0,0.0,0.0,0.0,0.0,0.0,0.0,0.0,0.0,0.0,0.0,0.0,0.0,0.0,0.0,0.0,0.0,0.0,0.0,0.0,0.0,0.0,0.0,0.0,0.0,0.0,0.0,0.0,0.0,0.0,0.0,0.0,0.0,-2.4211,-2.4151,0.0,0.0,0.0,-2.409,-2.409,0.0,0.0,0.0,0.0,0.0,0.0,0.0,0.0,0.0,0.0,0.0,0.0,0.0,0.0,0.0,0.0,0.0,0.0,0.0,0.0,0.0,0.0,0.0,0.0,0.0,0.0,0.0,0.0,0.0,0.0,0.0,0.0,0.0,0.0,0.0,0.0,0.0,0.0,0.0,0.0,0.0,0.0,0.0,0.0,0.0,0.0,0.0,0.0,0.0,0.0,0.0,0.0,0.0,0.0,0.0,0.0,0.0,-2.7567,-2.7901,-2.8457,-2.9176,-2.9213,-2.8972,-2.8473,-2.8159,0.0,0.0,0.0,0.0,0.0,0.0,0.0,0.0,0.0,0.0,0.0,0.0,0.0,0.0,0.0,0.0,0.0,0.0,0.0,0.0,0.0,0.0,0.0,0.0,0.0,0.0,0.0,-2.0097,0.0,0.0,0.0,0.0,0.0,0.0,0.0,0.0,0.0,0.0,0.0,0.0,0.0,0.0,-2.4512,-2.487,-2.48,-2.4863,0.0,0.0,-2.4699,-2.4699,-2.4648,-2.459,0.0,0.0,0.0,0.0,0.0,0.0,0.0,0.0,0.0,0.0,0.0,0.0,0.0,0.0,0.0,0.0,0.0,0.0,0.0,0.0,0.0,0.0,0.0,0.0,0.0,0.0,0.0,0.0,0.0,0.0,0.0,0.0,0.0,0.0,0.0,0.0,0.0,0.0,0.0,0.0,0.0,0.0,0.0,0.0,0.0,0.0,0.0,0.0,0.0,0.0,0.0,0.0,0.0,0.0,0.0,-2.8502,-2.8653,-2.9012,-2.9825,-2.9863,-2.9485,-2.8691,-2.8691,-2.803,0.0,0.0,0.0,0.0,0.0,0.0,0.0,0.0,0.0,0.0,0.0,0.0,0.0,0.0,0.0,0.0,0.0,0.0,0.0,0.0,0.0,0.0,0.0,0.0,0.0,0.0,0.0,0.0,0.0,0.0,0.0,0.0,0.0,0.0,0.0,0.0,0.0,0.0,0.0,0.0,0.0,-2.5195,-2.5596,-2.5615,-2.5615,0.0,0.0,-2.5596,-2.5596,-2.5293,-2.5067,-2.5067,0.0,0.0,0.0,0.0,0.0,0.0,0.0,0.0,0.0,0.0,0.0,0.0,0.0,0.0,0.0,0.0,0.0,0.0,0.0,0.0,0.0,0.0,0.0,0.0,0.0,0.0,0.0,0.0,0.0,0.0,0.0,0.0,0.0,0.0,0.0,0.0,0.0,0.0,0.0,0.0,0.0,0.0,0.0,0.0,0.0,0.0,0.0,0.0,0.0,0.0,0.0,0.0,0.0,-2.7163,-2.869,-2.8672,-2.9089,-2.9884,-2.9922,-2.9524,-2.8691,-2.8672,-2.8085,0.0,0.0,0.0,0.0,0.0,0.0,0.0,0.0,0.0,0.0,0.0,0.0,0.0,0.0,0.0,0.0,0.0,0.0,0.0,0.0,0.0,0.0,0.0,0.0,0.0,0.0,0.0,0.0,-2.1641,-2.1816,-2.2227,0.0,0.0,0.0,0.0,0.0,0.0,0.0,0.0,0.0,0.0,-2.5644,-2.6074,-2.6133,0.0,0.0,-2.6309,-2.6133,-2.6152,-2.5762,-2.5469,-2.5488,-2.5117,0.0,0.0,0.0,0.0,0.0,0.0,0.0,0.0,0.0,0.0,0.0,0.0,0.0,0.0,0.0,0.0,0.0,0.0,0.0,0.0,0.0,0.0,0.0,0.0,0.0,0.0,0.0,0.0,0.0,0.0,0.0,0.0,0.0,0.0,0.0,0.0,0.0,0.0,0.0,0.0,0.0,0.0,0.0,0.0,0.0,0.0,0.0,0.0,0.0,0.0,0.0,0.0,-2.7584,-2.8991,-2.8954,-2.9355,-3.0138,-3.0235,-2.9872,-2.9164,-2.9011,-2.8475,0.0,0.0,0.0,0.0,0.0,0.0,0.0,0.0,0.0,0.0,0.0,0.0,0.0,0.0,0.0,0.0,0.0,0.0,0.0,0.0,0.0,0.0,0.0,0.0,0.0,0.0,0.0,0.0,-2.2187,-2.2383,-2.2676,0.0,0.0,0.0,0.0,0.0,0.0,0.0,0.0,0.0,0.0,-2.6035,-2.6348,-2.6504,-2.668,-2.6973,-2.6758,-2.6543,-2.6406,-2.6133,-2.583,-2.5713,0.0,0.0,0.0,0.0,0.0,0.0,0.0,0.0,0.0,0.0,0.0,0.0,0.0,0.0,0.0,0.0,0.0,0.0,0.0,0.0,0.0,0.0,0.0,0.0,0.0,0.0,0.0,0.0,0.0,0.0,-2.6487,0.0,0.0,0.0,0.0,0.0,0.0,0.0,0.0,0.0,0.0,0.0,0.0,0.0,0.0,0.0,0.0,0.0,0.0,0.0,0.0,0.0,0.0,-2.8033,-2.9551,-2.959,-3.0019,-3.0859,-3.0879,-3.0664,-3.0119,-2.9785,-2.9355,-2.8793,0.0,0.0,0.0,0.0,0.0,0.0,0.0,0.0,0.0,0.0,0.0,0.0,0.0,0.0,0.0,0.0,0.0,0.0,0.0,0.0,0.0,0.0,0.0,0.0,0.0,0.0,-2.2461,-2.2828,-2.3105,0.0,0.0,0.0,0.0,0.0,0.0,0.0,0.0,0.0,0.0,-2.5869,-2.6367,-2.6406,-2.6738,-2.7012,-2.7031,-2.7012,-2.6875,-2.6465,-2.6387,-2.623,0.0,0.0,0.0,0.0,0.0,0.0,0.0,0.0,0.0,0.0,0.0,0.0,0.0,0.0,0.0,0.0,0.0,0.0,0.0,0.0,0.0,0.0,0.0,0.0,0.0,0.0,0.0,-2.7622,-2.7622,0.0,0.0,0.0,0.0,0.0,0.0,0.0,0.0,0.0,0.0,0.0,-2.7875,-2.8237,0.0,0.0,0.0,0.0,0.0,0.0,0.0,0.0,0.0,0.0,0.0,0.0,-2.8793,-2.9551,-2.9844,-3.0273,-3.0879,-3.0898,-3.0664,-3.0195,-2.9785,-2.9101,-2.8105,0.0,0.0,0.0,0.0,0.0,0.0,0.0,0.0,0.0,0.0,0.0,0.0,0.0,0.0,0.0,0.0,0.0,0.0,0.0,0.0,0.0,0.0,0.0,0.0,0.0,-2.3074,0.0,0.0,0.0,0.0,0.0,0.0,0.0,0.0,0.0,0.0,0.0,-2.5293,-2.5879,-2.6191,-2.6652,-2.7148,-2.7415,-2.7539,0.0,0.0,0.0,0.0,0.0,0.0,0.0,0.0,0.0,0.0,0.0,0.0,0.0,0.0,-2.5011,-2.4336,-2.4199,-2.416,-2.3978,0.0,0.0,0.0,0.0,0.0,0.0,0.0,0.0,0.0,0.0,0.0,0.0,0.0,0.0,-2.9425,0.0,-2.9322,0.0,0.0,0.0,0.0,0.0,0.0,0.0,0.0,-2.9262,-2.9384,-2.9404,-2.9634,-2.9702,0.0,-2.9379,-2.8939,0.0,0.0,0.0,0.0,0.0,0.0,0.0,0.0,-2.9199,-2.9766,-3.0059,-3.043,-3.0859,-3.0898,-3.0742,-3.0449,-2.9883,-2.8965,-2.7767,-2.7383,-2.6973,0.0,0.0,0.0,0.0,0.0,0.0,0.0,0.0,0.0,0.0,0.0,0.0,0.0,0.0,0.0,0.0,0.0,0.0,0.0,0.0,0.0,0.0,0.0,-2.4127,0.0,0.0,0.0,0.0,0.0,0.0,0.0,0.0,0.0,-2.5409,-2.5619,-2.6014,-2.6606,-2.6892,-2.7184,-2.7786,0.0,0.0,0.0,0.0,0.0,0.0,0.0,-2.6777,-2.6621,-2.628,-2.6045,-2.5985,-2.5965,-2.5965,-2.5985,0.0,0.0,-2.4832,-2.4648,-2.4609,-2.4434,-2.4414,-2.4414,-2.4414,-2.4414,-2.4414,0.0,0.0,0.0,0.0,0.0,0.0,0.0,0.0,-3.2286,-3.2264,0.0,-3.1876,0.0,0.0,0.0,0.0,0.0,-3.0348,0.0,0.0,-3.097,-3.1031,-3.1011,-3.1066,-3.0846,-3.0535,-3.0515,-3.0495,-3.0399,-2.9055,0.0,0.0,0.0,0.0,0.0,0.0,-2.9355,-3.0156,-3.0215,-3.043,-3.0879,-3.0898,-3.0879,-3.0801,-3.0019,-2.8965,-2.7826,-2.7676,-2.7317,-2.6445,-2.6406,0.0,0.0,0.0,0.0,0.0,0.0,0.0,0.0,0.0,0.0,0.0,0.0,0.0,0.0,0.0,0.0,0.0,0.0,0.0,0.0,-2.5234,0.0,0.0,0.0,0.0,0.0,0.0,0.0,0.0,0.0,0.0,-2.5993,-2.6637,-2.718,-2.7221,0.0,0.0,0.0,0.0,-2.8335,-2.8301,-2.8281,-2.8198,-2.7806,-2.7728,-2.7571,-2.7141,0.0,0.0,-2.6549,-2.6516,-2.6516,-2.6496,-2.6448,-2.6212,-2.5318,-2.5173,-2.5055,-2.4636,-2.4558,-2.4473,-2.4473,-2.4597,-2.4578,-3.586,0.0,0.0,0.0,0.0,-3.3266,-3.3343,-3.3245,-3.2925,-3.2797,-3.2776,-3.2326,0.0,0.0,0.0,0.0,0.0,0.0,-3.1852,-3.1906,-3.1906,-3.1906,-3.1906,-3.1906,-3.1743,-3.1394,-3.123,-3.1011,-3.077,-3.0163,-2.9769,-2.9494,0.0,0.0,0.0,0.0,-2.9961,-3.0195,-3.0527,-3.0762,-3.0879,-3.0898,-3.0586,-3.0017,-2.9707,-2.9121,-2.8144,-2.7832,-2.7454,-2.6855,-2.6543,0.0,0.0,0.0,0.0,0.0,0.0,0.0,0.0,0.0,0.0,0.0,0.0,0.0,0.0,0.0,0.0,0.0,0.0,0.0,-2.5462,-2.5624,-2.5694,0.0,0.0,0.0,0.0,0.0,0.0,0.0,0.0,0.0,-2.7762,-2.7427,-2.7402,0.0,0.0,-2.8485,-2.8785,-2.884,-2.8814,-2.8621,-2.8568,0.0,-2.841,-2.8167,-2.8034,-2.805,-2.7772,-2.7432,-2.706,-2.7028,-2.6878,-2.6557,-2.6496,-2.6408,-2.6144,-2.6104,-2.6064,-2.5944,-2.5877,-2.5877,-2.5924,-2.5877,-2.5809,-3.8653,-3.7013,-3.6031,-3.5337,-3.4927,-3.4927,-3.4798,-3.4604,-3.4345,-3.4181,-3.4159,-3.3858,-3.3785,-3.3729,-3.3617,0.0,0.0,0.0,-3.345,-3.3561,-3.3561,-3.3561,-3.3561,-3.3561,-3.3394,-3.3092,-3.2644,-3.2315,-3.207,-3.1513,-3.1095,-3.087,0.0,0.0,-2.988,-3.0059,-3.0273,-3.0469,-3.0742,-3.0898,-3.0898,-3.0898,-3.0547,-2.9844,-2.9668,-2.9238,-2.8574,-2.8144,-2.7715,-2.7285,-2.7031,-2.6671,0.0,0.0,0.0,0.0,0.0,0.0,0.0,0.0,0.0,0.0,0.0,-2.604,-2.5872,0.0,0.0,0.0,-2.6038,-2.6084,-2.627,-2.6388,0.0,0.0,0.0,0.0,0.0,0.0,0.0,-2.8152,-2.8193,-2.838,-2.8814,-2.8419,-2.8238,-2.8768,-2.8888,-2.8987,-2.925,0.0,-2.9026,-2.8867,-2.8887,-2.8887,-2.8887,-2.8648,-2.8513,-2.8612,-2.8441,-2.8117,-2.7557,-2.7505,-2.7342,-2.6954,-2.6832,-2.6832,-2.6832,-2.6832,-2.6736,-2.6544,-2.6496,-2.6496,-2.6496,-2.6496,-2.6448,-4.1223,-4.0621,-3.864,-3.7517,-3.6931,-3.6931,-3.6669,-3.6253,-3.6209,-3.6187,-3.6144,-3.6042,-3.5998,-3.5954,-3.5663,0.0,-3.4575,-3.4944,-3.5291,-3.5546,-3.5546,-3.5546,-3.5546,-3.5525,-3.5371,-3.5136,-3.4397,-3.4012,-3.3875,-3.2959,-3.2486,-3.233,-3.097,-3.028,-3.0291,-3.0311,-3.0469,-3.0879,-3.0898,-3.0898,-3.0898,-3.0898,-3.0664,-3.0215,-2.9785,-2.9355,-2.8926,-2.8516,-2.8158,-2.7748,-2.7708,-2.7491,-2.6933,0.0,0.0,0.0,0.0,0.0,0.0,0.0,0.0,0.0,0.0,0.0,0.0,0.0,0.0,0.0,-2.7309,0.0,-2.7309,-2.7309,0.0,0.0,0.0,-2.7537,-2.7924,-2.7937,-2.8152,-2.8628,0.0,0.0,-2.929,-2.9352,-2.9352,-2.9352,-2.9497,-2.9606,-2.9606,-2.9396,-2.9185,-2.9132,-2.9132,-2.9132,-2.9132,-2.9164,-2.9128,-2.9012,-2.8962,-2.8737,-2.8136,-2.7958,-2.7821,-2.7345,-2.7309,-2.7309,-2.7309,-2.7262,-2.7167,-2.6688,-2.6592,-2.6592,-2.6592,-2.6592,-2.6592,-4.2609,-4.2234,-4.1745,-4.0609,-3.916,-3.916,-3.8948,-3.8547,-3.8172,-3.7616,-3.7025,-3.6675,-3.6326,-3.6012,-3.5896,-3.5773,-3.5627,-3.5736,-3.5838,-3.586,-3.5918,-3.586,-3.5896,-3.5896,-3.5721,-3.5408,-3.5183,-3.4848,-3.4438,-3.4156,-3.38,-3.3328,-3.2926,-3.2131,-3.107,-3.105,-3.0994,-3.0898,-3.0898,-3.0898,-3.0898,-3.0898,-3.0684,-3.0215,-2.9785,-2.9355,-2.8926,-2.8516,-2.8192,-2.7989,-2.8021,-2.7918,-2.7653,-2.7633,0.0,0.0,0.0,0.0,0.0,0.0,0.0,0.0,0.0,-2.7119,-2.7214,0.0,-2.7214,0.0,-2.7309,-2.7309,-2.7309,-2.7309,0.0,0.0,-2.7759,-2.7945,-2.84,-2.8462,-2.8628,-2.9083,-2.9145,-2.9311,-2.9766,-2.9829,-2.9829,-2.9829,-2.9859,-2.9889,-2.9889,-2.9837,-2.9732,-2.9501,-2.9501,-2.9501,-2.9501,-2.9659,-2.9743,-2.9745,-2.9724,-2.9415,-2.8557,-2.8462,-2.8193,-2.7496,-2.7309,-2.7309,-2.7309,-2.7309,-2.7262,-2.7119,-2.7119,-2.7119,-2.7119,-2.7119,-2.7071,-4.3982,-4.3554,-4.3327,-4.2603,-4.1561,-4.0815,-4.0177,-3.9588,-3.9299,-3.8886,-3.852,-3.8072,-3.7687,-3.7243,-3.7003,-3.6915,-3.6894,-3.6697,-3.6588,-3.6588,-3.6588,-3.6647,-3.6588,-3.6647,-3.6529,-3.6351,-3.5957,-3.5634,-3.5316,-3.4829,-3.4428,-3.4013,-3.3893,-3.333,-3.2332,-3.2037,-3.1801,-3.1465,-3.1269,-3.1172,-3.1172,-3.0976,-3.0762,-3.0508,-2.9902,-2.9509,-2.9384,-2.8795,-2.8502,-2.8528,-2.856,-2.8465,-2.837,-2.835,-2.83,0.0,0.0,0.0,0.0,0.0,0.0,0.0,0.0,0.0,0.0,0.0,-2.7552,-2.7552,-2.7696,-2.7875,-2.8036,-2.8202,-2.8355,-2.8558,-2.8628,-2.8767,-2.9228,-2.927,-2.9459,-2.992,-2.9859,-2.9912,-3.0162,-3.0047,-2.9994,-2.9994,-2.9994,-2.9994,-2.9994,-2.9994,-2.9942,-2.9816,-2.9784,-2.9764,-2.9784,-2.9889,-2.9994,-2.9973,-2.9808,-2.9435,-2.8752,-2.8442,-2.8069,-2.7475,-2.7309,-2.7309,-2.7309,-2.7309,-2.7309,-2.7309,-2.7309,-2.7309,-2.7309,-2.7309,-2.7262,-4.5209,-4.475,-4.4222,-4.3969,-4.3765,-4.2334,-4.1152,-4.0275,-4.0275,-4.0145,-4.0011,-3.9632,-3.9214,-3.8879,-3.8463,-3.8266,-3.8182,-3.7745,-3.7527,-3.7483,-3.7483,-3.744,-3.7374,-3.7374,-3.7374,-3.7352,-3.666,-3.6285,-3.6285,-3.5282,-3.4795,-3.4736,-3.4417,-3.4118,-3.3758,-3.3236,-3.2711,-3.2229,-3.1738,-3.1523,-3.1504,-3.1113,-3.0898,-3.0918,-3.0135,-2.9852,-3.0016,-2.9243,-2.8947,-2.9132,-2.9185,-2.9128,-2.9023,-2.9054,-2.8973,0.0,-2.8794,0.0,0.0,0.0,0.0,0.0,0.0,0.0,0.0,-2.8007,-2.8007,-2.8007,-2.83,-2.8614,-2.9013,-2.9324,-2.9515,-2.9579,-2.9579,-2.9771,-3.0147,-3.016,-3.0381,-3.0785,-3.0568,-3.0391,-3.0391,-3.0203,-2.9994,-2.9994,-2.9994,-2.9994,-2.9994,-2.9994,-2.9994,-2.9994,-2.9994,-2.9942,-2.9994,-2.9994,-2.9973,-2.987,-2.9601,-2.9125,-2.8587,-2.8193,-2.7779,-2.7434,-2.7309,-2.7309,-2.7309,-2.7309,-2.7309,-2.7309,-2.7309,-2.7309,-2.7309,-2.7309,-2.7309,-4.5921,-4.5783,-4.5278,-4.4819,-4.4428,-4.4112,-4.3274,-4.2104,-4.2104,-4.1437,-4.0482,-4.0016,-3.9588,-3.9276,-3.9188,-3.8957,-3.8707,-3.8597,-3.8335,-3.7964,-3.7964,-3.7745,-3.7396,-3.7374,-3.7374,-3.7374,-3.7226,-3.7023,-3.6781,-3.6271,-3.5903,-3.5659,-3.5353,-3.4985,-3.4677,0.0,0.0,0.0,-3.1738,-3.1523,-3.1504,-3.1113,-3.0995,-3.1208,-3.0715,0.0,-3.0424,-2.9848,-2.9568,-2.9542,-2.9501,0.0,0.0,0.0,0.0,0.0,0.0,0.0,0.0,0.0,0.0,0.0,-2.9725,-2.9373,-2.8566,-2.8483,-2.8582,-2.876,-2.8859,-2.9,-2.9374,-2.9444,-2.9643,-2.9955,-2.9998,-3.0189,-3.0636,-3.07,-3.0691,-3.0754,-3.0568,-3.0391,-3.0391,-3.0151,-2.9994,-2.9994,-2.9994,-2.9994,-2.9994,-2.9994,-2.9994,-2.9994,-2.9994,-2.9994,-2.9994,-2.9994,-2.9829,-2.9539,-2.9394,-2.898,-2.8206,-2.8007,-2.7759,-2.7392,-2.7309,-2.7309,-2.7309,-2.7309,-2.7309,-2.7309,-2.7309,-2.7309,-2.7309,-2.7309,-2.7309,-4.6586,0.0,-4.5852,-4.5438,0.0,-4.4979,-4.4476,-4.3568,-4.3294,-4.2574,-4.1527,-4.1031,-4.068,-4.03,-3.9929,-3.9652,-3.944,-3.901,-3.8644,-3.8466,-3.8226,-3.7964,-3.7724,-3.7505,-3.7374,-3.7374,-3.7374,-3.7335,-3.7154,-3.6789,-3.6484,-3.6156,-3.5809,-3.5479,-3.517,-3.4984,-3.4388,-3.3287,-3.2851,-3.2534,-3.2296,-3.188,-3.1621,-3.1556,-3.1137,0.0,0.0,0.0,0.0,0.0,0.0,0.0,0.0,0.0,0.0,-2.9994,-2.9994,-2.9994,-2.9994,-2.9994,-2.9994,-2.9994,-2.9994,-2.9704,-2.9001,-2.8731,-2.8811,-2.927,-2.9442,-2.9748,-3.0285,-3.0457,-3.0615,-3.0831,-3.0874,-3.0909,-3.1124,-3.1167,-3.1167,-3.1167,-3.0961,-3.0754,-3.0599,-3.0339,-3.0151,-2.9994,-2.9994,-2.9994,-2.9994,-2.9994,-2.9994,-2.9994,-2.9994,-2.9994,-2.9973,-2.9766,-2.9601,-2.9332,-2.8918,-2.8462,-2.8007,-2.7738,-2.751,-2.7351,-2.7309,-2.7309,-2.7309,-2.7309,-2.7309,-2.7309,-2.7309,-2.7309,-2.7309,-2.7309,-2.7309,-4.7092,-4.6242,-4.615,-4.5829,-4.5438,-4.5438,-4.5117,-4.4681,0.0,0.0,0.0,-4.2252,-4.1768,-4.1335,-4.0634,-4.0265,-4.0157,-3.9401,-3.9034,-3.8947,-3.8532,-3.827,-3.8095,-3.7702,-3.7461,-3.7374,-3.7374,-3.7374,-3.7374,-3.7032,-3.6728,-3.6361,-3.6034,-3.5726,-3.5418,-3.5108,-3.4859,-3.459,-3.4062,-3.3558,-3.3115,-3.2673,-3.2309,-3.1923,-3.1482,-3.143,-3.161,-3.097,-3.0607,-3.0677,-3.0325,-3.0077,-2.9994,-2.9994,-2.9994,-2.9994,-2.9994,-2.9994,-2.9994,-2.9994,-2.9994,-2.9994,-2.9994,-2.9829,-2.9456,-2.9083,-2.9173,-2.9833,-3.0079,-3.0504,-3.1197,-3.1476,-3.1578,-3.1578,-3.1578,-3.1556,-3.1578,-3.1578,-3.1578,-3.1578,-3.1322,-3.1086,-3.0827,-3.0547,-3.0308,-3.0047,-2.9994,-2.9994,-2.9994,-2.9994,-2.9994,-2.9994,-2.9994,-2.9973,-2.9829,-2.958,-2.927,-2.9001,-2.84,-2.7924,-2.7779,-2.751,-2.7351,-2.733,-2.7309,-2.7262,-2.7262,-2.7214,-2.7214,-2.7214,-2.7214,-2.7262,-2.7309,-2.7309,-2.7309,-4.7298,-4.6724,-4.6311,-4.5829,-4.5438,-4.5438,-4.5392,-4.5163,-4.4222,-4.3533,-4.3009,-4.294,-4.2472,-4.1742,-4.129,-4.0946,-4.0666,-4.0299,-3.9864,-3.9513,-3.9447,-3.8903,-3.8117,-3.8029,-3.7789,-3.7396,-3.7374,-3.7374,-3.7374,-3.7032,-3.6728,-3.6423,-3.6055,-3.5726,-3.5418,-3.5356,-3.5294,-3.5232,-3.4309,-3.3558,-3.3115,-3.2693,-3.2426,-3.2231,-3.2129,-3.2076,-3.1932,-3.1787,-3.143,-3.0739,-3.0615,-3.0408,-3.0036,-3.0015,-2.9994,-2.9994,-2.9994,-2.9994,-2.9994,-2.9994,-2.9994,-2.9994,-2.9994,-2.9973,-2.9911,-2.9849,-3.0037,-3.0566,-3.0648,-3.0949,-3.1476,-3.1578,-3.1578,-3.1578,-3.1578,-3.1578,-3.1578,-3.1578,-3.1578,-3.1578,-3.1373,-3.1064,-3.0827,-3.0568,-3.0287,-3.0099,-2.9994,-2.9994,-2.9994,-2.9994,-2.9994,-2.9994,-2.9994,-2.9829,-2.958,-2.9373,-2.9001,-2.8185,-2.8048,-2.7759,-2.7469,-2.7392,-2.7309,-2.7309,-2.7309,-2.7214,-2.7044,-2.6948,-2.6948,-2.6948,-2.6948,-2.7044,-2.7214,-2.7309,-2.7309,-4.7597,-4.6885,-4.6632,-4.6081,-4.5438,-4.5438,-4.5438,-4.5392,-4.4864,-4.4382,-4.3877,-4.3349,-4.2894,-4.2472,-4.1878,-4.1357,-4.1035,-4.0712,-4.0343,-3.9994,-3.9732,-3.9382,-3.8859,-3.8357,-3.7986,-3.7767,-3.7483,-3.7374,-3.7374,-3.7253,-3.6972,-3.6667,-3.6178,-3.5726,-3.5418,-3.5418,-3.5418,-3.5356,-3.4903,-3.4473,-3.4023,-3.3573,-3.3182,-3.2905,-3.2621,-3.2452,-3.2359,-3.2112,-3.1802,-3.1443,-3.1195,-3.0843,-3.0408,-3.0367,-3.0263,-3.0015,-2.9994,-2.9994,-2.9994,-2.9994,-2.9994,-2.9994,-2.9994,-2.9994,-2.9994,-3.0151,-3.036,-3.0776,-3.0931,-3.1167,-3.1578,-3.1578,-3.1578,-3.1578,-3.1578,-3.1578,-3.1578,-3.1578,-3.1578,-3.1578,-3.1373,-3.1116,-3.0827,-3.0568,-3.0287,-3.0047,-2.9994,-2.9994,-2.9994,-2.9994,-2.9994,-2.9994,-2.9994,-2.9932,-2.9684,-2.9208,-2.8794,-2.8338,-2.7883,-2.7531,-2.733,-2.7309,-2.7309,-2.7309,-2.7214,-2.7023,-2.69,-2.6805,-2.6709,-2.6688,-2.6805,-2.6948,-2.7092,-2.7167,-2.7309,-4.7803,-4.6955,-4.6932,-4.6357,-4.5461,-4.5438,-4.5438,-4.5438,-4.5415,-4.514,-4.4658,-4.3693,-4.3188,-4.3051,-4.2161,-4.1678,-4.1357,-4.0971,-4.0647,-4.0366,-3.9951,-3.9732,-3.9535,-3.8663,-3.8226,-3.8073,-3.7614,-3.7374,-3.7374,-3.7374,-3.7214,-3.6789,-3.6178,-3.5747,-3.5418,-3.5418,-3.5418,-3.5418,-3.5418,-3.5211,-3.4816,-3.4463,-3.4007,-3.3389,-3.3058,-3.283,-3.2669,-3.2318,-3.2091,-3.1988,-3.1712,-3.1319,-3.0884,-3.0843,-3.0677,-3.0346,-3.0305,-3.0305,-3.0305,-3.0305,-3.0305,-3.0305,-3.0201,-3.0139,-3.0192,-3.0297,-3.0495,-3.0776,-3.1034,-3.1322,-3.1527,-3.1578,-3.1578,-3.1578,-3.1578,-3.1578,-3.1578,-3.1578,-3.1578,-3.1578,-3.1373,-3.1064,-3.0827,-3.0547,-3.0287,-3.0047,-2.9994,-2.9994,-2.9994,-2.9994,-2.9994,-2.9994,-2.9994,-2.9911,-2.9829,-2.929,-2.8752,-2.8545,-2.7903,-2.7489,-2.7372,-2.7309,-2.7309,-2.7309,-2.7092,-2.69,-2.6805,-2.6592,-2.6448,-2.6448,-2.6592,-2.6853,-2.7044,-2.7167,-2.7309,-4.7803,-4.6931,-4.6932,-4.6288,-4.5461,-4.5438,-4.5438,-4.5438,-4.5438,-4.5415,-4.5163,-4.4199,-4.3487,-4.2986,-4.2225,-4.1806,-4.1678,-4.1077,-4.0777,-4.0712,-4.0431,-4.0038,-3.9622,-3.9012,-3.8532,-3.8117,-3.7614,-3.7374,-3.7374,-3.7374,-3.7093,-3.6484,-3.6095,-3.5747,-3.5418,-3.5418,-3.5418,-3.5418,-3.5418,-3.5211,-3.4857,-3.4774,-3.4279,-3.341,-3.3348,-3.3141,-3.2711,-3.2628,-3.2478,-3.2029,-3.1967,-3.1774,-3.1381,-3.1374,-3.1298,-3.1236,-3.1236,-3.1257,-3.1236,-3.1257,-3.1215,-3.1215,-3.0843,-3.0615,-3.0669,-3.0506,-3.0516,-3.0818,-3.1056,-3.1365,-3.1578,-3.1622,-3.1717,-3.176,-3.1665,-3.1578,-3.16,-3.1578,-3.1578,-3.1578,-3.1322,-3.1116,-3.0827,-3.0568,-3.0287,-3.0047,-2.9994,-2.9994,-2.9994,-2.9994,-2.9994,-2.9994,-2.9994,-2.9829,-2.9539,-2.9332,-2.8918,-2.8255,-2.7945,-2.7696,-2.7448,-2.7351,-2.7309,-2.7262,-2.7071,-2.6853,-2.6592,-2.6352,-2.6159,-2.6207,-2.64,-2.6688,-2.7119,-2.7262,-2.7309,-4.7803,-4.6955,-4.6932,-4.6288,-4.5484,-4.5438,-4.5438,-4.5438,-4.5438,-4.5438,-4.53,-4.4267,-4.3693,-4.3464,-4.2491,-4.1998,-4.1806,-4.155,-4.1164,-4.0841,-4.0647,-4.0408,-3.9994,-3.9187,-3.8707,-3.8466,-3.7745,-3.7374,-3.7374,-3.7374,-3.7132,-3.6728,-3.6545,-3.6239,-3.5726,-3.5665,-3.5603,-3.5418,-3.5418,-3.5335,-3.5148,-3.49,-3.4629,-3.4256,-3.3679,-3.3306,-3.312,-3.2871,-3.2587,-3.2401,-3.2401,-3.225,-3.1795,-3.1774,-3.165,-3.1422,-3.1381,-3.1381,-3.1381,-3.1381,-3.1381,-3.1381,-3.1195,-3.1091,-3.1146,-3.1174,-3.1337,-3.1561,-3.1644,-3.1841,-3.2363,-3.2481,-3.2459,-3.2481,-3.2481,-3.2372,-3.211,-3.2066,-3.1927,-3.1438,-3.1116,-3.0879,-3.062,-3.0339,-3.0151,-2.9994,-2.9994,-2.9994,-2.9994,-2.9994,-2.9994,-2.9994,-2.9994,-2.9932,-2.9725,-2.9456,-2.9145,-2.8773,-2.8255,-2.7821,-2.7696,-2.7434,-2.7309,-2.7309,-2.7092,-2.6805,-2.6544,-2.6304,-2.6091,-2.6062,-2.6255,-2.664,-2.7167,-2.7309,-2.7309,-4.7803,-4.6908,-4.6586,-4.6035,-4.5438,-4.5438,-4.5438,-4.5438,-4.5438,-4.5346,-4.5071,-4.4199,-4.3716,-4.351,-4.2706,-4.2125,-4.1934,-4.187,-4.1527,-4.11,-4.0906,-4.0647,-4.0387,-3.9491,-3.8947,-3.8707,-3.7986,-3.7527,-3.7396,-3.7374,-3.7275,-3.6972,-3.6911,-3.6606,-3.6116,-3.5993,-3.5788,-3.5541,-3.5418,-3.5418,-3.5376,-3.5107,-3.4879,-3.4754,-3.4049,-3.3513,-3.3368,-3.2954,-3.2669,-3.2669,-3.2669,-3.2525,-3.2215,-3.2173,-3.2085,-3.1795,-3.1754,-3.1754,-3.1754,-3.1754,-3.1754,-3.1733,-3.165,-3.1567,-3.1581,-3.1662,-3.1915,-3.2305,-3.2244,-3.2448,-3.2952,-3.3124,-3.3124,-3.3124,-3.3124,-3.2918,-3.2612,-3.2481,-3.2115,-3.1478,-3.1068,-3.0672,-3.036,-3.0151,-2.9994,-2.9994,-2.9994,-2.9994,-2.9994,-2.9994,-2.9994,-2.9994,-2.9994,-2.9994,-2.9973,-2.9766,-2.9497,-2.9208,-2.869,-2.8297,-2.8028,-2.7614,-2.7372,-2.7365,-2.7085,-2.6853,-2.6709,-2.6448,-2.6255,-2.6159,-2.6372,-2.6736,-2.7214,-2.7309,-2.7309,-4.7803,-4.6793,-4.5898,-4.5507,-4.5438,-4.5438,-4.5438,-4.5438,-4.5438,-4.5117,-4.4635,-4.4061,-4.3556,-4.3119,-4.2591,-4.2275,-4.2212,-4.1934,-4.1806,-4.1678,-4.1077,-4.0841,-4.0732,-3.9948,-3.9274,-3.8753,-3.827,-3.7789,-3.7396,-3.7374,-3.7214,-3.6932,-3.6911,-3.6728,-3.6361,-3.6034,-3.5932,-3.5809,-3.5541,-3.5418,-3.5418,-3.5397,-3.5169,-3.4857,-3.436,-3.3903,-3.341,-3.2975,-3.2669,-3.2669,-3.2669,-3.2649,-3.2628,-3.2628,-3.2587,-3.2566,-3.2566,-3.2566,-3.2602,-3.2525,-3.2602,-3.2561,-3.223,-3.1967,-3.1926,-3.1768,-3.2002,-3.2793,-3.2848,-3.2952,-3.3192,-3.3299,-3.3256,-3.3234,-3.319,-3.3115,-3.3103,-3.2678,-3.2289,-3.1779,-3.1166,-3.0537,-3.0099,-2.9994,-2.9994,-2.9994,-2.9994,-2.9994,-2.9994,-2.9994,-2.9994,-2.9994,-2.9994,-2.9994,-2.9994,-2.9911,-2.9704,-2.9477,-2.9187,-2.8897,-2.8338,-2.7862,-2.7634,-2.7407,-2.7133,-2.6948,-2.6853,-2.6757,-2.6661,-2.6613,-2.6661,-2.6976,-2.7214,-2.7309,-2.7309,-4.7321,-4.6334,-4.5645,-4.5438,-4.5438,-4.5438,-4.5438,-4.5438,-4.5438,-4.5071,-4.4566,-4.4038,-4.3533,-4.3074,-4.2568,-4.2275,-4.2275,-4.2212,-4.1998,-4.1806,-4.155,-4.1229,-4.0775,-4.0226,-3.9487,-3.8816,-3.8335,-3.7855,-3.7418,-3.7374,-3.7314,-3.7275,-3.7214,-3.7032,-3.6728,-3.6361,-3.6116,-3.587,-3.5562,-3.5418,-3.5418,-3.5418,-3.5335,-3.519,-3.4734,-3.4339,-3.3824,-3.3389,-3.3016,-3.269,-3.2669,-3.2669,-3.2669,-3.2669,-3.2669,-3.2669,-3.2669,-3.2669,-3.2669,-3.2669,-3.2669,-3.2649,-3.2525,-3.2401,-3.2457,-3.2333,-3.2538,-3.3148,-3.3359,-3.3531,-3.3888,-3.401,-3.3988,-3.3988,-3.3988,-3.3835,-3.353,-3.3007,-3.235,-3.1667,-3.0895,-3.0224,-3.0099,-2.9994,-2.9994,-2.9994,-2.9994,-2.9994,-2.9994,-2.9994,-2.9994,-2.9994,-2.9994,-2.9994,-2.9994,-2.9994,-2.9891,-2.9725,-2.9477,-2.9063,-2.8545,-2.809,-2.7821,-2.7434,-2.7187,-2.7092,-2.6996,-2.6805,-2.6736,-2.6853,-2.6948,-2.7023,-2.7262,-2.7309,-2.7309,-4.6908,-4.6104,-4.5576,-4.5438,-4.5438,-4.5438,-4.5438,-4.5438,-4.5438,-4.4979,-4.4359,-4.3969,-4.3464,-4.2867,-4.2477,-4.2275,-4.2275,-4.2275,-4.2148,-4.1934,-4.187,-4.155,-4.1097,-4.0724,-4.0021,-3.9107,-3.8345,-3.7802,-3.7418,-3.7374,-3.7374,-3.7374,-3.7374,-3.7253,-3.7032,-3.6728,-3.6423,-3.6055,-3.5726,-3.5541,-3.5418,-3.5418,-3.5418,-3.5376,-3.5128,-3.4755,-3.436,-3.3699,-3.3265,-3.2975,-3.2809,-3.2669,-3.2669,-3.2669,-3.2669,-3.2669,-3.2669,-3.2669,-3.2669,-3.2669,-3.2669,-3.2669,-3.2669,-3.2669,-3.2669,-3.2669,-3.2955,-3.3353,-3.3466,-3.3692,-3.4065,-3.4177,-3.4289,-3.4423,-3.4423,-3.4236,-3.3888,-3.3063,-3.2169,-3.1254,-3.0475,-3.0067,-2.9994,-2.9994,-2.9994,-2.9994,-2.9994,-2.9994,-2.9994,-2.9994,-2.9994,-2.9994,-2.9994,-2.9994,-2.9994,-2.9994,-2.9994,-2.9849,-2.9766,-2.9311,-2.8794,-2.8359,-2.7924,-2.7537,-2.7262,-2.7214,-2.7071,-2.688,-2.688,-2.6976,-2.7071,-2.7167,-2.7262,-2.7309,-2.7309,-4.6564,-4.6035,-4.5576,-4.5438,-4.5438,-4.5438,-4.5438,-4.5438,-4.5392,-4.475,-4.3969,-4.3785,-4.3234,-4.2459,-4.2362,-4.2275,-4.2275,-4.2275,-4.2275,-4.2212,-4.1998,-4.1806,-4.1655,-4.1377,-4.0647,-3.9628,-3.8487,-3.7742,-3.7435,-3.7374,-3.7374,-3.7374,-3.7374,-3.7374,-3.7374,-3.7032,-3.6728,-3.6361,-3.6055,-3.5726,-3.5418,-3.5418,-3.5418,-3.5418,-3.5376,-3.5169,-3.4816,-3.3886,-3.341,-3.3306,-3.2934,-3.2669,-3.2669,-3.2669,-3.2669,-3.2669,-3.2669,-3.2669,-3.2669,-3.2669,-3.2669,-3.2669,-3.2669,-3.2669,-3.2669,-3.2669,-3.2841,-3.3126,-3.3239,-3.3353,-3.3636,-3.3671,-3.3861,-3.4367,-3.4199,-3.4065,-3.3836,-3.295,-3.1741,-3.0716,-3.0151,-2.9994,-2.9994,-2.9994,-2.9994,-2.9994,-2.9994,-2.9994,-2.9994,-2.9994,-2.9994,-2.9994,-2.9994,-2.9994,-2.9994,-2.9994,-2.9994,-2.9973,-2.9932,-2.9663,-2.9042,-2.8545,-2.811,-2.7676,-2.7351,-2.7235,-2.7214,-2.7071,-2.7119,-2.7214,-2.7262,-2.7262,-2.7262,-2.7309,-2.7309,-4.6058,-4.5599,-4.5507,-4.5438,-4.5438,-4.5438,-4.5438,-4.5392,-4.5002,-4.4451,-4.3831,-4.3464,-4.2959,-4.239,-4.2275,-4.2275,-4.2275,-4.2275,-4.2275,-4.2275,-4.2189,-4.1998,-4.1806,-4.1678,-4.0905,-3.9632,-3.8736,-3.8045,-3.75,-3.7374,-3.7374,-3.7374,-3.7374,-3.7374,-3.7374,-3.7032,-3.6728,-3.6423,-3.6055,-3.5747,-3.5418,-3.5418,-3.5418,-3.5418,-3.5418,-3.5335,-3.519,-3.4341,-3.3779,-3.341,-3.2954,-3.2669,-3.2669,-3.2669,-3.2669,-3.2669,-3.2669,-3.2669,-3.2669,-3.2669,-3.2669,-3.2669,-3.2669,-3.2669,-3.2669,-3.2669,-3.2841,-3.3146,-3.3182,-3.3296,-3.3523,-3.3614,-3.3671,-3.384,-3.3805,-3.3727,-3.3522,-3.2674,-3.144,-3.0412,-3.0047,-2.9994,-2.9994,-2.9994,-2.9994,-2.9994,-2.9994,-2.9994,-2.9994,-2.9994,-2.9994,-2.9994,-2.9994,-2.9994,-2.9994,-2.9994,-2.9994,-2.9994,-2.9973,-2.9808,-2.9228,-2.8711,-2.8276,-2.7821,-2.7517,-2.7351,-2.733,-2.7309,-2.7309,-2.7309,-2.7309,-2.7309,-2.7309,-2.7309,-2.7309,-4.5829,-4.5461,-4.5438,-4.5438,-4.5438,-4.5438,-4.5255,-4.5048,-4.475,-4.4222,-4.3579,-4.3234,-4.2821,-4.2344,-4.2275,-4.2275,-4.2275,-4.2275,-4.2275,-4.2275,-4.2275,-4.2189,-4.1952,-4.1792,-4.1198,-4.0083,-3.9165,-3.8492,-3.7841,-3.7522,-3.7374,-3.7374,-3.7374,-3.7374,-3.7374,-3.7214,-3.6911,-3.6606,-3.6239,-3.5932,-3.5603,-3.5479,-3.5418,-3.5418,-3.5418,-3.5418,-3.5376,-3.4714,-3.4113,-3.3617,-3.3078,-3.269,-3.2669,-3.2669,-3.2669,-3.2669,-3.2669,-3.2669,-3.2669,-3.2669,-3.2669,-3.2669,-3.2669,-3.2669,-3.2669,-3.2669,-3.2784,-3.2955,-3.3012,-3.309,-3.3239,-3.3239,-3.3296,-3.3296,-3.3409,-3.324,-3.2812,-3.212,-3.1204,-3.0337,-2.9994,-2.9994,-2.9994,-2.9994,-2.9994,-2.9994,-2.9994,-2.9994,-2.9994,-2.9994,-2.9994,-2.9994,-2.9994,-2.9994,-2.9994,-2.9994,-2.9994,-2.9994,-2.9994,-2.9746,-2.9311,-2.8835,-2.838,-2.7779,-2.7372,-2.733,-2.7309,-2.7309,-2.7309,-2.7309,-2.7309,-2.7309,-2.7309,-2.7309,-2.7309,-4.5852,-4.5461,-4.5415,-4.5415,-4.5415,-4.5369,-4.5048,-4.4658,-4.4474,-4.3946,-4.3234,-4.3028,-4.2775,-4.2344,-4.2275,-4.2275,-4.2275,-4.2275,-4.2275,-4.2275,-4.2275,-4.2275,-4.2206,-4.1908,-4.1445,-4.0836,-3.9781,-3.9026,-3.8459,-3.7802,-3.7396,-3.7396,-3.7374,-3.7374,-3.7374,-3.7374,-3.7214,-3.685,-3.6545,-3.6239,-3.587,-3.5541,-3.5418,-3.5418,-3.5418,-3.5418,-3.5355,-3.4879,-3.4484,-3.3969,-3.3161,-3.2669,-3.2669,-3.2669,-3.2669,-3.2669,-3.2669,-3.2669,-3.2669,-3.2669,-3.2669,-3.2669,-3.2669,-3.2669,-3.2669,-3.2669,-3.2727,-3.2727,-3.2727,-3.2727,-3.2784,-3.2784,-3.2784,-3.2784,-3.3012,-3.2657,-3.1678,-3.1436,-3.1,-3.0243,-2.9994,-2.9994,-2.9994,-2.9994,-2.9994,-2.9994,-2.9994,-2.9994,-2.9994,-2.9994,-2.9994,-2.9994,-2.9994,-2.9994,-2.9994,-2.9994,-2.9994,-2.9994,-2.9953,-2.9704,-2.9311,-2.8814,-2.8276,-2.7676,-2.7372,-2.733,-2.7309,-2.7309,-2.7309,-2.7309,-2.7309,-2.7309,-2.7309,-2.7309,-2.7309,-4.6277,-4.6092,-4.589,-4.5754,-4.5708,-4.5114,-4.475,-4.4497,-4.3808,-4.3372,-4.3028,-4.2683,-4.25,-4.2275,-4.2275,-4.2275,-4.2275,-4.2275,-4.2275,-4.2275,-4.2275,-4.2275,-4.2275,-4.2201,-4.1736,-4.1103,-4.0428,-3.9668,-3.8653,-3.817,-3.7724,-3.7374,-3.7396,-3.7374,-3.7374,-3.7374,-3.7193,-3.6911,-3.6545,-3.6239,-3.5911,-3.5603,-3.5418,-3.5418,-3.5418,-3.5418,-3.5335,-3.4672,-3.409,-3.3575,-3.3037,-3.2669,-3.2669,-3.2669,-3.2669,-3.2669,-3.2669,-3.2669,-3.2669,-3.2669,-3.2669,-3.2669,-3.2669,-3.2669,-3.2669,-3.2669,-3.2669,-3.2669,-3.2669,-3.2669,-3.2669,-3.2669,-3.2669,-3.2727,-3.2763,-3.2446,-3.1685,-3.136,-3.1008,-3.0201,-3.0015,-2.9994,-2.9994,-2.9994,-2.9994,-2.9994,-2.9994,-2.9994,-2.9994,-2.9994,-2.9994,-2.9994,-2.9994,-2.9994,-2.9994,-2.9994,-2.9994,-2.9994,-2.9911,-2.9725,-2.9208,-2.8607,-2.8028,-2.7455,-2.7372,-2.733,-2.7309,-2.7309,-2.7309,-2.7309,-2.7309,-2.7309,-2.7309,-2.7309,-2.7309,-4.6405,-4.6338,-4.6204,-4.6025,-4.582,-4.5154,-4.4608,-4.413,-4.3464,-4.2959,-4.2752,-4.25,-4.2275,-4.2275,-4.2275,-4.2275,-4.2275,-4.2275,-4.2275,-4.2275,-4.2275,-4.2275,-4.2275,-4.2275,-4.2051,-4.1587,-4.1045,-4.0325,-3.9477,-3.8706,-3.8148,-3.7702,-3.7483,-3.7374,-3.7374,-3.7374,-3.7335,-3.7032,-3.6667,-3.63,-3.6116,-3.5685,-3.5418,-3.5418,-3.5418,-3.5418,-3.5314,-3.4734,-3.4132,-3.3451,-3.2975,-3.2669,-3.2669,-3.2669,-3.2669,-3.2669,-3.2669,-3.2669,-3.2669,-3.2669,-3.2669,-3.2669,-3.2669,-3.2669,-3.2669,-3.2669,-3.2669,-3.2669,-3.2669,-3.2669,-3.2669,-3.2669,-3.2669,-3.2706,-3.2504,-3.2147,-3.1443,-3.1195,-3.076,-3.0243,-2.9994,-2.9994,-2.9994,-2.9994,-2.9994,-2.9994,-2.9994,-2.9994,-2.9994,-2.9994,-2.9994,-2.9994,-2.9994,-2.9994,-2.9994,-2.9994,-2.9932,-2.9932,-2.9539,-2.9415,-2.898,-2.838,-2.7883,-2.7455,-2.7372,-2.7309,-2.7309,-2.7309,-2.7309,-2.7309,-2.7309,-2.7309,-2.7309,-2.7309,-2.7309,-4.654,-4.6473,-4.6496,-4.6248,-4.5838,-4.5262,-4.4507,-4.3759,-4.3188,-4.2752,-4.2431,-4.2275,-4.2275,-4.2275,-4.2275,-4.2275,-4.2275,-4.2275,-4.2275,-4.2275,-4.2275,-4.2275,-4.2275,-4.2275,-4.2252,-4.2074,-4.1479,-4.1,-4.0285,-3.9326,-3.8618,-3.813,-3.7719,-3.744,-3.7396,-3.7374,-3.7374,-3.7253,-3.6728,-3.6423,-3.6239,-3.5747,-3.5418,-3.5418,-3.5418,-3.5418,-3.5314,-3.4921,-3.4401,-3.3551,-3.3037,-3.2773,-3.2711,-3.2669,-3.2669,-3.2669,-3.2669,-3.2669,-3.2669,-3.2669,-3.2669,-3.2669,-3.2669,-3.2669,-3.2669,-3.2669,-3.2669,-3.2669,-3.2669,-3.2669,-3.2669,-3.2669,-3.2607,-3.2561,-3.223,-3.1795,-3.136,-3.0926,-3.0512,-3.0077,-2.9994,-2.9994,-2.9994,-2.9994,-2.9994,-2.9994,-2.9994,-2.9994,-2.9994,-2.9994,-2.9994,-2.9994,-2.9994,-2.9994,-2.9994,-2.9994,-2.9911,-2.9808,-2.9166,-2.8835,-2.8587,-2.809,-2.7717,-2.7475,-2.7372,-2.7309,-2.7309,-2.7309,-2.7309,-2.7309,-2.7309,-2.7309,-2.7309,-2.7309,-2.7309,-4.7298,-4.7232,-4.6965,-4.6594,-4.6059,-4.5014,-4.4217,-4.36,-4.2857,-4.2477,-4.2298,-4.2275,-4.2275,-4.2275,-4.2275,-4.2275,-4.2275,-4.2275,-4.2275,-4.2275,-4.2275,-4.2275,-4.2275,-4.2275,-4.2275,-4.2166,-4.1906,-4.1443,-4.0891,-4.0181,-3.9339,-3.8552,-3.813,-3.7745,-3.744,-3.7396,-3.7374,-3.7253,-3.6728,-3.6423,-3.63,-3.5726,-3.5418,-3.5418,-3.5418,-3.5418,-3.5335,-3.4983,-3.4546,-3.3969,-3.3492,-3.3099,-3.2752,-3.2669,-3.2669,-3.2669,-3.2669,-3.2669,-3.2669,-3.2669,-3.2669,-3.2669,-3.2669,-3.2669,-3.2669,-3.2669,-3.2669,-3.2669,-3.2669,-3.2669,-3.2669,-3.2669,-3.2504,-3.2215,-3.1836,-3.1381,-3.0946,-3.0739,-3.0429,-3.0139,-2.9994,-2.9994,-2.9994,-2.9994,-2.9994,-2.9994,-2.9994,-2.9994,-2.9994,-2.9994,-2.9994,-2.9994,-2.9994,-2.9994,-2.9953,-2.987,-2.9663,-2.9456,-2.8876,-2.8338,-2.8069,-2.7813,-2.7462,-2.7345,-2.733,-2.7309,-2.7309,-2.7309,-2.7309,-2.7309,-2.7309,-2.7309,-2.7309,-2.7309,-2.7309,-4.7497,-4.7473,-4.7035,-4.6574,-4.6019,-4.496,-4.4144,-4.352,-4.2864,-4.2466,-4.2339,-4.2275,-4.2275,-4.2275,-4.2275,-4.2275,-4.2275,-4.2275,-4.2275,-4.2275,-4.2275,-4.2275,-4.2275,-4.2275,-4.2275,-4.2275,-4.2125,-4.1838,-4.138,-4.0878,-4.0159,-3.9312,-3.8667,-3.817,-3.7702,-3.7505,-3.7374,-3.7253,-3.6789,-3.6423,-3.63,-3.5726,-3.5418,-3.5418,-3.5418,-3.5418,-3.5397,-3.5211,-3.4714,-3.4196,-3.3883,-3.3389,-3.2851,-3.2669,-3.2669,-3.2669,-3.2669,-3.2669,-3.2669,-3.2669,-3.2669,-3.2669,-3.2669,-3.2669,-3.2669,-3.2669,-3.2669,-3.2669,-3.2669,-3.2669,-3.2669,-3.2669,-3.2442,-3.2029,-3.1629,-3.1195,-3.0781,-3.0512,-3.0284,-3.0056,-2.9994,-2.9994,-2.9994,-2.9994,-2.9994,-2.9994,-2.9994,-2.9994,-2.9994,-2.9994,-2.9994,-2.9994,-2.9994,-2.9973,-2.9932,-2.9725,-2.9373,-2.9042,-2.8524,-2.8048,-2.7676,-2.7441,-2.716,-2.7167,-2.7214,-2.7309,-2.7309,-2.7309,-2.7262,-2.7309,-2.7309,-2.7309,-2.7309,-2.7262,-2.7309,-4.7449,-4.7353,-4.6896,-4.6436,-4.5889,-4.4991,-4.4246,-4.3572,-4.3032,-4.2656,-4.2402,-4.2339,-4.2275,-4.2275,-4.2275,-4.2275,-4.2275,-4.2275,-4.2275,-4.2275,-4.2275,-4.2275,-4.2275,-4.2275,-4.2275,-4.2275,-4.2275,-4.2102,-4.1797,-4.142,-4.0833,-4.0167,-3.9357,-3.8662,-3.8174,-3.7724,-3.7483,-3.7335,-3.6728,-3.6423,-3.63,-3.5726,-3.5418,-3.5418,-3.5418,-3.5418,-3.5418,-3.5335,-3.5045,-3.4318,-3.4173,-3.3617,-3.3058,-3.2747,-3.2669,-3.2669,-3.2669,-3.2669,-3.2669,-3.2669,-3.2669,-3.2669,-3.2669,-3.2669,-3.2669,-3.2669,-3.2669,-3.2669,-3.2669,-3.2669,-3.2669,-3.2525,-3.2297,-3.1905,-3.1526,-3.1091,-3.0636,-3.0222,-3.0056,-3.0015,-2.9994,-2.9994,-2.9994,-2.9994,-2.9994,-2.9994,-2.9994,-2.9994,-2.9994,-2.9994,-2.9994,-2.9994,-2.9994,-2.9808,-2.9725,-2.9549,-2.9177,-2.8619,-2.8144,-2.7793,-2.7379,-2.7201,-2.7044,-2.7119,-2.7167,-2.7167,-2.7119,-2.7023,-2.7023,-2.7167,-2.7167,-2.7023,-2.7071,-2.7214,-2.7262,-4.7233,-4.6824,-4.6752,-4.6158,-4.5326,-4.4785,-4.4262,-4.3742,-4.3121,-4.2759,-4.2696,-4.2466,-4.2339,-4.2275,-4.2275,-4.2275,-4.2275,-4.2275,-4.2275,-4.2275,-4.2275,-4.2275,-4.2275,-4.2275,-4.2275,-4.2275,-4.2275,-4.2275,-4.2125,-4.1843,-4.138,-4.0874,-4.0163,-3.9427,-3.8706,-3.817,-3.7745,-3.7444,-3.681,-3.6423,-3.6239,-3.5788,-3.5418,-3.5418,-3.5418,-3.5418,-3.5418,-3.5397,-3.5169,-3.4733,-3.4339,-3.3803,-3.3285,-3.2913,-3.269,-3.2669,-3.2669,-3.2669,-3.2669,-3.2669,-3.2669,-3.2669,-3.2669,-3.2669,-3.2669,-3.2669,-3.2669,-3.2669,-3.2669,-3.2669,-3.2649,-3.238,-3.1981,-3.1547,-3.1133,-3.0677,-3.0263,-3.0077,-2.9994,-2.9994,-2.9994,-2.9994,-2.9994,-2.9994,-2.9994,-2.9994,-2.9994,-2.9994,-2.9994,-2.9994,-2.9994,-2.9994,-2.9994,-2.9725,-2.9456,-2.9281,-2.8961,-2.8251,-2.7798,-2.7495,-2.7188,-2.7037,-2.6948,-2.688,-2.6784,-2.6736,-2.6688,-2.6736,-2.6736,-2.6832,-2.6784,-2.6736,-2.6832,-2.6976,-2.7119,-4.6944,-4.6655,-4.6126,-4.5621,-4.5077,-4.4616,-4.4189,-4.3764,-4.3451,-4.3137,-4.2822,-4.2633,-4.2466,-4.2339,-4.2275,-4.2275,-4.2275,-4.2275,-4.2275,-4.2275,-4.2275,-4.2275,-4.2275,-4.2275,-4.2275,-4.2275,-4.2275,-4.2275,-4.2275,-4.2125,-4.1861,-4.1402,-4.0733,-3.9993,-3.9316,-3.8521,-3.8051,-3.7623,-3.6918,-3.6423,-3.6361,-3.5726,-3.5418,-3.5418,-3.5418,-3.5418,-3.5418,-3.5418,-3.5211,-3.4755,-3.438,-3.3865,-3.341,-3.3016,-3.2669,-3.2669,-3.2669,-3.2669,-3.2669,-3.2669,-3.2669,-3.2669,-3.2669,-3.2669,-3.2669,-3.2669,-3.2669,-3.2669,-3.2669,-3.2669,-3.2649,-3.2235,-3.1857,-3.1422,-3.0946,-3.0491,-3.0139,-3.0015,-2.9994,-2.9994,-2.9994,-2.9994,-2.9994,-2.9994,-2.9994,-2.9994,-2.9994,-2.9994,-2.9994,-2.9994,-2.9994,-2.9942,-2.9848,-2.9507,-2.9127,-2.8778,-2.8542,-2.7856,-2.7398,-2.7097,-2.6899,-2.6681,-2.6544,-2.6448,-2.64,-2.64,-2.6496,-2.6592,-2.6496,-2.6448,-2.6496,-2.6544,-2.664,-2.6736,-2.6832,-4.6487,-4.6319,-4.5414,-4.5005,-4.4861,-4.4477,-4.4161,-4.395,-4.3802,-4.3514,-4.3012,-4.2822,-4.2633,-4.2466,-4.2339,-4.2275,-4.2275,-4.2275,-4.2275,-4.2275,-4.2275,-4.2275,-4.2275,-4.2275,-4.2275,-4.2275,-4.2275,-4.2275,-4.2275,-4.2275,-4.2148,-4.182,-4.1162,-4.0557,-3.9996,-3.9059,-3.8459,-3.7779,-3.7047,-3.6444,-3.6095,-3.5665,-3.5418,-3.5418,-3.5418,-3.5418,-3.5418,-3.5418,-3.5273,-3.4921,-3.4546,-3.401,-3.3555,-3.3099,-3.283,-3.269,-3.2669,-3.2669,-3.2669,-3.2669,-3.2669,-3.2669,-3.2669,-3.2669,-3.2669,-3.2669,-3.2669,-3.2669,-3.2669,-3.2669,-3.2607,-3.2153,-3.1774,-3.1381,-3.0884,-3.0429,-3.0139,-2.9994,-2.9994,-2.9994,-2.9994,-2.9994,-2.9994,-2.9994,-2.9994,-2.9994,-2.9994,-2.9994,-2.9994,-2.9994,-2.9994,-2.9889,-2.9682,-2.9238,-2.8788,-2.8249,-2.7843,-2.7236,-2.6952,-2.6693,-2.6488,-2.6304,-2.6207,-2.6159,-2.611,-2.6159,-2.6304,-2.6352,-2.6207,-2.6159,-2.6304,-2.6352,-2.64,-2.6448,-2.6544,-4.5678,-4.5309,-4.5125,-4.4813,-4.4429,-4.4309,-4.4285,-4.4223,-4.395,-4.3764,-4.3553,-4.3137,-4.2822,-4.2656,-4.2402,-4.2339,-4.2275,-4.2275,-4.2275,-4.2275,-4.2275,-4.2275,-4.2275,-4.2275,-4.2275,-4.2275,-4.2275,-4.2275,-4.2275,-4.2275,-4.2275,-4.2079,-4.1756,-4.132,-4.0621,-3.9534,-3.8865,-3.8055,-3.6964,-3.6116,-3.5665,-3.5479,-3.5418,-3.5418,-3.5418,-3.5418,-3.5418,-3.5418,-3.5355,-3.5293,-3.4879,-3.4445,-3.401,-3.3555,-3.312,-3.2851,-3.2669,-3.2669,-3.2669,-3.2669,-3.2669,-3.2669,-3.2669,-3.2669,-3.2669,-3.2669,-3.2669,-3.2669,-3.2669,-3.2628,-3.2463,-3.194,-3.1547,-3.1112,-3.0636,-3.0263,-2.9994,-2.9994,-2.9994,-2.9942,-2.9942,-2.9942,-2.9942,-2.9994,-2.9994,-2.9994,-2.9994,-2.9994,-2.9994,-2.9942,-2.9889,-2.9764,-2.942,-2.8999,-2.8378,-2.7843,-2.7292,-2.6721,-2.6472,-2.6304,-2.6207,-2.6062,-2.5965,-2.5917,-2.5917,-2.5888,-2.5965,-2.5965,-2.5839,-2.5888,-2.6014,-2.6062,-2.6091,-2.6187,-2.6255,-4.5005,-4.5053,-4.4765,-4.4501,-4.4309,-4.4285,-4.4285,-4.4285,-4.4161,-4.395,-4.3802,-4.3514,-4.32,-4.2822,-4.2466,-4.2339,-4.2275,-4.2275,-4.2275,-4.2275,-4.2275,-4.2275,-4.2275,-4.2275,-4.2275,-4.2275,-4.2275,-4.2275,-4.2275,-4.2275,-4.2275,-4.2275,-4.1998,-4.1651,-4.1076,-4.0007,-3.9316,-3.8481,-3.7363,-3.6199,-3.5747,-3.5479,-3.5418,-3.5418,-3.5418,-3.5418,-3.5418,-3.5418,-3.5418,-3.5335,-3.5004,-3.4608,-3.4152,-3.3675,-3.3182,-3.2731,-3.2669,-3.2669,-3.2669,-3.2669,-3.2669,-3.2669,-3.2669,-3.2669,-3.2669,-3.2669,-3.2669,-3.2669,-3.2669,-3.2566,-3.2277,-3.1754,-3.134,-3.0884,-3.0408,-3.0201,-2.9994,-2.9994,-2.9994,-2.9942,-2.9889,-2.9837,-2.9784,-2.9837,-2.9889,-2.9942,-2.9994,-2.9994,-2.9889,-2.9816,-2.9764,-2.9659,-2.9221,-2.8673,-2.805,-2.7399,-2.6863,-2.6349,-2.6064,-2.5965,-2.5917,-2.582,-2.5771,-2.5771,-2.5771,-2.5723,-2.5674,-2.5723,-2.5742,-2.5723,-2.5674,-2.582,-2.5917,-2.5868,-2.5985,-4.4525,-4.4837,-4.4453,-4.4285,-4.4285,-4.4285,-4.4285,-4.4285,-4.4285,-4.4137,-4.395,-4.3802,-4.3389,-4.2886,-4.2593,-4.2402,-4.2275,-4.2275,-4.2275,-4.2275,-4.2275,-4.2275,-4.2275,-4.2275,-4.2275,-4.2275,-4.2275,-4.2275,-4.2275,-4.2275,-4.2275,-4.2275,-4.2125,-4.1847,-4.1407,-4.0352,-3.9268,-3.8288,-3.709,-3.626,-3.5849,-3.5541,-3.5418,-3.5418,-3.5418,-3.5418,-3.5418,-3.5418,-3.5418,-3.5355,-3.5169,-3.4795,-3.4194,-3.3841,-3.3306,-3.2913,-3.2669,-3.2669,-3.2669,-3.2669,-3.2669,-3.2669,-3.2669,-3.2669,-3.2669,-3.2669,-3.2669,-3.2669,-3.2669,-3.2421,-3.2029,-3.165,-3.1215,-3.0781,-3.0305,-3.0139,-2.9994,-2.9942,-2.9837,-2.9784,-2.9659,-2.9501,-2.9501,-2.9627,-2.9732,-2.9889,-2.9942,-2.9942,-2.9816,-2.9659,-2.9501,-2.9343,-2.9071,-2.8463,-2.7693,-2.7027,-2.6445,-2.6044,-2.581,-2.5674,-2.5723,-2.5723,-2.5723,-2.5723,-2.5674,-2.5674,-2.5674,-2.5674,-2.5674,-2.5674,-2.5674,-2.5674,-2.5723,-2.5674,-2.5742,-4.4309,-4.4333,-4.4309,-4.4285,-4.4285,-4.4285,-4.4285,-4.4285,-4.4285,-4.4285,-4.4161,-4.395,-4.3451,-4.2949,-4.2759,-4.2593,-4.2339,-4.2339,-4.2275,-4.2275,-4.2275,-4.2275,-4.2275,-4.2275,-4.2275,-4.2275,-4.2275,-4.2275,-4.2275,-4.2275,-4.2275,-4.2275,-4.2212,-4.2061,-4.1443,-4.0343,-3.8852,-3.7815,-3.6731,-3.63,-3.5911,-3.5603,-3.5418,-3.5418,-3.5418,-3.5418,-3.5418,-3.5418,-3.5418,-3.5418,-3.5335,-3.4859,-3.4217,-3.3989,-3.3534,-3.2913,-3.2669,-3.2669,-3.2669,-3.2669,-3.2669,-3.2669,-3.2669,-3.2669,-3.2669,-3.2669,-3.2669,-3.2669,-3.2669,-3.2401,-3.2064,-3.165,-3.1174,-3.0615,-3.0222,-3.0098,-2.9942,-2.9784,-2.9659,-2.9554,-2.9396,-2.9237,-2.9132,-2.9258,-2.9448,-2.9554,-2.9659,-2.9679,-2.9606,-2.9448,-2.9205,-2.8993,-2.8834,-2.8285,-2.7369,-2.6836,-2.6602,-2.6161,-2.583,-2.5732,-2.5723,-2.5674,-2.5674,-2.5674,-2.5674,-2.5674,-2.5674,-2.5674,-2.5674,-2.5674,-2.5674,-2.5674,-2.5674,-2.5674,-2.5674,-4.4285,-4.4285,-4.4285,-4.4285,-4.4285,-4.4285,-4.4285,-4.4285,-4.4285,-4.4285,-4.4261,-4.395,-4.3701,-4.3365,-4.2949,-4.2759,-4.2593,-4.2402,-4.2339,-4.2275,-4.2275,-4.2275,-4.2275,-4.2275,-4.2275,-4.2275,-4.2275,-4.2275,-4.2275,-4.2229,-4.2252,-4.2275,-4.2206,-4.2023,-4.1337,-4.0197,-3.8648,-3.7493,-3.6728,-3.63,-3.6156,-3.5665,-3.5418,-3.5418,-3.5418,-3.5418,-3.5418,-3.5418,-3.5418,-3.5418,-3.5418,-3.4879,-3.4238,-3.4093,-3.3596,-3.2814,-3.269,-3.2669,-3.2669,-3.2669,-3.2669,-3.2669,-3.2669,-3.2669,-3.2669,-3.2669,-3.2669,-3.2669,-3.2669,-3.2457,-3.1712,-3.1443,-3.1112,-3.0491,-3.0139,-3.0036,-2.9889,-2.9659,-2.9501,-2.9396,-2.9152,-2.8887,-2.8834,-2.8887,-2.9026,-2.9237,-2.9343,-2.9396,-2.9343,-2.9185,-2.8993,-2.8781,-2.8621,-2.8318,-2.7513,-2.7109,-2.6816,-2.6367,-2.5918,-2.5791,-2.5732,-2.5674,-2.5674,-2.5674,-2.5674,-2.5674,-2.5674,-2.5674,-2.5674,-2.5674,-2.5674,-2.5674,-2.5674,-2.5674,-2.5674,-4.4285,-4.4285,-4.4285,-4.4285,-4.4285,-4.4285,-4.4189,-4.4045,-4.4082,-4.3925,-4.3829,-4.362,-4.3412,-4.3251,-4.3083,-4.2692,-4.2551,-4.2477,-4.2379,-4.2339,-4.2275,-4.2275,-4.2275,-4.2275,-4.2275,-4.2275,-4.2275,-4.2275,-4.2252,-4.2115,-4.2086,-4.2017,-4.1948,-4.1673,-4.1342,-3.9959,-3.8525,-3.7505,-3.6789,-3.6423,-3.63,-3.5788,-3.5418,-3.5418,-3.5418,-3.5418,-3.5418,-3.5418,-3.5418,-3.5418,-3.5335,-3.4921,-3.4424,-3.3948,-3.3575,-3.3058,-3.2669,-3.2669,-3.2669,-3.2669,-3.2669,-3.2669,-3.2669,-3.2669,-3.2669,-3.2669,-3.2669,-3.2669,-3.2628,-3.2354,-3.1526,-3.134,-3.0946,-3.0346,-3.0118,-2.9994,-2.9784,-2.9554,-2.9363,-2.9205,-2.8887,-2.8568,-2.8568,-2.8621,-2.8814,-2.9026,-2.9185,-2.9185,-2.9046,-2.8887,-2.8727,-2.8568,-2.8461,-2.8153,-2.7767,-2.7441,-2.7109,-2.6504,-2.6113,-2.5869,-2.5791,-2.5752,-2.5693,-2.5674,-2.5674,-2.5674,-2.5674,-2.5674,-2.5674,-2.5674,-2.5674,-2.5674,-2.5674,-2.5674,-2.5674,-4.4261,-4.4285,-4.4237,-4.4237,-4.4189,-4.4261,-4.3973,-4.3577,-4.3529,-4.3313,-4.3,-4.2928,-4.2748,-4.2602,-4.28,-4.2612,-4.2273,-4.2474,-4.2517,-4.2264,-4.2178,-4.227,-4.2275,-4.2275,-4.2275,-4.2275,-4.2247,-4.2201,-4.2247,-4.1788,-4.1627,-4.1443,-4.1237,-4.1014,-4.1335,-3.9937,-3.8525,-3.7461,-3.6728,-3.6545,-3.63,-3.5788,-3.5541,-3.5418,-3.5418,-3.5418,-3.5418,-3.5418,-3.5418,-3.5418,-3.5335,-3.4879,-3.4196,-3.401,-3.3555,-3.2793,-3.269,-3.2669,-3.2669,-3.2669,-3.2669,-3.2669,-3.2669,-3.2669,-3.2669,-3.2669,-3.2669,-3.2669,-3.2649,-3.2292,-3.1754,-3.1319,-3.0801,-3.0325,-3.0077,-2.9889,-2.9659,-2.9363,-2.9152,-2.8993,-2.8621,-2.8301,-2.8301,-2.8408,-2.8654,-2.8867,-2.9026,-2.8973,-2.8781,-2.8674,-2.8514,-2.8461,-2.8335,-2.8217,-2.7963,-2.7787,-2.7434,-2.6758,-2.6367,-2.6211,-2.5986,-2.5888,-2.583,-2.5732,-2.5674,-2.5674,-2.5674,-2.5674,-2.5674,-2.5674,-2.5674,-2.5674,-2.5674,-2.5674,-2.5674,-4.3601,-4.3289,-4.3289,-4.3289,-4.3337,-4.3649,-4.3505,-4.3072,-4.3,-4.2964,-4.2843,-4.2819,-4.276,-4.2676,-4.252,-4.2421,-4.2225,-4.1699,-4.1769,-4.2061,-4.1959,-4.2086,-4.2201,-4.2161,-4.2206,-4.2224,-4.2086,-4.1834,-4.1811,-4.1329,-4.1122,-4.0938,-4.0594,-4.019,-3.9817,-3.8979,-3.817,-3.7478,-3.6972,-3.6606,-3.6423,-3.5972,-3.5603,-3.5418,-3.5418,-3.5418,-3.5418,-3.5418,-3.5397,-3.5335,-3.5211,-3.4693,-3.4152,-3.3924,-3.3348,-3.2851,-3.2669,-3.2669,-3.2669,-3.2669,-3.2669,-3.2669,-3.2669,-3.2669,-3.2669,-3.2669,-3.2669,-3.2669,-3.2669,-3.225,-3.1609,-3.1422,-3.0967,-3.021,-2.9889,-2.9764,-2.9501,-2.9099,-2.8781,-2.8727,-2.8514,-2.8354,-2.8301,-2.8301,-2.8495,-2.8548,-2.8654,-2.8654,-2.8514,-2.8461,-2.8354,-2.8354,-2.8281,-2.8223,-2.8105,-2.793,-2.7787,-2.7297,-2.6875,-2.6641,-2.6426,-2.6211,-2.5996,-2.5869,-2.5771,-2.5674,-2.5674,-2.5674,-2.5674,-2.5674,-2.5674,-2.5674,-2.5674,-2.5674,-2.5674,-4.3072,-4.2819,-4.2819,-4.2699,-4.2651,-4.3024,-4.2952,-4.2578,-4.2303,-4.2289,-4.2241,-4.2182,-4.2182,-4.2171,-4.2221,-4.2078,-4.2042,-4.1872,-4.1443,-4.18,-4.1615,-4.1591,-4.1673,-4.1771,-4.161,-4.1719,-4.1558,-4.1306,-4.1283,-4.08,-4.0456,-4.0203,-3.9997,-3.9619,-3.9123,-3.8597,-3.8163,-3.7577,-3.7154,-3.6728,-3.6423,-3.6055,-3.5726,-3.5479,-3.5418,-3.5418,-3.5418,-3.5397,-3.5335,-3.5169,-3.4879,-3.4505,-3.3948,-3.3534,-3.3141,-3.2814,-3.2669,-3.2669,-3.2669,-3.2669,-3.2669,-3.2669,-3.2669,-3.2669,-3.2669,-3.2669,-3.2669,-3.2669,-3.2669,-3.2209,-3.1609,-3.1464,-3.1008,-3.0252,-2.9784,-2.9627,-2.9343,-2.894,-2.8621,-2.8568,-2.8461,-2.8354,-2.8301,-2.8301,-2.8354,-2.8354,-2.8301,-2.8301,-2.8301,-2.8301,-2.8301,-2.8301,-2.8301,-2.8262,-2.8203,-2.8086,-2.7943,-2.7748,-2.7402,-2.709,-2.6816,-2.6602,-2.6328,-2.6094,-2.6074,-2.6016,-2.5752,-2.5693,-2.5713,-2.5713,-2.5674,-2.5674,-2.5674,-2.5674,-2.5674,-4.2771,-4.2771,-4.2771,-4.2434,-4.2086,-4.2506,-4.2375,-4.1976,-4.1461,-4.1244,-4.1244,-4.1317,-4.1389,-4.1389,-4.1749,-4.1766,-4.1602,-4.1864,-4.1754,-4.1425,-4.1266,-4.1199,-4.1061,-4.1007,-4.1122,-4.0961,-4.0823,-4.0778,-4.0755,-4.0295,-3.9813,-3.9538,-3.9492,-3.9268,-3.8925,-3.8642,-3.8238,-3.7758,-3.7335,-3.685,-3.6545,-3.6178,-3.587,-3.5603,-3.5418,-3.5418,-3.5418,-3.5418,-3.5169,-3.4962,-3.4774,-3.4155,-3.3699,-3.3389,-3.3078,-3.2814,-3.2669,-3.2669,-3.2669,-3.2669,-3.2669,-3.2669,-3.2669,-3.2669,-3.2669,-3.2669,-3.2669,-3.2669,-3.2649,-3.2147,-3.165,-3.134,-3.1029,-3.0405,-2.9741,-2.9469,-2.9185,-2.8867,-2.8568,-2.8461,-2.8354,-2.8301,-2.8301,-2.8301,-2.8301,-2.8301,-2.8301,-2.8301,-2.8301,-2.8301,-2.8301,-2.8301,-2.8301,-2.8301,-2.8242,-2.8184,-2.8105,-2.7963,-2.7865,-2.7559,-2.7285,-2.6992,-2.6777,-2.6582,-2.6465,-2.6309,-2.6055,-2.5849,-2.5771,-2.5752,-2.5693,-2.5674,-2.5674,-2.5674,-2.5693,-4.2049,-4.1653,-4.1687,-4.1557,-4.1437,-4.1581,-4.1591,-4.1389,-4.122,-4.1196,-4.1196,-4.1196,-4.1196,-4.122,-4.1398,-4.1355,-4.1311,-4.1256,-4.1365,-4.1211,-4.0994,-4.101,-4.0967,-4.0854,-4.0862,-4.0663,-4.054,-4.0333,-4.0241,-3.9827,-3.9538,-3.9354,-3.9308,-3.919,-3.9072,-3.8834,-3.8418,-3.7998,-3.7517,-3.7093,-3.6728,-3.6361,-3.6055,-3.5809,-3.5479,-3.5418,-3.5418,-3.5376,-3.5128,-3.4857,-3.4484,-3.3986,-3.3492,-3.3099,-3.2731,-3.2711,-3.2669,-3.2669,-3.2669,-3.2669,-3.2669,-3.2669,-3.2669,-3.2669,-3.2669,-3.2669,-3.2669,-3.2669,-3.2649,-3.2292,-3.1816,-3.1464,-3.1091,-3.0529,-2.9884,-2.9311,-2.9026,-2.8708,-2.8441,-2.8354,-2.8301,-2.8301,-2.8301,-2.8301,-2.8301,-2.8301,-2.8301,-2.8301,-2.8301,-2.8301,-2.8301,-2.8301,-2.8301,-2.8301,-2.8301,-2.8242,-2.8203,-2.8144,-2.8047,-2.791,-2.7656,-2.7402,-2.7226,-2.7031,-2.6816,-2.6562,-2.6309,-2.6152,-2.6035,-2.5771,-2.5693,-2.5693,-2.5674,-2.5674,-2.5674,-4.1634,-4.1344,-4.123,-4.1196,-4.1196,-4.1196,-4.1196,-4.1196,-4.1196,-4.1196,-4.1196,-4.1196,-4.1196,-4.1196,-4.1196,-4.122,-4.122,-4.1119,-4.1089,-4.094,-4.074,-4.0739,-4.0735,-4.0731,-4.0555,-4.0449,-4.0214,-4.0006,-3.9877,-3.9597,-3.9308,-3.9308,-3.9308,-3.9308,-3.919,-3.893,-3.8633,-3.8216,-3.7878,-3.7396,-3.6972,-3.6606,-3.6239,-3.5932,-3.5603,-3.5418,-3.5376,-3.5293,-3.4921,-3.4567,-3.409,-3.3596,-3.3203,-3.2851,-3.269,-3.2669,-3.2669,-3.2669,-3.2669,-3.2669,-3.2669,-3.2669,-3.2669,-3.2669,-3.2669,-3.2669,-3.2669,-3.2669,-3.2628,-3.254,-3.2085,-3.1629,-3.1174,-3.0739,-2.9942,-2.9205,-2.8867,-2.8548,-2.8441,-2.8354,-2.8301,-2.8301,-2.8301,-2.8301,-2.8301,-2.8301,-2.8301,-2.8301,-2.8301,-2.8301,-2.8301,-2.8301,-2.8301,-2.8301,-2.8301,-2.8301,-2.8262,-2.8242,-2.8223,-2.8086,-2.793,-2.7832,-2.7676,-2.7402,-2.7109,-2.6875,-2.666,-2.6426,-2.625,-2.6035,-2.584,-2.5713,-2.5693,-2.5674,-2.5674,-4.1663,-4.1606,-4.1344,-4.123,-4.1196,-4.1196,-4.1196,-4.1196,-4.1196,-4.1196,-4.1196,-4.1196,-4.1196,-4.1196,-4.1196,-4.1196,-4.1196,-4.1139,-4.1024,-4.0735,-4.0714,-4.0633,-4.0469,-4.0211,-4.0293,-4.0165,-4.006,-3.9941,-3.979,-3.9661,-3.9544,-3.9367,-3.9367,-3.9367,-3.9249,-3.9049,-3.8812,-3.8574,-3.8216,-3.7758,-3.7154,-3.6667,-3.63,-3.5993,-3.5665,-3.5397,-3.5252,-3.4962,-3.4588,-3.4111,-3.3637,-3.3223,-3.2934,-3.2711,-3.2669,-3.2669,-3.2669,-3.2669,-3.2669,-3.2669,-3.2669,-3.2669,-3.2669,-3.2669,-3.2669,-3.2669,-3.2669,-3.2669,-3.2649,-3.2566,-3.2271,-3.1857,-3.1422,-3.0805,-3.0018,-2.9353,-2.8887,-2.8568,-2.8354,-2.8301,-2.8301,-2.8301,-2.8301,-2.8301,-2.8301,-2.8301,-2.8301,-2.8301,-2.8301,-2.8301,-2.8301,-2.8301,-2.8301,-2.8301,-2.8301,-2.8301,-2.8301,-2.8281,-2.8301,-2.8281,-2.8125,-2.8105,-2.8125,-2.7851,-2.7559,-2.7305,-2.707,-2.6875,-2.6641,-2.6289,-2.6074,-2.5791,-2.5732,-2.5732,-2.5674,-4.1972,-4.1915,-4.1606,-4.1402,-4.1172,-4.1196,-4.1172,-4.1196,-4.1196,-4.1196,-4.1196,-4.1196,-4.1196,-4.1196,-4.1196,-4.1196,-4.1196,-4.1196,-4.1115,-4.0966,-4.085,-4.0735,-4.0537,-4.0397,-4.0281,-4.0165,-4.0106,-4.0071,-4.0013,-3.9954,-3.9837,-3.9684,-3.9684,-3.9603,-3.9367,-3.919,-3.9108,-3.8871,-3.8633,-3.8178,-3.7637,-3.7093,-3.6606,-3.63,-3.5972,-3.5456,-3.5146,-3.4857,-3.4297,-3.3679,-3.3492,-3.3161,-3.2768,-3.269,-3.2669,-3.2669,-3.2669,-3.2669,-3.2669,-3.2669,-3.2669,-3.2669,-3.2669,-3.2669,-3.2669,-3.2669,-3.2669,-3.2669,-3.2649,-3.2566,-3.2401,-3.2008,-3.1581,-3.0833,-3.0093,-2.9481,-2.8874,-2.8568,-2.8301,-2.8301,-2.8301,-2.8301,-2.8301,-2.8301,-2.8301,-2.8301,-2.8301,-2.8301,-2.8301,-2.8301,-2.8301,-2.8301,-2.8301,-2.8301,-2.8301,-2.8301,-2.8301,-2.8301,-2.8301,-2.8301,-2.8301,-2.8262,-2.8223,-2.8203,-2.8027,-2.7754,-2.7559,-2.748,-2.7187,-2.6738,-2.6406,-2.6211,-2.5996,-2.5888,-2.5771,-4.2256,-4.2256,-4.1972,-4.1745,-4.1573,-4.1459,-4.1402,-4.1344,-4.123,-4.1196,-4.1196,-4.1196,-4.1196,-4.1196,-4.1196,-4.1196,-4.1196,-4.1196,-4.1172,-4.1115,-4.1,-4.0942,-4.0826,-4.0711,-4.0711,-4.0653,-4.0479,-4.0363,-4.0281,-4.0165,-4.0071,-4.0013,-3.9978,-3.9837,-3.9544,-3.9485,-3.9367,-3.9049,-3.8908,-3.8551,-3.8036,-3.7495,-3.6972,-3.6606,-3.5945,-3.5409,-3.4956,-3.4565,-3.3886,-3.341,-3.3203,-3.3016,-3.2711,-3.2669,-3.2669,-3.2669,-3.2669,-3.2669,-3.2669,-3.2669,-3.2669,-3.2669,-3.2669,-3.2669,-3.2669,-3.2669,-3.2669,-3.2669,-3.2669,-3.2607,-3.2483,-3.2173,-3.1814,-3.1222,-3.0261,-2.9487,-2.8886,-2.8461,-2.8301,-2.8301,-2.8301,-2.8301,-2.8301,-2.8301,-2.8301,-2.8301,-2.8301,-2.8301,-2.8301,-2.8301,-2.8301,-2.8301,-2.8301,-2.8301,-2.8301,-2.8301,-2.8301,-2.8301,-2.8301,-2.8301,-2.8301,-2.8301,-2.8281,-2.8262,-2.8242,-2.8164,-2.8008,-2.7904,-2.7689,-2.7226,-2.6894,-2.6621,-2.6387,-2.6211,-2.6269,-4.2289,-4.2258,-4.2033,-4.1995,-4.1931,-4.168,-4.1533,-4.1549,-4.1344,-4.123,-4.1196,-4.1196,-4.1196,-4.1196,-4.1196,-4.1196,-4.1196,-4.1196,-4.1196,-4.1196,-4.1196,-4.1115,-4.1115,-4.1115,-4.1081,-4.1,-4.0826,-4.0653,-4.0455,-4.0455,-4.0455,-4.0281,-4.0223,-4.0106,-3.9896,-3.9802,-3.9603,-3.9321,-3.9039,-3.8639,-3.8186,-3.773,-3.7205,-3.657,-3.5852,-3.5276,-3.4739,-3.4185,-3.3568,-3.3182,-3.2975,-3.283,-3.2711,-3.2669,-3.2669,-3.2669,-3.2669,-3.2669,-3.2669,-3.2669,-3.2669,-3.2669,-3.2669,-3.2669,-3.2669,-3.2669,-3.2669,-3.2669,-3.2669,-3.2628,-3.2525,-3.2421,-3.2004,-3.1355,-3.0354,-2.9445,-2.8863,-2.834,-2.8301,-2.8301,-2.8301,-2.8301,-2.8301,-2.8301,-2.8301,-2.8301,-2.8301,-2.8301,-2.8301,-2.8301,-2.8301,-2.8301,-2.8301,-2.8301,-2.8301,-2.8301,-2.8301,-2.8301,-2.8301,-2.8301,-2.8301,-2.8301,-2.8301,-2.8301,-2.8262,-2.8242,-2.8184,-2.8008,-2.7812,-2.7669,-2.7363,-2.7031,-2.6797,-2.6699,-2.6894,-4.1359,-4.1196,-4.1166,-4.1249,-4.1397,-4.1391,-4.1443,-4.1558,-4.1525,-4.1402,-4.1263,-4.123,-4.1196,-4.1196,-4.1196,-4.1196,-4.1196,-4.1196,-4.1196,-4.1196,-4.1196,-4.1196,-4.1196,-4.1196,-4.1196,-4.1139,-4.1115,-4.1057,-4.0826,-4.0884,-4.0884,-4.0653,-4.0595,-4.0421,-4.0106,-3.9931,-3.9709,-3.9382,-3.893,-3.842,-3.8046,-3.7517,-3.6925,-3.6313,-3.5757,-3.4917,-3.4286,-3.3863,-3.3376,-3.3012,-3.2731,-3.269,-3.2669,-3.2669,-3.2669,-3.2669,-3.2669,-3.2669,-3.2669,-3.2669,-3.2669,-3.2669,-3.2669,-3.2669,-3.2669,-3.2669,-3.2669,-3.2669,-3.2669,-3.2669,-3.2587,-3.2587,-3.2287,-3.1192,-3.0143,-2.9451,-2.8863,-2.8535,-2.8359,-2.832,-2.8301,-2.8301,-2.8301,-2.8301,-2.8301,-2.8301,-2.8301,-2.8301,-2.8301,-2.8301,-2.8301,-2.8301,-2.8301,-2.8301,-2.8301,-2.8301,-2.8301,-2.8301,-2.8301,-2.8301,-2.8301,-2.8301,-2.8301,-2.8301,-2.8301,-2.8281,-2.8203,-2.8144,-2.7988,-2.7865,-2.7728,-2.7461,-2.7246,-2.7187,-2.7363]}]]